<?xml version="1.0" encoding="UTF-8" standalone="no" ?>
<gpx xmlns="http://www.topografix.com/GPX/1/1" xmlns:xsi="http://www.w3.org/2001/XMLSchema-instance" xsi:schemaLocation="http://www.topografix.com/GPX/1/1 http://www.topografix.com/GPX/1/1/gpx.xsd" version="1.1" creator="VisuGPX - https://www.visugpx.com">
  <metadata>
    <name>Pré de Cinq Sous par le Pas de La Pierre</name>
    <desc><![CDATA[très belle rando.On marche souvent sur des crêtes.Il faut être vigilant et prudent.Ne pas emmener des personnes ayant le vertige!]]></desc>
  </metadata>
  <trk>
    <name><![CDATA[2018-12-05 15:40:04]]></name>
    <trkseg>
      <trkpt lat="44.99165" lon="5.19806">
        <ele>501.24</ele>
        <time>2018-12-05T08:02:08Z</time>
      </trkpt>
      <trkpt lat="44.99163" lon="5.19806">
        <ele>500.79</ele>
        <time>2018-12-05T08:02:26Z</time>
      </trkpt>
      <trkpt lat="44.99164" lon="5.19804">
        <ele>500.93</ele>
        <time>2018-12-05T08:02:45Z</time>
      </trkpt>
      <trkpt lat="44.99164" lon="5.19804">
        <ele>500.5</ele>
        <time>2018-12-05T08:03:05Z</time>
      </trkpt>
      <trkpt lat="44.99162" lon="5.19806">
        <ele>500.55</ele>
        <time>2018-12-05T08:03:21Z</time>
      </trkpt>
      <trkpt lat="44.9916" lon="5.19808">
        <ele>500.68</ele>
        <time>2018-12-05T08:03:43Z</time>
      </trkpt>
      <trkpt lat="44.99154" lon="5.19814">
        <ele>501</ele>
        <time>2018-12-05T08:03:57Z</time>
      </trkpt>
      <trkpt lat="44.99152" lon="5.19819">
        <ele>501.04</ele>
        <time>2018-12-05T08:04:01Z</time>
      </trkpt>
      <trkpt lat="44.99146" lon="5.19829">
        <ele>501.24</ele>
        <time>2018-12-05T08:04:11Z</time>
      </trkpt>
      <trkpt lat="44.99144" lon="5.19837">
        <ele>501.59</ele>
        <time>2018-12-05T08:04:23Z</time>
      </trkpt>
      <trkpt lat="44.99145" lon="5.19842">
        <ele>501.45</ele>
        <time>2018-12-05T08:04:33Z</time>
      </trkpt>
      <trkpt lat="44.99144" lon="5.19854">
        <ele>501.98</ele>
        <time>2018-12-05T08:04:47Z</time>
      </trkpt>
      <trkpt lat="44.99142" lon="5.19857">
        <ele>501.67</ele>
        <time>2018-12-05T08:05:05Z</time>
      </trkpt>
      <trkpt lat="44.99142" lon="5.19858">
        <ele>501.67</ele>
        <time>2018-12-05T08:05:27Z</time>
      </trkpt>
      <trkpt lat="44.99138" lon="5.19864">
        <ele>501.11</ele>
        <time>2018-12-05T08:05:41Z</time>
      </trkpt>
      <trkpt lat="44.99134" lon="5.19866">
        <ele>501.18</ele>
        <time>2018-12-05T08:05:44Z</time>
      </trkpt>
      <trkpt lat="44.99126" lon="5.19869">
        <ele>501.67</ele>
        <time>2018-12-05T08:05:53Z</time>
      </trkpt>
      <trkpt lat="44.99122" lon="5.19869">
        <ele>501.98</ele>
        <time>2018-12-05T08:05:57Z</time>
      </trkpt>
      <trkpt lat="44.99118" lon="5.19868">
        <ele>502.35</ele>
        <time>2018-12-05T08:06:01Z</time>
      </trkpt>
      <trkpt lat="44.99112" lon="5.19865">
        <ele>502.73</ele>
        <time>2018-12-05T08:06:06Z</time>
      </trkpt>
      <trkpt lat="44.99103" lon="5.19863">
        <ele>503.36</ele>
        <time>2018-12-05T08:06:15Z</time>
      </trkpt>
      <trkpt lat="44.991" lon="5.19861">
        <ele>503.35</ele>
        <time>2018-12-05T08:06:18Z</time>
      </trkpt>
      <trkpt lat="44.99095" lon="5.19858">
        <ele>504</ele>
        <time>2018-12-05T08:06:23Z</time>
      </trkpt>
      <trkpt lat="44.99085" lon="5.19849">
        <ele>504.69</ele>
        <time>2018-12-05T08:06:34Z</time>
      </trkpt>
      <trkpt lat="44.99079" lon="5.19843">
        <ele>505.36</ele>
        <time>2018-12-05T08:06:42Z</time>
      </trkpt>
      <trkpt lat="44.99064" lon="5.19837">
        <ele>506.47</ele>
        <time>2018-12-05T08:06:58Z</time>
      </trkpt>
      <trkpt lat="44.99057" lon="5.19834">
        <ele>507.42</ele>
        <time>2018-12-05T08:07:07Z</time>
      </trkpt>
      <trkpt lat="44.99052" lon="5.19832">
        <ele>507.63</ele>
        <time>2018-12-05T08:07:11Z</time>
      </trkpt>
      <trkpt lat="44.99051" lon="5.19831">
        <ele>507.9</ele>
        <time>2018-12-05T08:07:13Z</time>
      </trkpt>
      <trkpt lat="44.99041" lon="5.19823">
        <ele>508.95</ele>
        <time>2018-12-05T08:07:23Z</time>
      </trkpt>
      <trkpt lat="44.99038" lon="5.19821">
        <ele>509.16</ele>
        <time>2018-12-05T08:07:26Z</time>
      </trkpt>
      <trkpt lat="44.99032" lon="5.1982">
        <ele>509.88</ele>
        <time>2018-12-05T08:07:32Z</time>
      </trkpt>
      <trkpt lat="44.99023" lon="5.19817">
        <ele>510.64</ele>
        <time>2018-12-05T08:07:40Z</time>
      </trkpt>
      <trkpt lat="44.99018" lon="5.19814">
        <ele>510.91</ele>
        <time>2018-12-05T08:07:45Z</time>
      </trkpt>
      <trkpt lat="44.99008" lon="5.19808">
        <ele>511.98</ele>
        <time>2018-12-05T08:07:55Z</time>
      </trkpt>
      <trkpt lat="44.99005" lon="5.1981">
        <ele>512.24</ele>
        <time>2018-12-05T08:07:59Z</time>
      </trkpt>
      <trkpt lat="44.98999" lon="5.19813">
        <ele>512.95</ele>
        <time>2018-12-05T08:08:07Z</time>
      </trkpt>
      <trkpt lat="44.98998" lon="5.19815">
        <ele>512.98</ele>
        <time>2018-12-05T08:08:09Z</time>
      </trkpt>
      <trkpt lat="44.98994" lon="5.19819">
        <ele>513.61</ele>
        <time>2018-12-05T08:08:15Z</time>
      </trkpt>
      <trkpt lat="44.98985" lon="5.19819">
        <ele>514.24</ele>
        <time>2018-12-05T08:08:22Z</time>
      </trkpt>
      <trkpt lat="44.98973" lon="5.19807">
        <ele>514.84</ele>
        <time>2018-12-05T08:08:33Z</time>
      </trkpt>
      <trkpt lat="44.98962" lon="5.19808">
        <ele>515.75</ele>
        <time>2018-12-05T08:08:44Z</time>
      </trkpt>
      <trkpt lat="44.9895" lon="5.19812">
        <ele>516.87</ele>
        <time>2018-12-05T08:08:55Z</time>
      </trkpt>
      <trkpt lat="44.98936" lon="5.19813">
        <ele>518.21</ele>
        <time>2018-12-05T08:09:08Z</time>
      </trkpt>
      <trkpt lat="44.98923" lon="5.19812">
        <ele>519.52</ele>
        <time>2018-12-05T08:09:20Z</time>
      </trkpt>
      <trkpt lat="44.98915" lon="5.19812">
        <ele>520.43</ele>
        <time>2018-12-05T08:09:28Z</time>
      </trkpt>
      <trkpt lat="44.9891" lon="5.1981">
        <ele>520.99</ele>
        <time>2018-12-05T08:09:33Z</time>
      </trkpt>
      <trkpt lat="44.98901" lon="5.19805">
        <ele>522.25</ele>
        <time>2018-12-05T08:09:42Z</time>
      </trkpt>
      <trkpt lat="44.98892" lon="5.19796">
        <ele>523.93</ele>
        <time>2018-12-05T08:09:53Z</time>
      </trkpt>
      <trkpt lat="44.98887" lon="5.1979">
        <ele>524.79</ele>
        <time>2018-12-05T08:10:00Z</time>
      </trkpt>
      <trkpt lat="44.98878" lon="5.19782">
        <ele>526.39</ele>
        <time>2018-12-05T08:10:11Z</time>
      </trkpt>
      <trkpt lat="44.98869" lon="5.19775">
        <ele>527.42</ele>
        <time>2018-12-05T08:10:22Z</time>
      </trkpt>
      <trkpt lat="44.98858" lon="5.19764">
        <ele>529.08</ele>
        <time>2018-12-05T08:10:35Z</time>
      </trkpt>
      <trkpt lat="44.98849" lon="5.19761">
        <ele>530.32</ele>
        <time>2018-12-05T08:10:43Z</time>
      </trkpt>
      <trkpt lat="44.98839" lon="5.19758">
        <ele>530.82</ele>
        <time>2018-12-05T08:10:53Z</time>
      </trkpt>
      <trkpt lat="44.98827" lon="5.19758">
        <ele>531.85</ele>
        <time>2018-12-05T08:11:04Z</time>
      </trkpt>
      <trkpt lat="44.98822" lon="5.19757">
        <ele>531.85</ele>
        <time>2018-12-05T08:11:09Z</time>
      </trkpt>
      <trkpt lat="44.98809" lon="5.19752">
        <ele>533.02</ele>
        <time>2018-12-05T08:11:21Z</time>
      </trkpt>
      <trkpt lat="44.98795" lon="5.19745">
        <ele>534.18</ele>
        <time>2018-12-05T08:11:35Z</time>
      </trkpt>
      <trkpt lat="44.98791" lon="5.19744">
        <ele>534.89</ele>
        <time>2018-12-05T08:11:39Z</time>
      </trkpt>
      <trkpt lat="44.98776" lon="5.19737">
        <ele>536.13</ele>
        <time>2018-12-05T08:11:54Z</time>
      </trkpt>
      <trkpt lat="44.98771" lon="5.19733">
        <ele>536.3</ele>
        <time>2018-12-05T08:12:00Z</time>
      </trkpt>
      <trkpt lat="44.98767" lon="5.19729">
        <ele>537.18</ele>
        <time>2018-12-05T08:12:04Z</time>
      </trkpt>
      <trkpt lat="44.98763" lon="5.19727">
        <ele>537.87</ele>
        <time>2018-12-05T08:12:08Z</time>
      </trkpt>
      <trkpt lat="44.98749" lon="5.1972">
        <ele>538.51</ele>
        <time>2018-12-05T08:12:21Z</time>
      </trkpt>
      <trkpt lat="44.9874" lon="5.19716">
        <ele>539.44</ele>
        <time>2018-12-05T08:12:30Z</time>
      </trkpt>
      <trkpt lat="44.98727" lon="5.19708">
        <ele>539.8</ele>
        <time>2018-12-05T08:12:42Z</time>
      </trkpt>
      <trkpt lat="44.98716" lon="5.1971">
        <ele>540.23</ele>
        <time>2018-12-05T08:12:53Z</time>
      </trkpt>
      <trkpt lat="44.98705" lon="5.19714">
        <ele>541.46</ele>
        <time>2018-12-05T08:13:03Z</time>
      </trkpt>
      <trkpt lat="44.987" lon="5.19718">
        <ele>541.66</ele>
        <time>2018-12-05T08:13:08Z</time>
      </trkpt>
      <trkpt lat="44.98694" lon="5.19725">
        <ele>542.11</ele>
        <time>2018-12-05T08:13:15Z</time>
      </trkpt>
      <trkpt lat="44.98687" lon="5.19741">
        <ele>542.75</ele>
        <time>2018-12-05T08:13:26Z</time>
      </trkpt>
      <trkpt lat="44.98686" lon="5.19743">
        <ele>542.86</ele>
        <time>2018-12-05T08:13:28Z</time>
      </trkpt>
      <trkpt lat="44.98685" lon="5.19745">
        <ele>543.19</ele>
        <time>2018-12-05T08:13:30Z</time>
      </trkpt>
      <trkpt lat="44.98677" lon="5.19758">
        <ele>544.64</ele>
        <time>2018-12-05T08:13:42Z</time>
      </trkpt>
      <trkpt lat="44.9867" lon="5.1977">
        <ele>545.69</ele>
        <time>2018-12-05T08:13:52Z</time>
      </trkpt>
      <trkpt lat="44.98668" lon="5.19772">
        <ele>545.61</ele>
        <time>2018-12-05T08:13:55Z</time>
      </trkpt>
      <trkpt lat="44.98658" lon="5.19779">
        <ele>546.34</ele>
        <time>2018-12-05T08:14:06Z</time>
      </trkpt>
      <trkpt lat="44.98647" lon="5.19786">
        <ele>547.03</ele>
        <time>2018-12-05T08:14:16Z</time>
      </trkpt>
      <trkpt lat="44.98638" lon="5.19799">
        <ele>547.78</ele>
        <time>2018-12-05T08:14:28Z</time>
      </trkpt>
      <trkpt lat="44.9863" lon="5.1981">
        <ele>548.38</ele>
        <time>2018-12-05T08:14:39Z</time>
      </trkpt>
      <trkpt lat="44.98621" lon="5.19819">
        <ele>549.53</ele>
        <time>2018-12-05T08:14:50Z</time>
      </trkpt>
      <trkpt lat="44.98613" lon="5.19828">
        <ele>550.48</ele>
        <time>2018-12-05T08:15:00Z</time>
      </trkpt>
      <trkpt lat="44.98605" lon="5.19843">
        <ele>551.91</ele>
        <time>2018-12-05T08:15:13Z</time>
      </trkpt>
      <trkpt lat="44.98603" lon="5.19847">
        <ele>552.2</ele>
        <time>2018-12-05T08:15:25Z</time>
      </trkpt>
      <trkpt lat="44.98604" lon="5.19849">
        <ele>552.1</ele>
        <time>2018-12-05T08:15:49Z</time>
      </trkpt>
      <trkpt lat="44.98602" lon="5.19848">
        <ele>552.26</ele>
        <time>2018-12-05T08:16:06Z</time>
      </trkpt>
      <trkpt lat="44.98601" lon="5.19852">
        <ele>552.67</ele>
        <time>2018-12-05T08:16:21Z</time>
      </trkpt>
      <trkpt lat="44.98598" lon="5.19862">
        <ele>554.04</ele>
        <time>2018-12-05T08:16:37Z</time>
      </trkpt>
      <trkpt lat="44.98596" lon="5.19867">
        <ele>554.58</ele>
        <time>2018-12-05T08:16:41Z</time>
      </trkpt>
      <trkpt lat="44.9859" lon="5.19884">
        <ele>556.9</ele>
        <time>2018-12-05T08:16:53Z</time>
      </trkpt>
      <trkpt lat="44.9859" lon="5.19886">
        <ele>557.33</ele>
        <time>2018-12-05T08:16:55Z</time>
      </trkpt>
      <trkpt lat="44.98584" lon="5.19901">
        <ele>559.69</ele>
        <time>2018-12-05T08:17:07Z</time>
      </trkpt>
      <trkpt lat="44.9858" lon="5.19912">
        <ele>561.33</ele>
        <time>2018-12-05T08:17:17Z</time>
      </trkpt>
      <trkpt lat="44.98577" lon="5.19923">
        <ele>561.98</ele>
        <time>2018-12-05T08:17:24Z</time>
      </trkpt>
      <trkpt lat="44.98574" lon="5.19936">
        <ele>563.42</ele>
        <time>2018-12-05T08:17:34Z</time>
      </trkpt>
      <trkpt lat="44.98572" lon="5.19948">
        <ele>565.15</ele>
        <time>2018-12-05T08:17:45Z</time>
      </trkpt>
      <trkpt lat="44.98574" lon="5.19955">
        <ele>565.92</ele>
        <time>2018-12-05T08:17:50Z</time>
      </trkpt>
      <trkpt lat="44.98581" lon="5.19961">
        <ele>567.68</ele>
        <time>2018-12-05T08:18:01Z</time>
      </trkpt>
      <trkpt lat="44.98592" lon="5.1997">
        <ele>569.73</ele>
        <time>2018-12-05T08:18:19Z</time>
      </trkpt>
      <trkpt lat="44.98605" lon="5.1998">
        <ele>572.38</ele>
        <time>2018-12-05T08:18:35Z</time>
      </trkpt>
      <trkpt lat="44.98609" lon="5.19982">
        <ele>572.76</ele>
        <time>2018-12-05T08:18:39Z</time>
      </trkpt>
      <trkpt lat="44.98619" lon="5.19991">
        <ele>574.59</ele>
        <time>2018-12-05T08:18:51Z</time>
      </trkpt>
      <trkpt lat="44.98628" lon="5.19996">
        <ele>575.86</ele>
        <time>2018-12-05T08:19:02Z</time>
      </trkpt>
      <trkpt lat="44.98631" lon="5.19999">
        <ele>576.06</ele>
        <time>2018-12-05T08:19:05Z</time>
      </trkpt>
      <trkpt lat="44.98637" lon="5.2">
        <ele>577.09</ele>
        <time>2018-12-05T08:19:11Z</time>
      </trkpt>
      <trkpt lat="44.98648" lon="5.20011">
        <ele>578.68</ele>
        <time>2018-12-05T08:19:25Z</time>
      </trkpt>
      <trkpt lat="44.98653" lon="5.20016">
        <ele>579.42</ele>
        <time>2018-12-05T08:19:31Z</time>
      </trkpt>
      <trkpt lat="44.98661" lon="5.20024">
        <ele>579.78</ele>
        <time>2018-12-05T08:19:40Z</time>
      </trkpt>
      <trkpt lat="44.98672" lon="5.20036">
        <ele>581.36</ele>
        <time>2018-12-05T08:19:54Z</time>
      </trkpt>
      <trkpt lat="44.98673" lon="5.20039">
        <ele>581.56</ele>
        <time>2018-12-05T08:19:56Z</time>
      </trkpt>
      <trkpt lat="44.9868" lon="5.20049">
        <ele>582.83</ele>
        <time>2018-12-05T08:20:07Z</time>
      </trkpt>
      <trkpt lat="44.98682" lon="5.20051">
        <ele>583.1</ele>
        <time>2018-12-05T08:20:09Z</time>
      </trkpt>
      <trkpt lat="44.98684" lon="5.20057">
        <ele>583.86</ele>
        <time>2018-12-05T08:20:14Z</time>
      </trkpt>
      <trkpt lat="44.98687" lon="5.20063">
        <ele>584.42</ele>
        <time>2018-12-05T08:20:20Z</time>
      </trkpt>
      <trkpt lat="44.9869" lon="5.20075">
        <ele>585.88</ele>
        <time>2018-12-05T08:20:30Z</time>
      </trkpt>
      <trkpt lat="44.98693" lon="5.20091">
        <ele>587.68</ele>
        <time>2018-12-05T08:20:43Z</time>
      </trkpt>
      <trkpt lat="44.98693" lon="5.20092">
        <ele>587.71</ele>
        <time>2018-12-05T08:20:44Z</time>
      </trkpt>
      <trkpt lat="44.98694" lon="5.20096">
        <ele>588.09</ele>
        <time>2018-12-05T08:20:47Z</time>
      </trkpt>
      <trkpt lat="44.98692" lon="5.20111">
        <ele>589.32</ele>
        <time>2018-12-05T08:20:58Z</time>
      </trkpt>
      <trkpt lat="44.98687" lon="5.20125">
        <ele>590.73</ele>
        <time>2018-12-05T08:21:10Z</time>
      </trkpt>
      <trkpt lat="44.98682" lon="5.20134">
        <ele>591.89</ele>
        <time>2018-12-05T08:21:19Z</time>
      </trkpt>
      <trkpt lat="44.98675" lon="5.20143">
        <ele>592.65</ele>
        <time>2018-12-05T08:21:28Z</time>
      </trkpt>
      <trkpt lat="44.98672" lon="5.20145">
        <ele>593.07</ele>
        <time>2018-12-05T08:21:31Z</time>
      </trkpt>
      <trkpt lat="44.98661" lon="5.20158">
        <ele>594.7</ele>
        <time>2018-12-05T08:21:45Z</time>
      </trkpt>
      <trkpt lat="44.9865" lon="5.20165">
        <ele>596.09</ele>
        <time>2018-12-05T08:21:57Z</time>
      </trkpt>
      <trkpt lat="44.98638" lon="5.2017">
        <ele>597.91</ele>
        <time>2018-12-05T08:22:09Z</time>
      </trkpt>
      <trkpt lat="44.98629" lon="5.20177">
        <ele>598.89</ele>
        <time>2018-12-05T08:22:19Z</time>
      </trkpt>
      <trkpt lat="44.9862" lon="5.20184">
        <ele>599.69</ele>
        <time>2018-12-05T08:22:29Z</time>
      </trkpt>
      <trkpt lat="44.98612" lon="5.20189">
        <ele>600.32</ele>
        <time>2018-12-05T08:22:37Z</time>
      </trkpt>
      <trkpt lat="44.98601" lon="5.20199">
        <ele>601.81</ele>
        <time>2018-12-05T08:22:50Z</time>
      </trkpt>
      <trkpt lat="44.98585" lon="5.20214">
        <ele>603.39</ele>
        <time>2018-12-05T08:23:08Z</time>
      </trkpt>
      <trkpt lat="44.98577" lon="5.20234">
        <ele>604.8</ele>
        <time>2018-12-05T08:23:25Z</time>
      </trkpt>
      <trkpt lat="44.98569" lon="5.20252">
        <ele>605.77</ele>
        <time>2018-12-05T08:23:39Z</time>
      </trkpt>
      <trkpt lat="44.9856" lon="5.20271">
        <ele>608.48</ele>
        <time>2018-12-05T08:23:58Z</time>
      </trkpt>
      <trkpt lat="44.98552" lon="5.20291">
        <ele>610.84</ele>
        <time>2018-12-05T08:24:15Z</time>
      </trkpt>
      <trkpt lat="44.98543" lon="5.20308">
        <ele>612.6</ele>
        <time>2018-12-05T08:24:31Z</time>
      </trkpt>
      <trkpt lat="44.98534" lon="5.20325">
        <ele>614.45</ele>
        <time>2018-12-05T08:24:46Z</time>
      </trkpt>
      <trkpt lat="44.98529" lon="5.20342">
        <ele>616.02</ele>
        <time>2018-12-05T08:24:58Z</time>
      </trkpt>
      <trkpt lat="44.98523" lon="5.20352">
        <ele>617.04</ele>
        <time>2018-12-05T08:25:08Z</time>
      </trkpt>
      <trkpt lat="44.98518" lon="5.20362">
        <ele>617.79</ele>
        <time>2018-12-05T08:25:20Z</time>
      </trkpt>
      <trkpt lat="44.98513" lon="5.20365">
        <ele>617.95</ele>
        <time>2018-12-05T08:25:38Z</time>
      </trkpt>
      <trkpt lat="44.98502" lon="5.20368">
        <ele>619.46</ele>
        <time>2018-12-05T08:25:52Z</time>
      </trkpt>
      <trkpt lat="44.98495" lon="5.20358">
        <ele>621.97</ele>
        <time>2018-12-05T08:26:05Z</time>
      </trkpt>
      <trkpt lat="44.98488" lon="5.20352">
        <ele>624.6</ele>
        <time>2018-12-05T08:26:19Z</time>
      </trkpt>
      <trkpt lat="44.9848" lon="5.20349">
        <ele>627.79</ele>
        <time>2018-12-05T08:26:33Z</time>
      </trkpt>
      <trkpt lat="44.9848" lon="5.20349">
        <ele>627.75</ele>
        <time>2018-12-05T08:26:47Z</time>
      </trkpt>
      <trkpt lat="44.98482" lon="5.20349">
        <ele>627.29</ele>
        <time>2018-12-05T08:26:49Z</time>
      </trkpt>
      <trkpt lat="44.98489" lon="5.20346">
        <ele>625.91</ele>
        <time>2018-12-05T08:26:55Z</time>
      </trkpt>
      <trkpt lat="44.98493" lon="5.20345">
        <ele>624.48</ele>
        <time>2018-12-05T08:27:00Z</time>
      </trkpt>
      <trkpt lat="44.98498" lon="5.20346">
        <ele>623.36</ele>
        <time>2018-12-05T08:27:04Z</time>
      </trkpt>
      <trkpt lat="44.98506" lon="5.20334">
        <ele>623.55</ele>
        <time>2018-12-05T08:27:12Z</time>
      </trkpt>
      <trkpt lat="44.98514" lon="5.20321">
        <ele>622.68</ele>
        <time>2018-12-05T08:27:22Z</time>
      </trkpt>
      <trkpt lat="44.98519" lon="5.203">
        <ele>620.03</ele>
        <time>2018-12-05T08:27:32Z</time>
      </trkpt>
      <trkpt lat="44.98518" lon="5.20292">
        <ele>620.09</ele>
        <time>2018-12-05T08:27:35Z</time>
      </trkpt>
      <trkpt lat="44.9852" lon="5.20282">
        <ele>619.37</ele>
        <time>2018-12-05T08:27:47Z</time>
      </trkpt>
      <trkpt lat="44.98519" lon="5.20277">
        <ele>619.1</ele>
        <time>2018-12-05T08:27:53Z</time>
      </trkpt>
      <trkpt lat="44.98517" lon="5.20267">
        <ele>616.35</ele>
        <time>2018-12-05T08:28:02Z</time>
      </trkpt>
      <trkpt lat="44.98515" lon="5.20271">
        <ele>616.16</ele>
        <time>2018-12-05T08:28:18Z</time>
      </trkpt>
      <trkpt lat="44.98517" lon="5.20264">
        <ele>614.74</ele>
        <time>2018-12-05T08:28:33Z</time>
      </trkpt>
      <trkpt lat="44.98519" lon="5.20261">
        <ele>614.67</ele>
        <time>2018-12-05T08:28:42Z</time>
      </trkpt>
      <trkpt lat="44.98519" lon="5.20255">
        <ele>614.69</ele>
        <time>2018-12-05T08:29:02Z</time>
      </trkpt>
      <trkpt lat="44.98518" lon="5.20259">
        <ele>614.71</ele>
        <time>2018-12-05T08:29:09Z</time>
      </trkpt>
      <trkpt lat="44.98522" lon="5.2026">
        <ele>614.77</ele>
        <time>2018-12-05T08:29:23Z</time>
      </trkpt>
      <trkpt lat="44.9852" lon="5.20264">
        <ele>614.55</ele>
        <time>2018-12-05T08:29:38Z</time>
      </trkpt>
      <trkpt lat="44.98514" lon="5.20272">
        <ele>615.83</ele>
        <time>2018-12-05T08:29:57Z</time>
      </trkpt>
      <trkpt lat="44.98516" lon="5.20278">
        <ele>617.22</ele>
        <time>2018-12-05T08:30:09Z</time>
      </trkpt>
      <trkpt lat="44.98519" lon="5.20284">
        <ele>618.52</ele>
        <time>2018-12-05T08:30:22Z</time>
      </trkpt>
      <trkpt lat="44.98519" lon="5.20283">
        <ele>619.1</ele>
        <time>2018-12-05T08:30:39Z</time>
      </trkpt>
      <trkpt lat="44.98518" lon="5.20284">
        <ele>619.16</ele>
        <time>2018-12-05T08:30:58Z</time>
      </trkpt>
      <trkpt lat="44.98519" lon="5.2029">
        <ele>618.97</ele>
        <time>2018-12-05T08:31:10Z</time>
      </trkpt>
      <trkpt lat="44.98518" lon="5.20291">
        <ele>618.82</ele>
        <time>2018-12-05T08:31:33Z</time>
      </trkpt>
      <trkpt lat="44.98514" lon="5.20295">
        <ele>618.84</ele>
        <time>2018-12-05T08:31:50Z</time>
      </trkpt>
      <trkpt lat="44.98506" lon="5.20292">
        <ele>619.72</ele>
        <time>2018-12-05T08:32:01Z</time>
      </trkpt>
      <trkpt lat="44.98502" lon="5.20289">
        <ele>618.94</ele>
        <time>2018-12-05T08:32:19Z</time>
      </trkpt>
      <trkpt lat="44.98498" lon="5.20286">
        <ele>618.25</ele>
        <time>2018-12-05T08:32:24Z</time>
      </trkpt>
      <trkpt lat="44.98494" lon="5.20283">
        <ele>617.47</ele>
        <time>2018-12-05T08:32:29Z</time>
      </trkpt>
      <trkpt lat="44.98484" lon="5.20279">
        <ele>617.9</ele>
        <time>2018-12-05T08:32:40Z</time>
      </trkpt>
      <trkpt lat="44.98483" lon="5.20278">
        <ele>618.18</ele>
        <time>2018-12-05T08:32:41Z</time>
      </trkpt>
      <trkpt lat="44.98473" lon="5.20281">
        <ele>620</ele>
        <time>2018-12-05T08:32:53Z</time>
      </trkpt>
      <trkpt lat="44.98466" lon="5.20281">
        <ele>621.73</ele>
        <time>2018-12-05T08:33:06Z</time>
      </trkpt>
      <trkpt lat="44.98464" lon="5.2028">
        <ele>622.12</ele>
        <time>2018-12-05T08:33:09Z</time>
      </trkpt>
      <trkpt lat="44.98454" lon="5.20279">
        <ele>623.96</ele>
        <time>2018-12-05T08:33:21Z</time>
      </trkpt>
      <trkpt lat="44.98444" lon="5.20277">
        <ele>625.82</ele>
        <time>2018-12-05T08:33:37Z</time>
      </trkpt>
      <trkpt lat="44.98433" lon="5.20276">
        <ele>628.75</ele>
        <time>2018-12-05T08:33:55Z</time>
      </trkpt>
      <trkpt lat="44.98426" lon="5.20277">
        <ele>631.11</ele>
        <time>2018-12-05T08:34:06Z</time>
      </trkpt>
      <trkpt lat="44.9842" lon="5.2028">
        <ele>634.13</ele>
        <time>2018-12-05T08:34:19Z</time>
      </trkpt>
      <trkpt lat="44.98414" lon="5.20288">
        <ele>637.2</ele>
        <time>2018-12-05T08:34:33Z</time>
      </trkpt>
      <trkpt lat="44.98408" lon="5.20295">
        <ele>640.29</ele>
        <time>2018-12-05T08:34:45Z</time>
      </trkpt>
      <trkpt lat="44.98398" lon="5.20297">
        <ele>642.5</ele>
        <time>2018-12-05T08:35:00Z</time>
      </trkpt>
      <trkpt lat="44.98389" lon="5.20298">
        <ele>644.94</ele>
        <time>2018-12-05T08:35:15Z</time>
      </trkpt>
      <trkpt lat="44.98379" lon="5.2029">
        <ele>647.48</ele>
        <time>2018-12-05T08:35:30Z</time>
      </trkpt>
      <trkpt lat="44.98371" lon="5.20278">
        <ele>650.08</ele>
        <time>2018-12-05T08:35:47Z</time>
      </trkpt>
      <trkpt lat="44.98361" lon="5.2027">
        <ele>652.68</ele>
        <time>2018-12-05T08:36:03Z</time>
      </trkpt>
      <trkpt lat="44.98356" lon="5.20263">
        <ele>655.89</ele>
        <time>2018-12-05T08:36:13Z</time>
      </trkpt>
      <trkpt lat="44.98351" lon="5.20253">
        <ele>658.72</ele>
        <time>2018-12-05T08:36:29Z</time>
      </trkpt>
      <trkpt lat="44.98346" lon="5.20243">
        <ele>661.82</ele>
        <time>2018-12-05T08:36:45Z</time>
      </trkpt>
      <trkpt lat="44.98342" lon="5.20233">
        <ele>664.94</ele>
        <time>2018-12-05T08:37:01Z</time>
      </trkpt>
      <trkpt lat="44.98336" lon="5.20222">
        <ele>667.99</ele>
        <time>2018-12-05T08:37:16Z</time>
      </trkpt>
      <trkpt lat="44.98324" lon="5.20215">
        <ele>670.02</ele>
        <time>2018-12-05T08:37:33Z</time>
      </trkpt>
      <trkpt lat="44.98315" lon="5.20211">
        <ele>670.6</ele>
        <time>2018-12-05T08:37:43Z</time>
      </trkpt>
      <trkpt lat="44.98304" lon="5.202">
        <ele>673.35</ele>
        <time>2018-12-05T08:38:00Z</time>
      </trkpt>
      <trkpt lat="44.98288" lon="5.20191">
        <ele>675.66</ele>
        <time>2018-12-05T08:38:19Z</time>
      </trkpt>
      <trkpt lat="44.98287" lon="5.20191">
        <ele>675.01</ele>
        <time>2018-12-05T08:38:31Z</time>
      </trkpt>
      <trkpt lat="44.98287" lon="5.20186">
        <ele>674.92</ele>
        <time>2018-12-05T08:38:55Z</time>
      </trkpt>
      <trkpt lat="44.98286" lon="5.20184">
        <ele>674.77</ele>
        <time>2018-12-05T08:39:24Z</time>
      </trkpt>
      <trkpt lat="44.98286" lon="5.20185">
        <ele>674.96</ele>
        <time>2018-12-05T08:40:01Z</time>
      </trkpt>
      <trkpt lat="44.98285" lon="5.20187">
        <ele>675.52</ele>
        <time>2018-12-05T08:40:19Z</time>
      </trkpt>
      <trkpt lat="44.98275" lon="5.20186">
        <ele>676.95</ele>
        <time>2018-12-05T08:40:31Z</time>
      </trkpt>
      <trkpt lat="44.98262" lon="5.20186">
        <ele>677.25</ele>
        <time>2018-12-05T08:40:43Z</time>
      </trkpt>
      <trkpt lat="44.98252" lon="5.20179">
        <ele>677.74</ele>
        <time>2018-12-05T08:40:53Z</time>
      </trkpt>
      <trkpt lat="44.9824" lon="5.20168">
        <ele>677.13</ele>
        <time>2018-12-05T08:41:06Z</time>
      </trkpt>
      <trkpt lat="44.98226" lon="5.20161">
        <ele>676.79</ele>
        <time>2018-12-05T08:41:19Z</time>
      </trkpt>
      <trkpt lat="44.98212" lon="5.20151">
        <ele>676.39</ele>
        <time>2018-12-05T08:41:30Z</time>
      </trkpt>
      <trkpt lat="44.98201" lon="5.20145">
        <ele>676.05</ele>
        <time>2018-12-05T08:41:38Z</time>
      </trkpt>
      <trkpt lat="44.98192" lon="5.20139">
        <ele>675.83</ele>
        <time>2018-12-05T08:41:47Z</time>
      </trkpt>
      <trkpt lat="44.9818" lon="5.20134">
        <ele>676.23</ele>
        <time>2018-12-05T08:41:57Z</time>
      </trkpt>
      <trkpt lat="44.98167" lon="5.20131">
        <ele>675.81</ele>
        <time>2018-12-05T08:42:08Z</time>
      </trkpt>
      <trkpt lat="44.98155" lon="5.20129">
        <ele>674.74</ele>
        <time>2018-12-05T08:42:19Z</time>
      </trkpt>
      <trkpt lat="44.98154" lon="5.20131">
        <ele>674.87</ele>
        <time>2018-12-05T08:42:38Z</time>
      </trkpt>
      <trkpt lat="44.98153" lon="5.20132">
        <ele>674.87</ele>
        <time>2018-12-05T08:43:06Z</time>
      </trkpt>
      <trkpt lat="44.98152" lon="5.20132">
        <ele>674.77</ele>
        <time>2018-12-05T08:43:28Z</time>
      </trkpt>
      <trkpt lat="44.98152" lon="5.20132">
        <ele>674.71</ele>
        <time>2018-12-05T08:43:47Z</time>
      </trkpt>
      <trkpt lat="44.9815" lon="5.20133">
        <ele>674.59</ele>
        <time>2018-12-05T08:44:03Z</time>
      </trkpt>
      <trkpt lat="44.9815" lon="5.20134">
        <ele>674.56</ele>
        <time>2018-12-05T08:44:26Z</time>
      </trkpt>
      <trkpt lat="44.98151" lon="5.20134">
        <ele>674.7</ele>
        <time>2018-12-05T08:44:45Z</time>
      </trkpt>
      <trkpt lat="44.98147" lon="5.20135">
        <ele>674.16</ele>
        <time>2018-12-05T08:44:52Z</time>
      </trkpt>
      <trkpt lat="44.98143" lon="5.2014">
        <ele>673.54</ele>
        <time>2018-12-05T08:45:00Z</time>
      </trkpt>
      <trkpt lat="44.98137" lon="5.20148">
        <ele>673.03</ele>
        <time>2018-12-05T08:45:07Z</time>
      </trkpt>
      <trkpt lat="44.98132" lon="5.20163">
        <ele>673.04</ele>
        <time>2018-12-05T08:45:20Z</time>
      </trkpt>
      <trkpt lat="44.98127" lon="5.20174">
        <ele>673.25</ele>
        <time>2018-12-05T08:45:34Z</time>
      </trkpt>
      <trkpt lat="44.98116" lon="5.20181">
        <ele>674.71</ele>
        <time>2018-12-05T08:45:47Z</time>
      </trkpt>
      <trkpt lat="44.98105" lon="5.20189">
        <ele>676.42</ele>
        <time>2018-12-05T08:46:02Z</time>
      </trkpt>
      <trkpt lat="44.98091" lon="5.20194">
        <ele>678.13</ele>
        <time>2018-12-05T08:46:17Z</time>
      </trkpt>
      <trkpt lat="44.98075" lon="5.20197">
        <ele>679.81</ele>
        <time>2018-12-05T08:46:33Z</time>
      </trkpt>
      <trkpt lat="44.98063" lon="5.202">
        <ele>682.46</ele>
        <time>2018-12-05T08:46:49Z</time>
      </trkpt>
      <trkpt lat="44.9805" lon="5.20208">
        <ele>685.06</ele>
        <time>2018-12-05T08:47:08Z</time>
      </trkpt>
      <trkpt lat="44.98035" lon="5.20213">
        <ele>687.09</ele>
        <time>2018-12-05T08:47:26Z</time>
      </trkpt>
      <trkpt lat="44.9802" lon="5.20218">
        <ele>687.88</ele>
        <time>2018-12-05T08:47:44Z</time>
      </trkpt>
      <trkpt lat="44.98008" lon="5.20213">
        <ele>689.99</ele>
        <time>2018-12-05T08:47:57Z</time>
      </trkpt>
      <trkpt lat="44.97997" lon="5.20212">
        <ele>691.45</ele>
        <time>2018-12-05T08:48:09Z</time>
      </trkpt>
      <trkpt lat="44.97987" lon="5.20207">
        <ele>692.03</ele>
        <time>2018-12-05T08:48:21Z</time>
      </trkpt>
      <trkpt lat="44.9798" lon="5.20206">
        <ele>693.56</ele>
        <time>2018-12-05T08:48:36Z</time>
      </trkpt>
      <trkpt lat="44.97979" lon="5.20202">
        <ele>693.98</ele>
        <time>2018-12-05T08:48:54Z</time>
      </trkpt>
      <trkpt lat="44.97975" lon="5.20198">
        <ele>694.57</ele>
        <time>2018-12-05T08:49:18Z</time>
      </trkpt>
      <trkpt lat="44.9797" lon="5.20199">
        <ele>696.56</ele>
        <time>2018-12-05T08:49:36Z</time>
      </trkpt>
      <trkpt lat="44.97966" lon="5.20199">
        <ele>696.38</ele>
        <time>2018-12-05T08:49:53Z</time>
      </trkpt>
      <trkpt lat="44.97965" lon="5.20197">
        <ele>696.38</ele>
        <time>2018-12-05T08:50:08Z</time>
      </trkpt>
      <trkpt lat="44.97963" lon="5.20193">
        <ele>696.31</ele>
        <time>2018-12-05T08:50:32Z</time>
      </trkpt>
      <trkpt lat="44.97963" lon="5.20192">
        <ele>696.07</ele>
        <time>2018-12-05T08:50:48Z</time>
      </trkpt>
      <trkpt lat="44.97965" lon="5.20194">
        <ele>696.1</ele>
        <time>2018-12-05T08:51:05Z</time>
      </trkpt>
      <trkpt lat="44.97965" lon="5.20194">
        <ele>696.78</ele>
        <time>2018-12-05T08:51:11Z</time>
      </trkpt>
      <trkpt lat="44.97958" lon="5.20197">
        <ele>697.02</ele>
        <time>2018-12-05T08:51:23Z</time>
      </trkpt>
      <trkpt lat="44.97944" lon="5.20199">
        <ele>699.92</ele>
        <time>2018-12-05T08:51:41Z</time>
      </trkpt>
      <trkpt lat="44.97932" lon="5.20202">
        <ele>701.99</ele>
        <time>2018-12-05T08:51:56Z</time>
      </trkpt>
      <trkpt lat="44.9792" lon="5.20204">
        <ele>704.53</ele>
        <time>2018-12-05T08:52:12Z</time>
      </trkpt>
      <trkpt lat="44.97911" lon="5.20208">
        <ele>706.18</ele>
        <time>2018-12-05T08:52:26Z</time>
      </trkpt>
      <trkpt lat="44.97898" lon="5.20211">
        <ele>708.41</ele>
        <time>2018-12-05T08:52:43Z</time>
      </trkpt>
      <trkpt lat="44.97886" lon="5.20215">
        <ele>710.43</ele>
        <time>2018-12-05T08:52:59Z</time>
      </trkpt>
      <trkpt lat="44.97873" lon="5.20221">
        <ele>713.01</ele>
        <time>2018-12-05T08:53:16Z</time>
      </trkpt>
      <trkpt lat="44.97861" lon="5.20226">
        <ele>715.66</ele>
        <time>2018-12-05T08:53:30Z</time>
      </trkpt>
      <trkpt lat="44.9785" lon="5.20229">
        <ele>717.71</ele>
        <time>2018-12-05T08:53:44Z</time>
      </trkpt>
      <trkpt lat="44.97835" lon="5.20235">
        <ele>719.97</ele>
        <time>2018-12-05T08:54:01Z</time>
      </trkpt>
      <trkpt lat="44.97822" lon="5.20241">
        <ele>722.6</ele>
        <time>2018-12-05T08:54:19Z</time>
      </trkpt>
      <trkpt lat="44.97815" lon="5.20247">
        <ele>723.08</ele>
        <time>2018-12-05T08:54:29Z</time>
      </trkpt>
      <trkpt lat="44.97812" lon="5.20249">
        <ele>722.92</ele>
        <time>2018-12-05T08:54:32Z</time>
      </trkpt>
      <trkpt lat="44.97805" lon="5.20257">
        <ele>724.13</ele>
        <time>2018-12-05T08:54:41Z</time>
      </trkpt>
      <trkpt lat="44.97801" lon="5.20262">
        <ele>724.97</ele>
        <time>2018-12-05T08:54:46Z</time>
      </trkpt>
      <trkpt lat="44.97793" lon="5.20271">
        <ele>726.4</ele>
        <time>2018-12-05T08:54:57Z</time>
      </trkpt>
      <trkpt lat="44.9779" lon="5.20273">
        <ele>726.05</ele>
        <time>2018-12-05T08:55:01Z</time>
      </trkpt>
      <trkpt lat="44.97786" lon="5.20277">
        <ele>726.39</ele>
        <time>2018-12-05T08:55:06Z</time>
      </trkpt>
      <trkpt lat="44.97783" lon="5.20283">
        <ele>726.7</ele>
        <time>2018-12-05T08:55:10Z</time>
      </trkpt>
      <trkpt lat="44.97779" lon="5.20287">
        <ele>727.07</ele>
        <time>2018-12-05T08:55:14Z</time>
      </trkpt>
      <trkpt lat="44.97771" lon="5.20302">
        <ele>729.16</ele>
        <time>2018-12-05T08:55:28Z</time>
      </trkpt>
      <trkpt lat="44.97763" lon="5.20316">
        <ele>731.47</ele>
        <time>2018-12-05T08:55:42Z</time>
      </trkpt>
      <trkpt lat="44.97753" lon="5.20334">
        <ele>733.95</ele>
        <time>2018-12-05T08:55:59Z</time>
      </trkpt>
      <trkpt lat="44.97744" lon="5.20346">
        <ele>736.33</ele>
        <time>2018-12-05T08:56:14Z</time>
      </trkpt>
      <trkpt lat="44.97742" lon="5.20348">
        <ele>736.23</ele>
        <time>2018-12-05T08:56:17Z</time>
      </trkpt>
      <trkpt lat="44.97732" lon="5.20362">
        <ele>738.36</ele>
        <time>2018-12-05T08:56:32Z</time>
      </trkpt>
      <trkpt lat="44.97721" lon="5.20375">
        <ele>739.87</ele>
        <time>2018-12-05T08:56:45Z</time>
      </trkpt>
      <trkpt lat="44.97714" lon="5.20387">
        <ele>741.21</ele>
        <time>2018-12-05T08:56:55Z</time>
      </trkpt>
      <trkpt lat="44.97704" lon="5.20401">
        <ele>742.46</ele>
        <time>2018-12-05T08:57:10Z</time>
      </trkpt>
      <trkpt lat="44.97702" lon="5.20403">
        <ele>742.95</ele>
        <time>2018-12-05T08:57:12Z</time>
      </trkpt>
      <trkpt lat="44.97691" lon="5.20417">
        <ele>743.58</ele>
        <time>2018-12-05T08:57:24Z</time>
      </trkpt>
      <trkpt lat="44.9769" lon="5.20419">
        <ele>744.12</ele>
        <time>2018-12-05T08:57:26Z</time>
      </trkpt>
      <trkpt lat="44.97681" lon="5.20429">
        <ele>744.84</ele>
        <time>2018-12-05T08:57:37Z</time>
      </trkpt>
      <trkpt lat="44.97673" lon="5.20439">
        <ele>745.63</ele>
        <time>2018-12-05T08:57:47Z</time>
      </trkpt>
      <trkpt lat="44.97666" lon="5.20451">
        <ele>746.51</ele>
        <time>2018-12-05T08:57:57Z</time>
      </trkpt>
      <trkpt lat="44.97658" lon="5.20475">
        <ele>749.35</ele>
        <time>2018-12-05T08:58:14Z</time>
      </trkpt>
      <trkpt lat="44.97654" lon="5.20495">
        <ele>752.14</ele>
        <time>2018-12-05T08:58:31Z</time>
      </trkpt>
      <trkpt lat="44.97652" lon="5.20513">
        <ele>754.93</ele>
        <time>2018-12-05T08:58:48Z</time>
      </trkpt>
      <trkpt lat="44.97647" lon="5.2053">
        <ele>756.27</ele>
        <time>2018-12-05T08:59:02Z</time>
      </trkpt>
      <trkpt lat="44.97636" lon="5.20551">
        <ele>756.26</ele>
        <time>2018-12-05T08:59:19Z</time>
      </trkpt>
      <trkpt lat="44.97633" lon="5.20553">
        <ele>756.39</ele>
        <time>2018-12-05T08:59:33Z</time>
      </trkpt>
      <trkpt lat="44.97624" lon="5.20553">
        <ele>755.99</ele>
        <time>2018-12-05T08:59:47Z</time>
      </trkpt>
      <trkpt lat="44.97624" lon="5.20554">
        <ele>755.68</ele>
        <time>2018-12-05T09:00:09Z</time>
      </trkpt>
      <trkpt lat="44.97627" lon="5.20554">
        <ele>755.67</ele>
        <time>2018-12-05T09:00:30Z</time>
      </trkpt>
      <trkpt lat="44.97628" lon="5.20572">
        <ele>758.05</ele>
        <time>2018-12-05T09:00:43Z</time>
      </trkpt>
      <trkpt lat="44.97627" lon="5.20583">
        <ele>760.08</ele>
        <time>2018-12-05T09:00:58Z</time>
      </trkpt>
      <trkpt lat="44.9762" lon="5.2058">
        <ele>762.05</ele>
        <time>2018-12-05T09:01:13Z</time>
      </trkpt>
      <trkpt lat="44.9761" lon="5.20573">
        <ele>764.92</ele>
        <time>2018-12-05T09:01:29Z</time>
      </trkpt>
      <trkpt lat="44.97598" lon="5.20567">
        <ele>767.11</ele>
        <time>2018-12-05T09:01:50Z</time>
      </trkpt>
      <trkpt lat="44.97592" lon="5.20552">
        <ele>768.25</ele>
        <time>2018-12-05T09:02:07Z</time>
      </trkpt>
      <trkpt lat="44.97584" lon="5.2054">
        <ele>770.37</ele>
        <time>2018-12-05T09:02:24Z</time>
      </trkpt>
      <trkpt lat="44.97573" lon="5.20535">
        <ele>771.55</ele>
        <time>2018-12-05T09:02:40Z</time>
      </trkpt>
      <trkpt lat="44.97564" lon="5.20537">
        <ele>774.4</ele>
        <time>2018-12-05T09:02:59Z</time>
      </trkpt>
      <trkpt lat="44.97557" lon="5.20535">
        <ele>777</ele>
        <time>2018-12-05T09:03:17Z</time>
      </trkpt>
      <trkpt lat="44.97548" lon="5.20536">
        <ele>779.26</ele>
        <time>2018-12-05T09:03:38Z</time>
      </trkpt>
      <trkpt lat="44.97541" lon="5.20532">
        <ele>779.64</ele>
        <time>2018-12-05T09:03:55Z</time>
      </trkpt>
      <trkpt lat="44.97531" lon="5.20535">
        <ele>780.94</ele>
        <time>2018-12-05T09:04:13Z</time>
      </trkpt>
      <trkpt lat="44.97528" lon="5.20532">
        <ele>780.58</ele>
        <time>2018-12-05T09:04:31Z</time>
      </trkpt>
      <trkpt lat="44.97524" lon="5.20534">
        <ele>782.11</ele>
        <time>2018-12-05T09:04:54Z</time>
      </trkpt>
      <trkpt lat="44.97516" lon="5.20533">
        <ele>784.32</ele>
        <time>2018-12-05T09:05:07Z</time>
      </trkpt>
      <trkpt lat="44.97507" lon="5.20525">
        <ele>786.18</ele>
        <time>2018-12-05T09:05:22Z</time>
      </trkpt>
      <trkpt lat="44.97501" lon="5.20518">
        <ele>789.11</ele>
        <time>2018-12-05T09:05:41Z</time>
      </trkpt>
      <trkpt lat="44.97492" lon="5.20517">
        <ele>791.03</ele>
        <time>2018-12-05T09:05:59Z</time>
      </trkpt>
      <trkpt lat="44.97489" lon="5.2051">
        <ele>792.8</ele>
        <time>2018-12-05T09:06:17Z</time>
      </trkpt>
      <trkpt lat="44.97487" lon="5.20501">
        <ele>795.25</ele>
        <time>2018-12-05T09:06:30Z</time>
      </trkpt>
      <trkpt lat="44.97484" lon="5.20493">
        <ele>796.57</ele>
        <time>2018-12-05T09:06:44Z</time>
      </trkpt>
      <trkpt lat="44.97484" lon="5.20492">
        <ele>797.07</ele>
        <time>2018-12-05T09:06:45Z</time>
      </trkpt>
      <trkpt lat="44.97479" lon="5.20491">
        <ele>799.15</ele>
        <time>2018-12-05T09:07:04Z</time>
      </trkpt>
      <trkpt lat="44.97472" lon="5.20486">
        <ele>801.68</ele>
        <time>2018-12-05T09:07:21Z</time>
      </trkpt>
      <trkpt lat="44.97467" lon="5.20479">
        <ele>804.42</ele>
        <time>2018-12-05T09:07:40Z</time>
      </trkpt>
      <trkpt lat="44.97462" lon="5.20468">
        <ele>807.05</ele>
        <time>2018-12-05T09:07:59Z</time>
      </trkpt>
      <trkpt lat="44.9746" lon="5.2045">
        <ele>810.07</ele>
        <time>2018-12-05T09:08:22Z</time>
      </trkpt>
      <trkpt lat="44.97459" lon="5.20439">
        <ele>811.83</ele>
        <time>2018-12-05T09:08:34Z</time>
      </trkpt>
      <trkpt lat="44.97458" lon="5.2043">
        <ele>813.46</ele>
        <time>2018-12-05T09:08:48Z</time>
      </trkpt>
      <trkpt lat="44.97454" lon="5.20418">
        <ele>816.53</ele>
        <time>2018-12-05T09:09:06Z</time>
      </trkpt>
      <trkpt lat="44.97454" lon="5.20401">
        <ele>818.34</ele>
        <time>2018-12-05T09:09:24Z</time>
      </trkpt>
      <trkpt lat="44.97452" lon="5.20378">
        <ele>820.17</ele>
        <time>2018-12-05T09:09:42Z</time>
      </trkpt>
      <trkpt lat="44.97449" lon="5.20369">
        <ele>820.87</ele>
        <time>2018-12-05T09:09:54Z</time>
      </trkpt>
      <trkpt lat="44.97448" lon="5.20361">
        <ele>821.58</ele>
        <time>2018-12-05T09:10:02Z</time>
      </trkpt>
      <trkpt lat="44.97441" lon="5.20342">
        <ele>824.71</ele>
        <time>2018-12-05T09:10:27Z</time>
      </trkpt>
      <trkpt lat="44.97442" lon="5.20335">
        <ele>826.11</ele>
        <time>2018-12-05T09:10:38Z</time>
      </trkpt>
      <trkpt lat="44.97444" lon="5.20314">
        <ele>828.74</ele>
        <time>2018-12-05T09:10:57Z</time>
      </trkpt>
      <trkpt lat="44.97445" lon="5.20301">
        <ele>829.84</ele>
        <time>2018-12-05T09:11:08Z</time>
      </trkpt>
      <trkpt lat="44.97439" lon="5.20291">
        <ele>831.71</ele>
        <time>2018-12-05T09:11:25Z</time>
      </trkpt>
      <trkpt lat="44.9743" lon="5.20285">
        <ele>834.71</ele>
        <time>2018-12-05T09:11:45Z</time>
      </trkpt>
      <trkpt lat="44.97422" lon="5.20282">
        <ele>835.43</ele>
        <time>2018-12-05T09:12:00Z</time>
      </trkpt>
      <trkpt lat="44.97419" lon="5.20273">
        <ele>835.19</ele>
        <time>2018-12-05T09:12:38Z</time>
      </trkpt>
      <trkpt lat="44.97418" lon="5.20273">
        <ele>835.12</ele>
        <time>2018-12-05T09:13:07Z</time>
      </trkpt>
      <trkpt lat="44.97418" lon="5.20273">
        <ele>836</ele>
        <time>2018-12-05T09:13:27Z</time>
      </trkpt>
      <trkpt lat="44.97414" lon="5.20277">
        <ele>837.48</ele>
        <time>2018-12-05T09:13:47Z</time>
      </trkpt>
      <trkpt lat="44.97411" lon="5.20277">
        <ele>838.19</ele>
        <time>2018-12-05T09:14:06Z</time>
      </trkpt>
      <trkpt lat="44.9741" lon="5.20277">
        <ele>837.22</ele>
        <time>2018-12-05T09:14:24Z</time>
      </trkpt>
      <trkpt lat="44.9741" lon="5.2028">
        <ele>837.8</ele>
        <time>2018-12-05T09:14:42Z</time>
      </trkpt>
      <trkpt lat="44.97411" lon="5.20282">
        <ele>837.81</ele>
        <time>2018-12-05T09:14:56Z</time>
      </trkpt>
      <trkpt lat="44.9741" lon="5.20282">
        <ele>837.46</ele>
        <time>2018-12-05T09:15:19Z</time>
      </trkpt>
      <trkpt lat="44.9741" lon="5.20288">
        <ele>837.67</ele>
        <time>2018-12-05T09:15:39Z</time>
      </trkpt>
      <trkpt lat="44.9741" lon="5.20285">
        <ele>837.76</ele>
        <time>2018-12-05T09:16:02Z</time>
      </trkpt>
      <trkpt lat="44.9741" lon="5.20284">
        <ele>837.7</ele>
        <time>2018-12-05T09:16:24Z</time>
      </trkpt>
      <trkpt lat="44.9741" lon="5.2028">
        <ele>837.62</ele>
        <time>2018-12-05T09:16:48Z</time>
      </trkpt>
      <trkpt lat="44.97412" lon="5.20279">
        <ele>837.63</ele>
        <time>2018-12-05T09:17:10Z</time>
      </trkpt>
      <trkpt lat="44.9741" lon="5.20282">
        <ele>837.89</ele>
        <time>2018-12-05T09:17:43Z</time>
      </trkpt>
      <trkpt lat="44.97409" lon="5.20282">
        <ele>837.83</ele>
        <time>2018-12-05T09:18:01Z</time>
      </trkpt>
      <trkpt lat="44.97407" lon="5.20285">
        <ele>838.02</ele>
        <time>2018-12-05T09:18:20Z</time>
      </trkpt>
      <trkpt lat="44.97405" lon="5.2029">
        <ele>839.01</ele>
        <time>2018-12-05T09:18:35Z</time>
      </trkpt>
      <trkpt lat="44.97405" lon="5.20294">
        <ele>839.47</ele>
        <time>2018-12-05T09:18:47Z</time>
      </trkpt>
      <trkpt lat="44.97397" lon="5.20295">
        <ele>842.68</ele>
        <time>2018-12-05T09:19:00Z</time>
      </trkpt>
      <trkpt lat="44.97385" lon="5.203">
        <ele>846.08</ele>
        <time>2018-12-05T09:19:17Z</time>
      </trkpt>
      <trkpt lat="44.97378" lon="5.20304">
        <ele>848.88</ele>
        <time>2018-12-05T09:19:31Z</time>
      </trkpt>
      <trkpt lat="44.97371" lon="5.20311">
        <ele>851.41</ele>
        <time>2018-12-05T09:19:47Z</time>
      </trkpt>
      <trkpt lat="44.97366" lon="5.20317">
        <ele>853.31</ele>
        <time>2018-12-05T09:20:02Z</time>
      </trkpt>
      <trkpt lat="44.9736" lon="5.20323">
        <ele>854.62</ele>
        <time>2018-12-05T09:20:17Z</time>
      </trkpt>
      <trkpt lat="44.97353" lon="5.20332">
        <ele>857.08</ele>
        <time>2018-12-05T09:20:33Z</time>
      </trkpt>
      <trkpt lat="44.97347" lon="5.20337">
        <ele>860.12</ele>
        <time>2018-12-05T09:20:46Z</time>
      </trkpt>
      <trkpt lat="44.97335" lon="5.20346">
        <ele>862.61</ele>
        <time>2018-12-05T09:21:05Z</time>
      </trkpt>
      <trkpt lat="44.97327" lon="5.20358">
        <ele>865.52</ele>
        <time>2018-12-05T09:21:20Z</time>
      </trkpt>
      <trkpt lat="44.97326" lon="5.20367">
        <ele>868.56</ele>
        <time>2018-12-05T09:21:36Z</time>
      </trkpt>
      <trkpt lat="44.97322" lon="5.20373">
        <ele>871.55</ele>
        <time>2018-12-05T09:21:50Z</time>
      </trkpt>
      <trkpt lat="44.97318" lon="5.20382">
        <ele>874.78</ele>
        <time>2018-12-05T09:22:06Z</time>
      </trkpt>
      <trkpt lat="44.97315" lon="5.20389">
        <ele>877.83</ele>
        <time>2018-12-05T09:22:21Z</time>
      </trkpt>
      <trkpt lat="44.97312" lon="5.20399">
        <ele>880.06</ele>
        <time>2018-12-05T09:22:36Z</time>
      </trkpt>
      <trkpt lat="44.97305" lon="5.20408">
        <ele>882.97</ele>
        <time>2018-12-05T09:22:55Z</time>
      </trkpt>
      <trkpt lat="44.97298" lon="5.20413">
        <ele>886.13</ele>
        <time>2018-12-05T09:23:11Z</time>
      </trkpt>
      <trkpt lat="44.97294" lon="5.20421">
        <ele>889.15</ele>
        <time>2018-12-05T09:23:26Z</time>
      </trkpt>
      <trkpt lat="44.97289" lon="5.20431">
        <ele>891.87</ele>
        <time>2018-12-05T09:23:44Z</time>
      </trkpt>
      <trkpt lat="44.97285" lon="5.20435">
        <ele>894.48</ele>
        <time>2018-12-05T09:23:57Z</time>
      </trkpt>
      <trkpt lat="44.97278" lon="5.20445">
        <ele>896.06</ele>
        <time>2018-12-05T09:24:12Z</time>
      </trkpt>
      <trkpt lat="44.97268" lon="5.20456">
        <ele>899.21</ele>
        <time>2018-12-05T09:24:31Z</time>
      </trkpt>
      <trkpt lat="44.97263" lon="5.20472">
        <ele>901.29</ele>
        <time>2018-12-05T09:24:49Z</time>
      </trkpt>
      <trkpt lat="44.97257" lon="5.20485">
        <ele>904.68</ele>
        <time>2018-12-05T09:25:04Z</time>
      </trkpt>
      <trkpt lat="44.9725" lon="5.20499">
        <ele>907.4</ele>
        <time>2018-12-05T09:25:20Z</time>
      </trkpt>
      <trkpt lat="44.97246" lon="5.20515">
        <ele>910.5</ele>
        <time>2018-12-05T09:25:34Z</time>
      </trkpt>
      <trkpt lat="44.97241" lon="5.20525">
        <ele>913</ele>
        <time>2018-12-05T09:25:49Z</time>
      </trkpt>
      <trkpt lat="44.97238" lon="5.2053">
        <ele>915.79</ele>
        <time>2018-12-05T09:26:02Z</time>
      </trkpt>
      <trkpt lat="44.97233" lon="5.20536">
        <ele>918.57</ele>
        <time>2018-12-05T09:26:19Z</time>
      </trkpt>
      <trkpt lat="44.97233" lon="5.20546">
        <ele>921.67</ele>
        <time>2018-12-05T09:26:36Z</time>
      </trkpt>
      <trkpt lat="44.97231" lon="5.20553">
        <ele>924.48</ele>
        <time>2018-12-05T09:26:49Z</time>
      </trkpt>
      <trkpt lat="44.97226" lon="5.20556">
        <ele>926.99</ele>
        <time>2018-12-05T09:27:03Z</time>
      </trkpt>
      <trkpt lat="44.97224" lon="5.2057">
        <ele>929.96</ele>
        <time>2018-12-05T09:27:20Z</time>
      </trkpt>
      <trkpt lat="44.97222" lon="5.20575">
        <ele>933</ele>
        <time>2018-12-05T09:27:33Z</time>
      </trkpt>
      <trkpt lat="44.97221" lon="5.20585">
        <ele>935.53</ele>
        <time>2018-12-05T09:27:50Z</time>
      </trkpt>
      <trkpt lat="44.9722" lon="5.2059">
        <ele>938.59</ele>
        <time>2018-12-05T09:28:03Z</time>
      </trkpt>
      <trkpt lat="44.97216" lon="5.20599">
        <ele>941.43</ele>
        <time>2018-12-05T09:28:19Z</time>
      </trkpt>
      <trkpt lat="44.97216" lon="5.20606">
        <ele>944.74</ele>
        <time>2018-12-05T09:28:34Z</time>
      </trkpt>
      <trkpt lat="44.97212" lon="5.20609">
        <ele>947.68</ele>
        <time>2018-12-05T09:28:51Z</time>
      </trkpt>
      <trkpt lat="44.97209" lon="5.20618">
        <ele>950.51</ele>
        <time>2018-12-05T09:29:05Z</time>
      </trkpt>
      <trkpt lat="44.97204" lon="5.20624">
        <ele>953.64</ele>
        <time>2018-12-05T09:29:23Z</time>
      </trkpt>
      <trkpt lat="44.97206" lon="5.2063">
        <ele>956.2</ele>
        <time>2018-12-05T09:29:39Z</time>
      </trkpt>
      <trkpt lat="44.97206" lon="5.20641">
        <ele>959.48</ele>
        <time>2018-12-05T09:29:55Z</time>
      </trkpt>
      <trkpt lat="44.97209" lon="5.20647">
        <ele>962.55</ele>
        <time>2018-12-05T09:30:09Z</time>
      </trkpt>
      <trkpt lat="44.97213" lon="5.20658">
        <ele>965.66</ele>
        <time>2018-12-05T09:30:26Z</time>
      </trkpt>
      <trkpt lat="44.97215" lon="5.20668">
        <ele>968.89</ele>
        <time>2018-12-05T09:30:43Z</time>
      </trkpt>
      <trkpt lat="44.97217" lon="5.20678">
        <ele>971.82</ele>
        <time>2018-12-05T09:31:00Z</time>
      </trkpt>
      <trkpt lat="44.97217" lon="5.20686">
        <ele>974.85</ele>
        <time>2018-12-05T09:31:15Z</time>
      </trkpt>
      <trkpt lat="44.97217" lon="5.20694">
        <ele>977.91</ele>
        <time>2018-12-05T09:31:32Z</time>
      </trkpt>
      <trkpt lat="44.97216" lon="5.20704">
        <ele>981.14</ele>
        <time>2018-12-05T09:31:50Z</time>
      </trkpt>
      <trkpt lat="44.97213" lon="5.20715">
        <ele>984.28</ele>
        <time>2018-12-05T09:32:06Z</time>
      </trkpt>
      <trkpt lat="44.97213" lon="5.20725">
        <ele>987.05</ele>
        <time>2018-12-05T09:32:23Z</time>
      </trkpt>
      <trkpt lat="44.97216" lon="5.20736">
        <ele>990.08</ele>
        <time>2018-12-05T09:32:40Z</time>
      </trkpt>
      <trkpt lat="44.97216" lon="5.20748">
        <ele>993.73</ele>
        <time>2018-12-05T09:32:59Z</time>
      </trkpt>
      <trkpt lat="44.97217" lon="5.2076">
        <ele>996.7</ele>
        <time>2018-12-05T09:33:17Z</time>
      </trkpt>
      <trkpt lat="44.9722" lon="5.20767">
        <ele>998.96</ele>
        <time>2018-12-05T09:33:34Z</time>
      </trkpt>
      <trkpt lat="44.97218" lon="5.20779">
        <ele>1002.05</ele>
        <time>2018-12-05T09:33:52Z</time>
      </trkpt>
      <trkpt lat="44.97218" lon="5.20788">
        <ele>1005.41</ele>
        <time>2018-12-05T09:34:08Z</time>
      </trkpt>
      <trkpt lat="44.9722" lon="5.20792">
        <ele>1005.87</ele>
        <time>2018-12-05T09:34:13Z</time>
      </trkpt>
      <trkpt lat="44.97224" lon="5.20801">
        <ele>1008.49</ele>
        <time>2018-12-05T09:34:29Z</time>
      </trkpt>
      <trkpt lat="44.97223" lon="5.20808">
        <ele>1012.1</ele>
        <time>2018-12-05T09:34:47Z</time>
      </trkpt>
      <trkpt lat="44.97222" lon="5.20811">
        <ele>1012.67</ele>
        <time>2018-12-05T09:34:51Z</time>
      </trkpt>
      <trkpt lat="44.97221" lon="5.20812">
        <ele>1012.82</ele>
        <time>2018-12-05T09:34:53Z</time>
      </trkpt>
      <trkpt lat="44.97226" lon="5.20823">
        <ele>1015.39</ele>
        <time>2018-12-05T09:35:10Z</time>
      </trkpt>
      <trkpt lat="44.97225" lon="5.20835">
        <ele>1018.05</ele>
        <time>2018-12-05T09:35:28Z</time>
      </trkpt>
      <trkpt lat="44.97227" lon="5.20836">
        <ele>1018.12</ele>
        <time>2018-12-05T09:35:30Z</time>
      </trkpt>
      <trkpt lat="44.97229" lon="5.20844">
        <ele>1021.69</ele>
        <time>2018-12-05T09:35:47Z</time>
      </trkpt>
      <trkpt lat="44.97231" lon="5.20848">
        <ele>1022.14</ele>
        <time>2018-12-05T09:35:52Z</time>
      </trkpt>
      <trkpt lat="44.97232" lon="5.20852">
        <ele>1023.32</ele>
        <time>2018-12-05T09:35:59Z</time>
      </trkpt>
      <trkpt lat="44.9723" lon="5.20861">
        <ele>1026.13</ele>
        <time>2018-12-05T09:36:16Z</time>
      </trkpt>
      <trkpt lat="44.97235" lon="5.20869">
        <ele>1027.63</ele>
        <time>2018-12-05T09:36:31Z</time>
      </trkpt>
      <trkpt lat="44.97237" lon="5.20879">
        <ele>1030.39</ele>
        <time>2018-12-05T09:36:49Z</time>
      </trkpt>
      <trkpt lat="44.97237" lon="5.20887">
        <ele>1033.44</ele>
        <time>2018-12-05T09:37:05Z</time>
      </trkpt>
      <trkpt lat="44.97242" lon="5.20895">
        <ele>1035.63</ele>
        <time>2018-12-05T09:37:19Z</time>
      </trkpt>
      <trkpt lat="44.97245" lon="5.20905">
        <ele>1038.64</ele>
        <time>2018-12-05T09:37:38Z</time>
      </trkpt>
      <trkpt lat="44.97244" lon="5.20904">
        <ele>1041.36</ele>
        <time>2018-12-05T09:37:55Z</time>
      </trkpt>
      <trkpt lat="44.97241" lon="5.20905">
        <ele>1042.73</ele>
        <time>2018-12-05T09:38:05Z</time>
      </trkpt>
      <trkpt lat="44.97236" lon="5.20916">
        <ele>1045.48</ele>
        <time>2018-12-05T09:38:24Z</time>
      </trkpt>
      <trkpt lat="44.97241" lon="5.2092">
        <ele>1048.59</ele>
        <time>2018-12-05T09:38:42Z</time>
      </trkpt>
      <trkpt lat="44.97237" lon="5.20919">
        <ele>1050.48</ele>
        <time>2018-12-05T09:38:59Z</time>
      </trkpt>
      <trkpt lat="44.97232" lon="5.20924">
        <ele>1051.02</ele>
        <time>2018-12-05T09:39:19Z</time>
      </trkpt>
      <trkpt lat="44.97229" lon="5.2093">
        <ele>1054.45</ele>
        <time>2018-12-05T09:39:37Z</time>
      </trkpt>
      <trkpt lat="44.97228" lon="5.20936">
        <ele>1057.06</ele>
        <time>2018-12-05T09:39:55Z</time>
      </trkpt>
      <trkpt lat="44.97231" lon="5.20937">
        <ele>1055.86</ele>
        <time>2018-12-05T09:39:57Z</time>
      </trkpt>
      <trkpt lat="44.97233" lon="5.20934">
        <ele>1055.73</ele>
        <time>2018-12-05T09:40:24Z</time>
      </trkpt>
      <trkpt lat="44.97235" lon="5.20933">
        <ele>1056.06</ele>
        <time>2018-12-05T09:40:43Z</time>
      </trkpt>
      <trkpt lat="44.97235" lon="5.20939">
        <ele>1058.41</ele>
        <time>2018-12-05T09:41:03Z</time>
      </trkpt>
      <trkpt lat="44.97235" lon="5.2094">
        <ele>1058.5</ele>
        <time>2018-12-05T09:41:04Z</time>
      </trkpt>
      <trkpt lat="44.9724" lon="5.20948">
        <ele>1061.88</ele>
        <time>2018-12-05T09:41:23Z</time>
      </trkpt>
      <trkpt lat="44.97243" lon="5.20959">
        <ele>1065.19</ele>
        <time>2018-12-05T09:41:44Z</time>
      </trkpt>
      <trkpt lat="44.97243" lon="5.2097">
        <ele>1067.68</ele>
        <time>2018-12-05T09:42:03Z</time>
      </trkpt>
      <trkpt lat="44.9724" lon="5.20975">
        <ele>1070.9</ele>
        <time>2018-12-05T09:42:18Z</time>
      </trkpt>
      <trkpt lat="44.9724" lon="5.20977">
        <ele>1071.56</ele>
        <time>2018-12-05T09:42:22Z</time>
      </trkpt>
      <trkpt lat="44.97235" lon="5.20987">
        <ele>1074.31</ele>
        <time>2018-12-05T09:42:40Z</time>
      </trkpt>
      <trkpt lat="44.97234" lon="5.20993">
        <ele>1075.32</ele>
        <time>2018-12-05T09:42:55Z</time>
      </trkpt>
      <trkpt lat="44.97234" lon="5.20998">
        <ele>1078.01</ele>
        <time>2018-12-05T09:43:10Z</time>
      </trkpt>
      <trkpt lat="44.97239" lon="5.21008">
        <ele>1079.13</ele>
        <time>2018-12-05T09:43:26Z</time>
      </trkpt>
      <trkpt lat="44.97243" lon="5.21018">
        <ele>1081.55</ele>
        <time>2018-12-05T09:43:42Z</time>
      </trkpt>
      <trkpt lat="44.97245" lon="5.21027">
        <ele>1083.93</ele>
        <time>2018-12-05T09:44:00Z</time>
      </trkpt>
      <trkpt lat="44.97246" lon="5.21033">
        <ele>1086.94</ele>
        <time>2018-12-05T09:44:14Z</time>
      </trkpt>
      <trkpt lat="44.97252" lon="5.21039">
        <ele>1089.72</ele>
        <time>2018-12-05T09:44:32Z</time>
      </trkpt>
      <trkpt lat="44.97251" lon="5.21042">
        <ele>1092.56</ele>
        <time>2018-12-05T09:44:50Z</time>
      </trkpt>
      <trkpt lat="44.97249" lon="5.21046">
        <ele>1092.55</ele>
        <time>2018-12-05T09:45:14Z</time>
      </trkpt>
      <trkpt lat="44.97253" lon="5.21055">
        <ele>1094.4</ele>
        <time>2018-12-05T09:45:31Z</time>
      </trkpt>
      <trkpt lat="44.97253" lon="5.21059">
        <ele>1095.6</ele>
        <time>2018-12-05T09:45:49Z</time>
      </trkpt>
      <trkpt lat="44.97255" lon="5.21062">
        <ele>1098.58</ele>
        <time>2018-12-05T09:46:07Z</time>
      </trkpt>
      <trkpt lat="44.97256" lon="5.21071">
        <ele>1100.42</ele>
        <time>2018-12-05T09:46:24Z</time>
      </trkpt>
      <trkpt lat="44.97252" lon="5.21078">
        <ele>1103.4</ele>
        <time>2018-12-05T09:46:43Z</time>
      </trkpt>
      <trkpt lat="44.9725" lon="5.21079">
        <ele>1103.91</ele>
        <time>2018-12-05T09:46:49Z</time>
      </trkpt>
      <trkpt lat="44.97248" lon="5.21079">
        <ele>1104.9</ele>
        <time>2018-12-05T09:46:57Z</time>
      </trkpt>
      <trkpt lat="44.97243" lon="5.21081">
        <ele>1104.05</ele>
        <time>2018-12-05T09:47:23Z</time>
      </trkpt>
      <trkpt lat="44.97239" lon="5.21087">
        <ele>1106.64</ele>
        <time>2018-12-05T09:47:41Z</time>
      </trkpt>
      <trkpt lat="44.97244" lon="5.21087">
        <ele>1107.76</ele>
        <time>2018-12-05T09:47:57Z</time>
      </trkpt>
      <trkpt lat="44.97241" lon="5.21075">
        <ele>1109.16</ele>
        <time>2018-12-05T09:48:18Z</time>
      </trkpt>
      <trkpt lat="44.97238" lon="5.21083">
        <ele>1110.77</ele>
        <time>2018-12-05T09:48:35Z</time>
      </trkpt>
      <trkpt lat="44.97234" lon="5.21085">
        <ele>1111.47</ele>
        <time>2018-12-05T09:48:54Z</time>
      </trkpt>
      <trkpt lat="44.97234" lon="5.21083">
        <ele>1111.13</ele>
        <time>2018-12-05T09:49:14Z</time>
      </trkpt>
      <trkpt lat="44.97233" lon="5.21087">
        <ele>1110.79</ele>
        <time>2018-12-05T09:49:34Z</time>
      </trkpt>
      <trkpt lat="44.97233" lon="5.21086">
        <ele>1110.3</ele>
        <time>2018-12-05T09:49:54Z</time>
      </trkpt>
      <trkpt lat="44.97231" lon="5.21085">
        <ele>1111.94</ele>
        <time>2018-12-05T09:50:13Z</time>
      </trkpt>
      <trkpt lat="44.97231" lon="5.21084">
        <ele>1112</ele>
        <time>2018-12-05T09:50:33Z</time>
      </trkpt>
      <trkpt lat="44.97229" lon="5.21078">
        <ele>1111.64</ele>
        <time>2018-12-05T09:50:51Z</time>
      </trkpt>
      <trkpt lat="44.97235" lon="5.21079">
        <ele>1111.88</ele>
        <time>2018-12-05T09:50:56Z</time>
      </trkpt>
      <trkpt lat="44.97238" lon="5.21078">
        <ele>1111.45</ele>
        <time>2018-12-05T09:51:23Z</time>
      </trkpt>
      <trkpt lat="44.97237" lon="5.21078">
        <ele>1111.28</ele>
        <time>2018-12-05T09:51:43Z</time>
      </trkpt>
      <trkpt lat="44.97234" lon="5.21084">
        <ele>1112.2</ele>
        <time>2018-12-05T09:52:04Z</time>
      </trkpt>
      <trkpt lat="44.97237" lon="5.21088">
        <ele>1114.47</ele>
        <time>2018-12-05T09:52:24Z</time>
      </trkpt>
      <trkpt lat="44.97237" lon="5.21089">
        <ele>1113.71</ele>
        <time>2018-12-05T09:52:45Z</time>
      </trkpt>
      <trkpt lat="44.97233" lon="5.2109">
        <ele>1114.06</ele>
        <time>2018-12-05T09:53:06Z</time>
      </trkpt>
      <trkpt lat="44.97232" lon="5.21091">
        <ele>1114.05</ele>
        <time>2018-12-05T09:53:26Z</time>
      </trkpt>
      <trkpt lat="44.97229" lon="5.21089">
        <ele>1113.93</ele>
        <time>2018-12-05T09:53:45Z</time>
      </trkpt>
      <trkpt lat="44.97231" lon="5.21091">
        <ele>1113.53</ele>
        <time>2018-12-05T09:54:06Z</time>
      </trkpt>
      <trkpt lat="44.97232" lon="5.21088">
        <ele>1113.06</ele>
        <time>2018-12-05T09:54:21Z</time>
      </trkpt>
      <trkpt lat="44.9723" lon="5.21086">
        <ele>1112.76</ele>
        <time>2018-12-05T09:54:44Z</time>
      </trkpt>
      <trkpt lat="44.97232" lon="5.21086">
        <ele>1112.8</ele>
        <time>2018-12-05T09:55:12Z</time>
      </trkpt>
      <trkpt lat="44.97232" lon="5.21085">
        <ele>1112.64</ele>
        <time>2018-12-05T09:55:32Z</time>
      </trkpt>
      <trkpt lat="44.97234" lon="5.2109">
        <ele>1113.25</ele>
        <time>2018-12-05T09:55:49Z</time>
      </trkpt>
      <trkpt lat="44.97233" lon="5.2109">
        <ele>1113.46</ele>
        <time>2018-12-05T09:55:53Z</time>
      </trkpt>
      <trkpt lat="44.97234" lon="5.21094">
        <ele>1114.22</ele>
        <time>2018-12-05T09:56:12Z</time>
      </trkpt>
      <trkpt lat="44.97233" lon="5.21096">
        <ele>1115.67</ele>
        <time>2018-12-05T09:56:34Z</time>
      </trkpt>
      <trkpt lat="44.97236" lon="5.21095">
        <ele>1118.08</ele>
        <time>2018-12-05T09:56:52Z</time>
      </trkpt>
      <trkpt lat="44.97237" lon="5.21095">
        <ele>1119.06</ele>
        <time>2018-12-05T09:57:13Z</time>
      </trkpt>
      <trkpt lat="44.97238" lon="5.21095">
        <ele>1119.24</ele>
        <time>2018-12-05T09:57:30Z</time>
      </trkpt>
      <trkpt lat="44.97243" lon="5.21094">
        <ele>1120.04</ele>
        <time>2018-12-05T09:57:47Z</time>
      </trkpt>
      <trkpt lat="44.97259" lon="5.21104">
        <ele>1122.58</ele>
        <time>2018-12-05T09:58:03Z</time>
      </trkpt>
      <trkpt lat="44.97258" lon="5.21105">
        <ele>1122.39</ele>
        <time>2018-12-05T09:58:04Z</time>
      </trkpt>
      <trkpt lat="44.97266" lon="5.21117">
        <ele>1125.05</ele>
        <time>2018-12-05T09:58:22Z</time>
      </trkpt>
      <trkpt lat="44.97266" lon="5.2112">
        <ele>1126.77</ele>
        <time>2018-12-05T09:58:37Z</time>
      </trkpt>
      <trkpt lat="44.97272" lon="5.21124">
        <ele>1128.94</ele>
        <time>2018-12-05T09:58:53Z</time>
      </trkpt>
      <trkpt lat="44.97283" lon="5.21122">
        <ele>1128.51</ele>
        <time>2018-12-05T09:58:59Z</time>
      </trkpt>
      <trkpt lat="44.97294" lon="5.21119">
        <ele>1131.81</ele>
        <time>2018-12-05T09:59:18Z</time>
      </trkpt>
      <trkpt lat="44.97297" lon="5.21111">
        <ele>1133.92</ele>
        <time>2018-12-05T09:59:32Z</time>
      </trkpt>
      <trkpt lat="44.97303" lon="5.21101">
        <ele>1137.05</ele>
        <time>2018-12-05T09:59:48Z</time>
      </trkpt>
      <trkpt lat="44.97305" lon="5.21097">
        <ele>1138.75</ele>
        <time>2018-12-05T10:00:01Z</time>
      </trkpt>
      <trkpt lat="44.97309" lon="5.21091">
        <ele>1141.48</ele>
        <time>2018-12-05T10:00:15Z</time>
      </trkpt>
      <trkpt lat="44.9731" lon="5.2109">
        <ele>1141.35</ele>
        <time>2018-12-05T10:00:30Z</time>
      </trkpt>
      <trkpt lat="44.97311" lon="5.2109">
        <ele>1141.41</ele>
        <time>2018-12-05T10:00:48Z</time>
      </trkpt>
      <trkpt lat="44.97312" lon="5.21085">
        <ele>1143.9</ele>
        <time>2018-12-05T10:01:00Z</time>
      </trkpt>
      <trkpt lat="44.97314" lon="5.21086">
        <ele>1144.85</ele>
        <time>2018-12-05T10:01:12Z</time>
      </trkpt>
      <trkpt lat="44.97315" lon="5.21086">
        <ele>1145.39</ele>
        <time>2018-12-05T10:01:35Z</time>
      </trkpt>
      <trkpt lat="44.97317" lon="5.21086">
        <ele>1145.22</ele>
        <time>2018-12-05T10:01:46Z</time>
      </trkpt>
      <trkpt lat="44.97318" lon="5.21087">
        <ele>1145.41</ele>
        <time>2018-12-05T10:02:06Z</time>
      </trkpt>
      <trkpt lat="44.97317" lon="5.21088">
        <ele>1145.68</ele>
        <time>2018-12-05T10:02:31Z</time>
      </trkpt>
      <trkpt lat="44.97317" lon="5.21089">
        <ele>1145.83</ele>
        <time>2018-12-05T10:02:45Z</time>
      </trkpt>
      <trkpt lat="44.97318" lon="5.21091">
        <ele>1146.33</ele>
        <time>2018-12-05T10:03:05Z</time>
      </trkpt>
      <trkpt lat="44.9732" lon="5.21091">
        <ele>1146.38</ele>
        <time>2018-12-05T10:03:28Z</time>
      </trkpt>
      <trkpt lat="44.97319" lon="5.21089">
        <ele>1147.02</ele>
        <time>2018-12-05T10:03:47Z</time>
      </trkpt>
      <trkpt lat="44.97319" lon="5.21089">
        <ele>1147.3</ele>
        <time>2018-12-05T10:04:15Z</time>
      </trkpt>
      <trkpt lat="44.97319" lon="5.21087">
        <ele>1147.74</ele>
        <time>2018-12-05T10:04:37Z</time>
      </trkpt>
      <trkpt lat="44.97319" lon="5.21087">
        <ele>1148.39</ele>
        <time>2018-12-05T10:05:04Z</time>
      </trkpt>
      <trkpt lat="44.9732" lon="5.21087">
        <ele>1148.18</ele>
        <time>2018-12-05T10:05:25Z</time>
      </trkpt>
      <trkpt lat="44.97319" lon="5.21087">
        <ele>1147.96</ele>
        <time>2018-12-05T10:05:44Z</time>
      </trkpt>
      <trkpt lat="44.97318" lon="5.21089">
        <ele>1148.63</ele>
        <time>2018-12-05T10:06:19Z</time>
      </trkpt>
      <trkpt lat="44.97318" lon="5.21088">
        <ele>1149.12</ele>
        <time>2018-12-05T10:06:48Z</time>
      </trkpt>
      <trkpt lat="44.97318" lon="5.21089">
        <ele>1150.58</ele>
        <time>2018-12-05T10:07:14Z</time>
      </trkpt>
      <trkpt lat="44.97318" lon="5.21088">
        <ele>1150.81</ele>
        <time>2018-12-05T10:07:34Z</time>
      </trkpt>
      <trkpt lat="44.97319" lon="5.21088">
        <ele>1151.21</ele>
        <time>2018-12-05T10:07:55Z</time>
      </trkpt>
      <trkpt lat="44.97318" lon="5.21089">
        <ele>1151.32</ele>
        <time>2018-12-05T10:08:16Z</time>
      </trkpt>
      <trkpt lat="44.97317" lon="5.21089">
        <ele>1151.53</ele>
        <time>2018-12-05T10:08:35Z</time>
      </trkpt>
      <trkpt lat="44.97319" lon="5.2109">
        <ele>1151.81</ele>
        <time>2018-12-05T10:08:59Z</time>
      </trkpt>
      <trkpt lat="44.97318" lon="5.2109">
        <ele>1152.94</ele>
        <time>2018-12-05T10:09:15Z</time>
      </trkpt>
      <trkpt lat="44.9732" lon="5.21092">
        <ele>1152.35</ele>
        <time>2018-12-05T10:09:38Z</time>
      </trkpt>
      <trkpt lat="44.97321" lon="5.21095">
        <ele>1151.16</ele>
        <time>2018-12-05T10:09:53Z</time>
      </trkpt>
      <trkpt lat="44.97321" lon="5.21095">
        <ele>1151.7</ele>
        <time>2018-12-05T10:09:58Z</time>
      </trkpt>
      <trkpt lat="44.97321" lon="5.21096">
        <ele>1150.67</ele>
        <time>2018-12-05T10:10:02Z</time>
      </trkpt>
      <trkpt lat="44.97321" lon="5.21096">
        <ele>1151.57</ele>
        <time>2018-12-05T10:10:21Z</time>
      </trkpt>
      <trkpt lat="44.9732" lon="5.21096">
        <ele>1151.63</ele>
        <time>2018-12-05T10:10:43Z</time>
      </trkpt>
      <trkpt lat="44.97323" lon="5.21096">
        <ele>1151.79</ele>
        <time>2018-12-05T10:11:02Z</time>
      </trkpt>
      <trkpt lat="44.97323" lon="5.21099">
        <ele>1151.69</ele>
        <time>2018-12-05T10:11:20Z</time>
      </trkpt>
      <trkpt lat="44.97325" lon="5.21103">
        <ele>1149.9</ele>
        <time>2018-12-05T10:11:36Z</time>
      </trkpt>
      <trkpt lat="44.97327" lon="5.21107">
        <ele>1148.71</ele>
        <time>2018-12-05T10:11:50Z</time>
      </trkpt>
      <trkpt lat="44.97328" lon="5.21112">
        <ele>1147.15</ele>
        <time>2018-12-05T10:12:06Z</time>
      </trkpt>
      <trkpt lat="44.97329" lon="5.21117">
        <ele>1144.88</ele>
        <time>2018-12-05T10:12:25Z</time>
      </trkpt>
      <trkpt lat="44.97329" lon="5.21118">
        <ele>1144.91</ele>
        <time>2018-12-05T10:12:46Z</time>
      </trkpt>
      <trkpt lat="44.97329" lon="5.21118">
        <ele>1145.1</ele>
        <time>2018-12-05T10:13:06Z</time>
      </trkpt>
      <trkpt lat="44.97329" lon="5.21118">
        <ele>1145.24</ele>
        <time>2018-12-05T10:13:26Z</time>
      </trkpt>
      <trkpt lat="44.97333" lon="5.21122">
        <ele>1143.63</ele>
        <time>2018-12-05T10:13:42Z</time>
      </trkpt>
      <trkpt lat="44.97336" lon="5.21127">
        <ele>1140.87</ele>
        <time>2018-12-05T10:13:58Z</time>
      </trkpt>
      <trkpt lat="44.97341" lon="5.21131">
        <ele>1137.16</ele>
        <time>2018-12-05T10:14:13Z</time>
      </trkpt>
      <trkpt lat="44.97344" lon="5.21139">
        <ele>1134.04</ele>
        <time>2018-12-05T10:14:29Z</time>
      </trkpt>
      <trkpt lat="44.97347" lon="5.21145">
        <ele>1132.19</ele>
        <time>2018-12-05T10:14:45Z</time>
      </trkpt>
      <trkpt lat="44.97351" lon="5.21147">
        <ele>1130.2</ele>
        <time>2018-12-05T10:15:00Z</time>
      </trkpt>
      <trkpt lat="44.97356" lon="5.21152">
        <ele>1127.69</ele>
        <time>2018-12-05T10:15:15Z</time>
      </trkpt>
      <trkpt lat="44.97359" lon="5.21156">
        <ele>1125.73</ele>
        <time>2018-12-05T10:15:30Z</time>
      </trkpt>
      <trkpt lat="44.97358" lon="5.21163">
        <ele>1122.6</ele>
        <time>2018-12-05T10:15:43Z</time>
      </trkpt>
      <trkpt lat="44.97362" lon="5.2117">
        <ele>1119.39</ele>
        <time>2018-12-05T10:15:56Z</time>
      </trkpt>
      <trkpt lat="44.97369" lon="5.21176">
        <ele>1117.59</ele>
        <time>2018-12-05T10:16:12Z</time>
      </trkpt>
      <trkpt lat="44.97371" lon="5.21188">
        <ele>1114.48</ele>
        <time>2018-12-05T10:16:28Z</time>
      </trkpt>
      <trkpt lat="44.97375" lon="5.21201">
        <ele>1111.39</ele>
        <time>2018-12-05T10:16:40Z</time>
      </trkpt>
      <trkpt lat="44.97379" lon="5.21214">
        <ele>1110.27</ele>
        <time>2018-12-05T10:16:55Z</time>
      </trkpt>
      <trkpt lat="44.97388" lon="5.21223">
        <ele>1112.03</ele>
        <time>2018-12-05T10:17:10Z</time>
      </trkpt>
      <trkpt lat="44.97395" lon="5.2123">
        <ele>1114.41</ele>
        <time>2018-12-05T10:17:25Z</time>
      </trkpt>
      <trkpt lat="44.97402" lon="5.2123">
        <ele>1115.55</ele>
        <time>2018-12-05T10:17:31Z</time>
      </trkpt>
      <trkpt lat="44.97415" lon="5.21235">
        <ele>1117.73</ele>
        <time>2018-12-05T10:17:44Z</time>
      </trkpt>
      <trkpt lat="44.97424" lon="5.21243">
        <ele>1119.52</ele>
        <time>2018-12-05T10:17:56Z</time>
      </trkpt>
      <trkpt lat="44.97433" lon="5.21248">
        <ele>1121.57</ele>
        <time>2018-12-05T10:18:09Z</time>
      </trkpt>
      <trkpt lat="44.97435" lon="5.2125">
        <ele>1122.17</ele>
        <time>2018-12-05T10:18:34Z</time>
      </trkpt>
      <trkpt lat="44.97437" lon="5.21253">
        <ele>1122.52</ele>
        <time>2018-12-05T10:18:54Z</time>
      </trkpt>
      <trkpt lat="44.9744" lon="5.21255">
        <ele>1123.43</ele>
        <time>2018-12-05T10:19:18Z</time>
      </trkpt>
      <trkpt lat="44.97449" lon="5.21261">
        <ele>1126.27</ele>
        <time>2018-12-05T10:19:34Z</time>
      </trkpt>
      <trkpt lat="44.97456" lon="5.21268">
        <ele>1128.44</ele>
        <time>2018-12-05T10:19:49Z</time>
      </trkpt>
      <trkpt lat="44.9746" lon="5.21279">
        <ele>1128.65</ele>
        <time>2018-12-05T10:20:03Z</time>
      </trkpt>
      <trkpt lat="44.97465" lon="5.21288">
        <ele>1127.45</ele>
        <time>2018-12-05T10:20:14Z</time>
      </trkpt>
      <trkpt lat="44.97465" lon="5.21294">
        <ele>1127.3</ele>
        <time>2018-12-05T10:20:23Z</time>
      </trkpt>
      <trkpt lat="44.97471" lon="5.21301">
        <ele>1126.8</ele>
        <time>2018-12-05T10:20:35Z</time>
      </trkpt>
      <trkpt lat="44.97477" lon="5.21311">
        <ele>1127.51</ele>
        <time>2018-12-05T10:20:48Z</time>
      </trkpt>
      <trkpt lat="44.97485" lon="5.21322">
        <ele>1127.92</ele>
        <time>2018-12-05T10:21:04Z</time>
      </trkpt>
      <trkpt lat="44.97493" lon="5.21332">
        <ele>1127.47</ele>
        <time>2018-12-05T10:21:19Z</time>
      </trkpt>
      <trkpt lat="44.97502" lon="5.21343">
        <ele>1125.88</ele>
        <time>2018-12-05T10:21:35Z</time>
      </trkpt>
      <trkpt lat="44.97511" lon="5.21353">
        <ele>1126.44</ele>
        <time>2018-12-05T10:21:50Z</time>
      </trkpt>
      <trkpt lat="44.9752" lon="5.21364">
        <ele>1126.66</ele>
        <time>2018-12-05T10:22:05Z</time>
      </trkpt>
      <trkpt lat="44.97527" lon="5.21381">
        <ele>1125.63</ele>
        <time>2018-12-05T10:22:20Z</time>
      </trkpt>
      <trkpt lat="44.97528" lon="5.21383">
        <ele>1125.51</ele>
        <time>2018-12-05T10:22:22Z</time>
      </trkpt>
      <trkpt lat="44.97538" lon="5.21394">
        <ele>1125.58</ele>
        <time>2018-12-05T10:22:37Z</time>
      </trkpt>
      <trkpt lat="44.97548" lon="5.21405">
        <ele>1127.31</ele>
        <time>2018-12-05T10:22:54Z</time>
      </trkpt>
      <trkpt lat="44.97559" lon="5.2141">
        <ele>1128.85</ele>
        <time>2018-12-05T10:23:10Z</time>
      </trkpt>
      <trkpt lat="44.97567" lon="5.21419">
        <ele>1129.52</ele>
        <time>2018-12-05T10:23:25Z</time>
      </trkpt>
      <trkpt lat="44.97571" lon="5.21428">
        <ele>1128.7</ele>
        <time>2018-12-05T10:23:35Z</time>
      </trkpt>
      <trkpt lat="44.9758" lon="5.21435">
        <ele>1131.89</ele>
        <time>2018-12-05T10:23:54Z</time>
      </trkpt>
      <trkpt lat="44.97592" lon="5.21447">
        <ele>1132.5</ele>
        <time>2018-12-05T10:24:08Z</time>
      </trkpt>
      <trkpt lat="44.97598" lon="5.21462">
        <ele>1131.85</ele>
        <time>2018-12-05T10:24:22Z</time>
      </trkpt>
      <trkpt lat="44.97605" lon="5.21476">
        <ele>1129.94</ele>
        <time>2018-12-05T10:24:37Z</time>
      </trkpt>
      <trkpt lat="44.97611" lon="5.21489">
        <ele>1129.4</ele>
        <time>2018-12-05T10:24:52Z</time>
      </trkpt>
      <trkpt lat="44.97617" lon="5.21497">
        <ele>1129.33</ele>
        <time>2018-12-05T10:25:07Z</time>
      </trkpt>
      <trkpt lat="44.97623" lon="5.21509">
        <ele>1128.52</ele>
        <time>2018-12-05T10:25:20Z</time>
      </trkpt>
      <trkpt lat="44.9763" lon="5.21512">
        <ele>1130.69</ele>
        <time>2018-12-05T10:25:32Z</time>
      </trkpt>
      <trkpt lat="44.97635" lon="5.21515">
        <ele>1131.63</ele>
        <time>2018-12-05T10:25:46Z</time>
      </trkpt>
      <trkpt lat="44.97641" lon="5.21521">
        <ele>1132.54</ele>
        <time>2018-12-05T10:25:58Z</time>
      </trkpt>
      <trkpt lat="44.97643" lon="5.21525">
        <ele>1131.68</ele>
        <time>2018-12-05T10:26:02Z</time>
      </trkpt>
      <trkpt lat="44.9765" lon="5.21532">
        <ele>1131.55</ele>
        <time>2018-12-05T10:26:13Z</time>
      </trkpt>
      <trkpt lat="44.97658" lon="5.21541">
        <ele>1131.47</ele>
        <time>2018-12-05T10:26:27Z</time>
      </trkpt>
      <trkpt lat="44.97662" lon="5.21551">
        <ele>1129.81</ele>
        <time>2018-12-05T10:26:41Z</time>
      </trkpt>
      <trkpt lat="44.97667" lon="5.21561">
        <ele>1128.48</ele>
        <time>2018-12-05T10:26:57Z</time>
      </trkpt>
      <trkpt lat="44.97671" lon="5.21569">
        <ele>1127.32</ele>
        <time>2018-12-05T10:27:10Z</time>
      </trkpt>
      <trkpt lat="44.97674" lon="5.21577">
        <ele>1126.49</ele>
        <time>2018-12-05T10:27:20Z</time>
      </trkpt>
      <trkpt lat="44.97679" lon="5.21589">
        <ele>1124.85</ele>
        <time>2018-12-05T10:27:32Z</time>
      </trkpt>
      <trkpt lat="44.97681" lon="5.21597">
        <ele>1123.22</ele>
        <time>2018-12-05T10:27:45Z</time>
      </trkpt>
      <trkpt lat="44.97683" lon="5.216">
        <ele>1122.61</ele>
        <time>2018-12-05T10:27:54Z</time>
      </trkpt>
      <trkpt lat="44.97692" lon="5.21603">
        <ele>1124.67</ele>
        <time>2018-12-05T10:28:08Z</time>
      </trkpt>
      <trkpt lat="44.97697" lon="5.21601">
        <ele>1127.8</ele>
        <time>2018-12-05T10:28:22Z</time>
      </trkpt>
      <trkpt lat="44.977" lon="5.21594">
        <ele>1129.92</ele>
        <time>2018-12-05T10:28:38Z</time>
      </trkpt>
      <trkpt lat="44.97704" lon="5.21588">
        <ele>1133.07</ele>
        <time>2018-12-05T10:28:55Z</time>
      </trkpt>
      <trkpt lat="44.97704" lon="5.21587">
        <ele>1133.3</ele>
        <time>2018-12-05T10:29:08Z</time>
      </trkpt>
      <trkpt lat="44.9771" lon="5.2159">
        <ele>1135.06</ele>
        <time>2018-12-05T10:29:23Z</time>
      </trkpt>
      <trkpt lat="44.97715" lon="5.21597">
        <ele>1134.61</ele>
        <time>2018-12-05T10:29:41Z</time>
      </trkpt>
      <trkpt lat="44.97723" lon="5.21607">
        <ele>1135.25</ele>
        <time>2018-12-05T10:29:56Z</time>
      </trkpt>
      <trkpt lat="44.9773" lon="5.2161">
        <ele>1137.18</ele>
        <time>2018-12-05T10:30:12Z</time>
      </trkpt>
      <trkpt lat="44.97736" lon="5.21617">
        <ele>1138.18</ele>
        <time>2018-12-05T10:30:28Z</time>
      </trkpt>
      <trkpt lat="44.97742" lon="5.21627">
        <ele>1136.81</ele>
        <time>2018-12-05T10:30:43Z</time>
      </trkpt>
      <trkpt lat="44.97748" lon="5.21634">
        <ele>1136.9</ele>
        <time>2018-12-05T10:30:56Z</time>
      </trkpt>
      <trkpt lat="44.97753" lon="5.21641">
        <ele>1137.33</ele>
        <time>2018-12-05T10:31:11Z</time>
      </trkpt>
      <trkpt lat="44.97762" lon="5.21652">
        <ele>1137.04</ele>
        <time>2018-12-05T10:31:25Z</time>
      </trkpt>
      <trkpt lat="44.97771" lon="5.2167">
        <ele>1134.09</ele>
        <time>2018-12-05T10:31:43Z</time>
      </trkpt>
      <trkpt lat="44.97777" lon="5.21678">
        <ele>1134.75</ele>
        <time>2018-12-05T10:31:57Z</time>
      </trkpt>
      <trkpt lat="44.97783" lon="5.21687">
        <ele>1133.17</ele>
        <time>2018-12-05T10:32:12Z</time>
      </trkpt>
      <trkpt lat="44.97786" lon="5.21697">
        <ele>1132.01</ele>
        <time>2018-12-05T10:32:28Z</time>
      </trkpt>
      <trkpt lat="44.97788" lon="5.21701">
        <ele>1131.79</ele>
        <time>2018-12-05T10:32:44Z</time>
      </trkpt>
      <trkpt lat="44.97794" lon="5.21707">
        <ele>1132.34</ele>
        <time>2018-12-05T10:33:01Z</time>
      </trkpt>
      <trkpt lat="44.97801" lon="5.21715">
        <ele>1132.02</ele>
        <time>2018-12-05T10:33:18Z</time>
      </trkpt>
      <trkpt lat="44.97806" lon="5.21719">
        <ele>1131.81</ele>
        <time>2018-12-05T10:33:37Z</time>
      </trkpt>
      <trkpt lat="44.97814" lon="5.21732">
        <ele>1132.69</ele>
        <time>2018-12-05T10:33:54Z</time>
      </trkpt>
      <trkpt lat="44.97823" lon="5.2174">
        <ele>1133.46</ele>
        <time>2018-12-05T10:34:10Z</time>
      </trkpt>
      <trkpt lat="44.97831" lon="5.21746">
        <ele>1134.72</ele>
        <time>2018-12-05T10:34:27Z</time>
      </trkpt>
      <trkpt lat="44.97834" lon="5.2175">
        <ele>1134.32</ele>
        <time>2018-12-05T10:34:40Z</time>
      </trkpt>
      <trkpt lat="44.97838" lon="5.21755">
        <ele>1134.64</ele>
        <time>2018-12-05T10:34:55Z</time>
      </trkpt>
      <trkpt lat="44.97844" lon="5.21756">
        <ele>1137.71</ele>
        <time>2018-12-05T10:35:11Z</time>
      </trkpt>
      <trkpt lat="44.97852" lon="5.21762">
        <ele>1139.09</ele>
        <time>2018-12-05T10:35:27Z</time>
      </trkpt>
      <trkpt lat="44.97858" lon="5.21764">
        <ele>1140.55</ele>
        <time>2018-12-05T10:35:43Z</time>
      </trkpt>
      <trkpt lat="44.97865" lon="5.21766">
        <ele>1143.56</ele>
        <time>2018-12-05T10:35:58Z</time>
      </trkpt>
      <trkpt lat="44.9787" lon="5.21771">
        <ele>1144.89</ele>
        <time>2018-12-05T10:36:14Z</time>
      </trkpt>
      <trkpt lat="44.97879" lon="5.21777">
        <ele>1146.72</ele>
        <time>2018-12-05T10:36:31Z</time>
      </trkpt>
      <trkpt lat="44.97884" lon="5.2178">
        <ele>1147.21</ele>
        <time>2018-12-05T10:36:49Z</time>
      </trkpt>
      <trkpt lat="44.9789" lon="5.21787">
        <ele>1147.89</ele>
        <time>2018-12-05T10:37:05Z</time>
      </trkpt>
      <trkpt lat="44.97892" lon="5.21793">
        <ele>1148.06</ele>
        <time>2018-12-05T10:37:17Z</time>
      </trkpt>
      <trkpt lat="44.97899" lon="5.21805">
        <ele>1146.87</ele>
        <time>2018-12-05T10:37:33Z</time>
      </trkpt>
      <trkpt lat="44.97905" lon="5.21816">
        <ele>1145.11</ele>
        <time>2018-12-05T10:37:48Z</time>
      </trkpt>
      <trkpt lat="44.97909" lon="5.21831">
        <ele>1142.47</ele>
        <time>2018-12-05T10:38:03Z</time>
      </trkpt>
      <trkpt lat="44.97913" lon="5.21844">
        <ele>1141.54</ele>
        <time>2018-12-05T10:38:17Z</time>
      </trkpt>
      <trkpt lat="44.97921" lon="5.21854">
        <ele>1141.55</ele>
        <time>2018-12-05T10:38:33Z</time>
      </trkpt>
      <trkpt lat="44.97927" lon="5.21862">
        <ele>1140.43</ele>
        <time>2018-12-05T10:38:48Z</time>
      </trkpt>
      <trkpt lat="44.97931" lon="5.21867">
        <ele>1141.19</ele>
        <time>2018-12-05T10:39:04Z</time>
      </trkpt>
      <trkpt lat="44.97939" lon="5.21868">
        <ele>1142.31</ele>
        <time>2018-12-05T10:39:20Z</time>
      </trkpt>
      <trkpt lat="44.9795" lon="5.2187">
        <ele>1145.13</ele>
        <time>2018-12-05T10:39:38Z</time>
      </trkpt>
      <trkpt lat="44.97956" lon="5.21876">
        <ele>1147.22</ele>
        <time>2018-12-05T10:39:56Z</time>
      </trkpt>
      <trkpt lat="44.97959" lon="5.21882">
        <ele>1148.45</ele>
        <time>2018-12-05T10:40:10Z</time>
      </trkpt>
      <trkpt lat="44.97961" lon="5.21884">
        <ele>1148.55</ele>
        <time>2018-12-05T10:40:22Z</time>
      </trkpt>
      <trkpt lat="44.97966" lon="5.21885">
        <ele>1150.5</ele>
        <time>2018-12-05T10:40:42Z</time>
      </trkpt>
      <trkpt lat="44.97973" lon="5.21886">
        <ele>1152.89</ele>
        <time>2018-12-05T10:40:56Z</time>
      </trkpt>
      <trkpt lat="44.9798" lon="5.21888">
        <ele>1155.69</ele>
        <time>2018-12-05T10:41:11Z</time>
      </trkpt>
      <trkpt lat="44.97986" lon="5.21895">
        <ele>1157.17</ele>
        <time>2018-12-05T10:41:26Z</time>
      </trkpt>
      <trkpt lat="44.97992" lon="5.21904">
        <ele>1156.6</ele>
        <time>2018-12-05T10:41:43Z</time>
      </trkpt>
      <trkpt lat="44.97996" lon="5.21913">
        <ele>1155.02</ele>
        <time>2018-12-05T10:41:53Z</time>
      </trkpt>
      <trkpt lat="44.98004" lon="5.2192">
        <ele>1155.33</ele>
        <time>2018-12-05T10:42:10Z</time>
      </trkpt>
      <trkpt lat="44.98011" lon="5.21921">
        <ele>1156.6</ele>
        <time>2018-12-05T10:42:28Z</time>
      </trkpt>
      <trkpt lat="44.98018" lon="5.21922">
        <ele>1158.82</ele>
        <time>2018-12-05T10:42:44Z</time>
      </trkpt>
      <trkpt lat="44.98026" lon="5.21928">
        <ele>1159.25</ele>
        <time>2018-12-05T10:43:01Z</time>
      </trkpt>
      <trkpt lat="44.9803" lon="5.21933">
        <ele>1159.41</ele>
        <time>2018-12-05T10:43:19Z</time>
      </trkpt>
      <trkpt lat="44.98038" lon="5.21939">
        <ele>1161.63</ele>
        <time>2018-12-05T10:43:37Z</time>
      </trkpt>
      <trkpt lat="44.98051" lon="5.21945">
        <ele>1163.68</ele>
        <time>2018-12-05T10:43:54Z</time>
      </trkpt>
      <trkpt lat="44.98059" lon="5.21948">
        <ele>1163.53</ele>
        <time>2018-12-05T10:44:11Z</time>
      </trkpt>
      <trkpt lat="44.98063" lon="5.21954">
        <ele>1162.51</ele>
        <time>2018-12-05T10:44:27Z</time>
      </trkpt>
      <trkpt lat="44.98069" lon="5.21957">
        <ele>1163.94</ele>
        <time>2018-12-05T10:44:45Z</time>
      </trkpt>
      <trkpt lat="44.98073" lon="5.21966">
        <ele>1162.82</ele>
        <time>2018-12-05T10:44:57Z</time>
      </trkpt>
      <trkpt lat="44.98083" lon="5.21966">
        <ele>1166.33</ele>
        <time>2018-12-05T10:45:13Z</time>
      </trkpt>
      <trkpt lat="44.9809" lon="5.21968">
        <ele>1167.77</ele>
        <time>2018-12-05T10:45:28Z</time>
      </trkpt>
      <trkpt lat="44.98097" lon="5.21969">
        <ele>1169.29</ele>
        <time>2018-12-05T10:45:44Z</time>
      </trkpt>
      <trkpt lat="44.981" lon="5.2197">
        <ele>1170.32</ele>
        <time>2018-12-05T10:46:03Z</time>
      </trkpt>
      <trkpt lat="44.98106" lon="5.21973">
        <ele>1170.68</ele>
        <time>2018-12-05T10:46:17Z</time>
      </trkpt>
      <trkpt lat="44.98112" lon="5.21978">
        <ele>1171.49</ele>
        <time>2018-12-05T10:46:32Z</time>
      </trkpt>
      <trkpt lat="44.98119" lon="5.21982">
        <ele>1170.59</ele>
        <time>2018-12-05T10:46:44Z</time>
      </trkpt>
      <trkpt lat="44.98126" lon="5.21987">
        <ele>1170.14</ele>
        <time>2018-12-05T10:47:01Z</time>
      </trkpt>
      <trkpt lat="44.98132" lon="5.21996">
        <ele>1167.9</ele>
        <time>2018-12-05T10:47:15Z</time>
      </trkpt>
      <trkpt lat="44.98138" lon="5.22009">
        <ele>1164.89</ele>
        <time>2018-12-05T10:47:29Z</time>
      </trkpt>
      <trkpt lat="44.98145" lon="5.22016">
        <ele>1162.57</ele>
        <time>2018-12-05T10:47:45Z</time>
      </trkpt>
      <trkpt lat="44.98149" lon="5.22025">
        <ele>1160.52</ele>
        <time>2018-12-05T10:47:59Z</time>
      </trkpt>
      <trkpt lat="44.98154" lon="5.22027">
        <ele>1160.6</ele>
        <time>2018-12-05T10:48:15Z</time>
      </trkpt>
      <trkpt lat="44.98156" lon="5.22028">
        <ele>1160.64</ele>
        <time>2018-12-05T10:48:35Z</time>
      </trkpt>
      <trkpt lat="44.98157" lon="5.22028">
        <ele>1160.62</ele>
        <time>2018-12-05T10:48:53Z</time>
      </trkpt>
      <trkpt lat="44.98158" lon="5.22029">
        <ele>1161</ele>
        <time>2018-12-05T10:49:15Z</time>
      </trkpt>
      <trkpt lat="44.98159" lon="5.22029">
        <ele>1161.18</ele>
        <time>2018-12-05T10:49:38Z</time>
      </trkpt>
      <trkpt lat="44.98158" lon="5.2203">
        <ele>1161.08</ele>
        <time>2018-12-05T10:50:05Z</time>
      </trkpt>
      <trkpt lat="44.98158" lon="5.22031">
        <ele>1161.16</ele>
        <time>2018-12-05T10:50:24Z</time>
      </trkpt>
      <trkpt lat="44.98159" lon="5.22029">
        <ele>1161.26</ele>
        <time>2018-12-05T10:50:44Z</time>
      </trkpt>
      <trkpt lat="44.9816" lon="5.22028">
        <ele>1161.4</ele>
        <time>2018-12-05T10:51:06Z</time>
      </trkpt>
      <trkpt lat="44.9816" lon="5.2203">
        <ele>1161.57</ele>
        <time>2018-12-05T10:51:27Z</time>
      </trkpt>
      <trkpt lat="44.9816" lon="5.22031">
        <ele>1161.8</ele>
        <time>2018-12-05T10:51:49Z</time>
      </trkpt>
      <trkpt lat="44.98158" lon="5.22029">
        <ele>1161.97</ele>
        <time>2018-12-05T10:52:08Z</time>
      </trkpt>
      <trkpt lat="44.98157" lon="5.2203">
        <ele>1162.18</ele>
        <time>2018-12-05T10:52:35Z</time>
      </trkpt>
      <trkpt lat="44.98156" lon="5.22032">
        <ele>1162.26</ele>
        <time>2018-12-05T10:52:57Z</time>
      </trkpt>
      <trkpt lat="44.98156" lon="5.2203">
        <ele>1162.33</ele>
        <time>2018-12-05T10:53:21Z</time>
      </trkpt>
      <trkpt lat="44.98157" lon="5.22031">
        <ele>1162.61</ele>
        <time>2018-12-05T10:53:42Z</time>
      </trkpt>
      <trkpt lat="44.98154" lon="5.2203">
        <ele>1162.61</ele>
        <time>2018-12-05T10:54:07Z</time>
      </trkpt>
      <trkpt lat="44.98154" lon="5.22029">
        <ele>1162.97</ele>
        <time>2018-12-05T10:54:30Z</time>
      </trkpt>
      <trkpt lat="44.98159" lon="5.2203">
        <ele>1162.72</ele>
        <time>2018-12-05T10:54:55Z</time>
      </trkpt>
      <trkpt lat="44.9816" lon="5.22032">
        <ele>1162.63</ele>
        <time>2018-12-05T10:55:16Z</time>
      </trkpt>
      <trkpt lat="44.98162" lon="5.2204">
        <ele>1160.78</ele>
        <time>2018-12-05T10:55:28Z</time>
      </trkpt>
      <trkpt lat="44.98168" lon="5.22049">
        <ele>1160.07</ele>
        <time>2018-12-05T10:55:43Z</time>
      </trkpt>
      <trkpt lat="44.98176" lon="5.22055">
        <ele>1159.49</ele>
        <time>2018-12-05T10:55:56Z</time>
      </trkpt>
      <trkpt lat="44.98182" lon="5.22061">
        <ele>1159.05</ele>
        <time>2018-12-05T10:56:08Z</time>
      </trkpt>
      <trkpt lat="44.98184" lon="5.22062">
        <ele>1158.74</ele>
        <time>2018-12-05T10:56:10Z</time>
      </trkpt>
      <trkpt lat="44.9819" lon="5.22072">
        <ele>1156.63</ele>
        <time>2018-12-05T10:56:22Z</time>
      </trkpt>
      <trkpt lat="44.98198" lon="5.22081">
        <ele>1155.67</ele>
        <time>2018-12-05T10:56:35Z</time>
      </trkpt>
      <trkpt lat="44.9821" lon="5.22085">
        <ele>1159.02</ele>
        <time>2018-12-05T10:56:49Z</time>
      </trkpt>
      <trkpt lat="44.98217" lon="5.22094">
        <ele>1158.46</ele>
        <time>2018-12-05T10:57:02Z</time>
      </trkpt>
      <trkpt lat="44.98224" lon="5.22095">
        <ele>1158.36</ele>
        <time>2018-12-05T10:57:17Z</time>
      </trkpt>
      <trkpt lat="44.98226" lon="5.22098">
        <ele>1157.9</ele>
        <time>2018-12-05T10:57:43Z</time>
      </trkpt>
      <trkpt lat="44.98235" lon="5.22102">
        <ele>1158.45</ele>
        <time>2018-12-05T10:58:00Z</time>
      </trkpt>
      <trkpt lat="44.9824" lon="5.22105">
        <ele>1159.01</ele>
        <time>2018-12-05T10:58:11Z</time>
      </trkpt>
      <trkpt lat="44.98243" lon="5.2211">
        <ele>1157.71</ele>
        <time>2018-12-05T10:58:28Z</time>
      </trkpt>
      <trkpt lat="44.98247" lon="5.22115">
        <ele>1156.88</ele>
        <time>2018-12-05T10:58:41Z</time>
      </trkpt>
      <trkpt lat="44.98254" lon="5.22118">
        <ele>1156.73</ele>
        <time>2018-12-05T10:58:55Z</time>
      </trkpt>
      <trkpt lat="44.9826" lon="5.22123">
        <ele>1157.57</ele>
        <time>2018-12-05T10:59:10Z</time>
      </trkpt>
      <trkpt lat="44.98264" lon="5.2213">
        <ele>1154.8</ele>
        <time>2018-12-05T10:59:24Z</time>
      </trkpt>
      <trkpt lat="44.98267" lon="5.22135">
        <ele>1153.42</ele>
        <time>2018-12-05T10:59:39Z</time>
      </trkpt>
      <trkpt lat="44.98271" lon="5.22148">
        <ele>1150.71</ele>
        <time>2018-12-05T10:59:51Z</time>
      </trkpt>
      <trkpt lat="44.98274" lon="5.22157">
        <ele>1150.03</ele>
        <time>2018-12-05T11:00:00Z</time>
      </trkpt>
      <trkpt lat="44.98279" lon="5.22168">
        <ele>1148.66</ele>
        <time>2018-12-05T11:00:12Z</time>
      </trkpt>
      <trkpt lat="44.98286" lon="5.22177">
        <ele>1147.72</ele>
        <time>2018-12-05T11:00:25Z</time>
      </trkpt>
      <trkpt lat="44.98295" lon="5.22187">
        <ele>1148.53</ele>
        <time>2018-12-05T11:00:40Z</time>
      </trkpt>
      <trkpt lat="44.98309" lon="5.22199">
        <ele>1150.02</ele>
        <time>2018-12-05T11:00:57Z</time>
      </trkpt>
      <trkpt lat="44.98311" lon="5.222">
        <ele>1149.43</ele>
        <time>2018-12-05T11:01:00Z</time>
      </trkpt>
      <trkpt lat="44.98319" lon="5.22203">
        <ele>1151.84</ele>
        <time>2018-12-05T11:01:17Z</time>
      </trkpt>
      <trkpt lat="44.98319" lon="5.22203">
        <ele>1152.13</ele>
        <time>2018-12-05T11:01:18Z</time>
      </trkpt>
      <trkpt lat="44.98325" lon="5.22204">
        <ele>1154.48</ele>
        <time>2018-12-05T11:01:33Z</time>
      </trkpt>
      <trkpt lat="44.98331" lon="5.22204">
        <ele>1155.75</ele>
        <time>2018-12-05T11:01:52Z</time>
      </trkpt>
      <trkpt lat="44.98335" lon="5.22204">
        <ele>1158.88</ele>
        <time>2018-12-05T11:02:08Z</time>
      </trkpt>
      <trkpt lat="44.98341" lon="5.22205">
        <ele>1160.9</ele>
        <time>2018-12-05T11:02:28Z</time>
      </trkpt>
      <trkpt lat="44.98345" lon="5.22209">
        <ele>1162.89</ele>
        <time>2018-12-05T11:02:46Z</time>
      </trkpt>
      <trkpt lat="44.98348" lon="5.22209">
        <ele>1164.6</ele>
        <time>2018-12-05T11:03:04Z</time>
      </trkpt>
      <trkpt lat="44.98351" lon="5.22208">
        <ele>1165.18</ele>
        <time>2018-12-05T11:03:21Z</time>
      </trkpt>
      <trkpt lat="44.98351" lon="5.22208">
        <ele>1166.35</ele>
        <time>2018-12-05T11:03:40Z</time>
      </trkpt>
      <trkpt lat="44.98354" lon="5.2221">
        <ele>1168.13</ele>
        <time>2018-12-05T11:03:56Z</time>
      </trkpt>
      <trkpt lat="44.98357" lon="5.22209">
        <ele>1170.01</ele>
        <time>2018-12-05T11:04:13Z</time>
      </trkpt>
      <trkpt lat="44.98361" lon="5.2221">
        <ele>1172.35</ele>
        <time>2018-12-05T11:04:33Z</time>
      </trkpt>
      <trkpt lat="44.98367" lon="5.22211">
        <ele>1175.26</ele>
        <time>2018-12-05T11:04:51Z</time>
      </trkpt>
      <trkpt lat="44.98372" lon="5.22215">
        <ele>1176.69</ele>
        <time>2018-12-05T11:05:08Z</time>
      </trkpt>
      <trkpt lat="44.98377" lon="5.22221">
        <ele>1178.59</ele>
        <time>2018-12-05T11:05:26Z</time>
      </trkpt>
      <trkpt lat="44.98382" lon="5.22221">
        <ele>1181.7</ele>
        <time>2018-12-05T11:05:40Z</time>
      </trkpt>
      <trkpt lat="44.98386" lon="5.22221">
        <ele>1183.55</ele>
        <time>2018-12-05T11:05:56Z</time>
      </trkpt>
      <trkpt lat="44.98389" lon="5.22222">
        <ele>1185.32</ele>
        <time>2018-12-05T11:06:13Z</time>
      </trkpt>
      <trkpt lat="44.98391" lon="5.2222">
        <ele>1186.43</ele>
        <time>2018-12-05T11:06:27Z</time>
      </trkpt>
      <trkpt lat="44.98393" lon="5.22225">
        <ele>1186.89</ele>
        <time>2018-12-05T11:06:41Z</time>
      </trkpt>
      <trkpt lat="44.98393" lon="5.22226">
        <ele>1186.67</ele>
        <time>2018-12-05T11:06:59Z</time>
      </trkpt>
      <trkpt lat="44.98393" lon="5.22231">
        <ele>1185.32</ele>
        <time>2018-12-05T11:07:13Z</time>
      </trkpt>
      <trkpt lat="44.98396" lon="5.22238">
        <ele>1185.78</ele>
        <time>2018-12-05T11:07:30Z</time>
      </trkpt>
      <trkpt lat="44.98402" lon="5.22247">
        <ele>1187.19</ele>
        <time>2018-12-05T11:07:47Z</time>
      </trkpt>
      <trkpt lat="44.98403" lon="5.22252">
        <ele>1187.47</ele>
        <time>2018-12-05T11:08:03Z</time>
      </trkpt>
      <trkpt lat="44.98407" lon="5.2226">
        <ele>1186.33</ele>
        <time>2018-12-05T11:08:17Z</time>
      </trkpt>
      <trkpt lat="44.98412" lon="5.22268">
        <ele>1186.34</ele>
        <time>2018-12-05T11:08:33Z</time>
      </trkpt>
      <trkpt lat="44.98414" lon="5.22273">
        <ele>1186.82</ele>
        <time>2018-12-05T11:08:45Z</time>
      </trkpt>
      <trkpt lat="44.9842" lon="5.22277">
        <ele>1187.88</ele>
        <time>2018-12-05T11:09:03Z</time>
      </trkpt>
      <trkpt lat="44.98427" lon="5.22286">
        <ele>1189.86</ele>
        <time>2018-12-05T11:09:21Z</time>
      </trkpt>
      <trkpt lat="44.98434" lon="5.22294">
        <ele>1190.85</ele>
        <time>2018-12-05T11:09:37Z</time>
      </trkpt>
      <trkpt lat="44.98444" lon="5.22303">
        <ele>1193.17</ele>
        <time>2018-12-05T11:09:55Z</time>
      </trkpt>
      <trkpt lat="44.98449" lon="5.22311">
        <ele>1193.28</ele>
        <time>2018-12-05T11:10:09Z</time>
      </trkpt>
      <trkpt lat="44.98454" lon="5.22319">
        <ele>1194.02</ele>
        <time>2018-12-05T11:10:26Z</time>
      </trkpt>
      <trkpt lat="44.98462" lon="5.22321">
        <ele>1195.13</ele>
        <time>2018-12-05T11:10:43Z</time>
      </trkpt>
      <trkpt lat="44.98469" lon="5.22326">
        <ele>1196.24</ele>
        <time>2018-12-05T11:11:00Z</time>
      </trkpt>
      <trkpt lat="44.98475" lon="5.2233">
        <ele>1196.99</ele>
        <time>2018-12-05T11:11:16Z</time>
      </trkpt>
      <trkpt lat="44.98483" lon="5.22337">
        <ele>1199.47</ele>
        <time>2018-12-05T11:11:32Z</time>
      </trkpt>
      <trkpt lat="44.98495" lon="5.22337">
        <ele>1201.18</ele>
        <time>2018-12-05T11:11:49Z</time>
      </trkpt>
      <trkpt lat="44.98502" lon="5.22343">
        <ele>1200.72</ele>
        <time>2018-12-05T11:12:03Z</time>
      </trkpt>
      <trkpt lat="44.98507" lon="5.22352">
        <ele>1200.02</ele>
        <time>2018-12-05T11:12:18Z</time>
      </trkpt>
      <trkpt lat="44.98509" lon="5.22354">
        <ele>1199.33</ele>
        <time>2018-12-05T11:12:39Z</time>
      </trkpt>
      <trkpt lat="44.98515" lon="5.22357">
        <ele>1196.86</ele>
        <time>2018-12-05T11:12:56Z</time>
      </trkpt>
      <trkpt lat="44.98527" lon="5.22364">
        <ele>1193.71</ele>
        <time>2018-12-05T11:13:07Z</time>
      </trkpt>
      <trkpt lat="44.98531" lon="5.22374">
        <ele>1191.8</ele>
        <time>2018-12-05T11:13:23Z</time>
      </trkpt>
      <trkpt lat="44.98536" lon="5.22391">
        <ele>1190.13</ele>
        <time>2018-12-05T11:13:35Z</time>
      </trkpt>
      <trkpt lat="44.98541" lon="5.22404">
        <ele>1191.34</ele>
        <time>2018-12-05T11:13:46Z</time>
      </trkpt>
      <trkpt lat="44.98544" lon="5.22411">
        <ele>1191.38</ele>
        <time>2018-12-05T11:13:59Z</time>
      </trkpt>
      <trkpt lat="44.98552" lon="5.22427">
        <ele>1190.62</ele>
        <time>2018-12-05T11:14:14Z</time>
      </trkpt>
      <trkpt lat="44.98557" lon="5.22437">
        <ele>1192.52</ele>
        <time>2018-12-05T11:14:26Z</time>
      </trkpt>
      <trkpt lat="44.98567" lon="5.22449">
        <ele>1194.51</ele>
        <time>2018-12-05T11:14:42Z</time>
      </trkpt>
      <trkpt lat="44.98577" lon="5.2245">
        <ele>1197.29</ele>
        <time>2018-12-05T11:14:56Z</time>
      </trkpt>
      <trkpt lat="44.98588" lon="5.22448">
        <ele>1198.89</ele>
        <time>2018-12-05T11:15:12Z</time>
      </trkpt>
      <trkpt lat="44.98597" lon="5.22435">
        <ele>1199.69</ele>
        <time>2018-12-05T11:15:29Z</time>
      </trkpt>
      <trkpt lat="44.98604" lon="5.22425">
        <ele>1202.66</ele>
        <time>2018-12-05T11:15:45Z</time>
      </trkpt>
      <trkpt lat="44.98617" lon="5.22424">
        <ele>1205.16</ele>
        <time>2018-12-05T11:16:04Z</time>
      </trkpt>
      <trkpt lat="44.9863" lon="5.22426">
        <ele>1207.07</ele>
        <time>2018-12-05T11:16:19Z</time>
      </trkpt>
      <trkpt lat="44.98641" lon="5.22426">
        <ele>1209.28</ele>
        <time>2018-12-05T11:16:36Z</time>
      </trkpt>
      <trkpt lat="44.98652" lon="5.22427">
        <ele>1211.23</ele>
        <time>2018-12-05T11:16:51Z</time>
      </trkpt>
      <trkpt lat="44.98665" lon="5.22426">
        <ele>1212.4</ele>
        <time>2018-12-05T11:17:05Z</time>
      </trkpt>
      <trkpt lat="44.98678" lon="5.22422">
        <ele>1210.97</ele>
        <time>2018-12-05T11:17:21Z</time>
      </trkpt>
      <trkpt lat="44.98689" lon="5.22417">
        <ele>1209.7</ele>
        <time>2018-12-05T11:17:33Z</time>
      </trkpt>
      <trkpt lat="44.98702" lon="5.22413">
        <ele>1208.15</ele>
        <time>2018-12-05T11:17:46Z</time>
      </trkpt>
      <trkpt lat="44.98717" lon="5.22407">
        <ele>1208.77</ele>
        <time>2018-12-05T11:18:00Z</time>
      </trkpt>
      <trkpt lat="44.98731" lon="5.2241">
        <ele>1211.08</ele>
        <time>2018-12-05T11:18:14Z</time>
      </trkpt>
      <trkpt lat="44.98741" lon="5.22423">
        <ele>1211.83</ele>
        <time>2018-12-05T11:18:27Z</time>
      </trkpt>
      <trkpt lat="44.98753" lon="5.22422">
        <ele>1212.96</ele>
        <time>2018-12-05T11:18:39Z</time>
      </trkpt>
      <trkpt lat="44.98754" lon="5.22423">
        <ele>1213.32</ele>
        <time>2018-12-05T11:18:54Z</time>
      </trkpt>
      <trkpt lat="44.98753" lon="5.22424">
        <ele>1213.23</ele>
        <time>2018-12-05T11:19:11Z</time>
      </trkpt>
      <trkpt lat="44.98757" lon="5.22425">
        <ele>1213.18</ele>
        <time>2018-12-05T11:19:36Z</time>
      </trkpt>
      <trkpt lat="44.98758" lon="5.22427">
        <ele>1213.41</ele>
        <time>2018-12-05T11:19:55Z</time>
      </trkpt>
      <trkpt lat="44.98754" lon="5.22429">
        <ele>1213.53</ele>
        <time>2018-12-05T11:20:13Z</time>
      </trkpt>
      <trkpt lat="44.98756" lon="5.22431">
        <ele>1212.51</ele>
        <time>2018-12-05T11:20:37Z</time>
      </trkpt>
      <trkpt lat="44.98757" lon="5.22432">
        <ele>1213.04</ele>
        <time>2018-12-05T11:21:12Z</time>
      </trkpt>
      <trkpt lat="44.98753" lon="5.22435">
        <ele>1213.07</ele>
        <time>2018-12-05T11:21:59Z</time>
      </trkpt>
      <trkpt lat="44.98754" lon="5.22433">
        <ele>1213.57</ele>
        <time>2018-12-05T11:22:45Z</time>
      </trkpt>
      <trkpt lat="44.98754" lon="5.22431">
        <ele>1213.8</ele>
        <time>2018-12-05T11:23:24Z</time>
      </trkpt>
      <trkpt lat="44.98755" lon="5.2243">
        <ele>1214.21</ele>
        <time>2018-12-05T11:24:06Z</time>
      </trkpt>
      <trkpt lat="44.98756" lon="5.22428">
        <ele>1214.71</ele>
        <time>2018-12-05T11:24:19Z</time>
      </trkpt>
      <trkpt lat="44.98754" lon="5.22427">
        <ele>1214.65</ele>
        <time>2018-12-05T11:24:31Z</time>
      </trkpt>
      <trkpt lat="44.98753" lon="5.22428">
        <ele>1215.08</ele>
        <time>2018-12-05T11:24:50Z</time>
      </trkpt>
      <trkpt lat="44.98745" lon="5.22431">
        <ele>1214.43</ele>
        <time>2018-12-05T11:25:02Z</time>
      </trkpt>
      <trkpt lat="44.98743" lon="5.22434">
        <ele>1213.57</ele>
        <time>2018-12-05T11:25:05Z</time>
      </trkpt>
      <trkpt lat="44.98738" lon="5.2245">
        <ele>1212.49</ele>
        <time>2018-12-05T11:25:18Z</time>
      </trkpt>
      <trkpt lat="44.98738" lon="5.22451">
        <ele>1212.38</ele>
        <time>2018-12-05T11:25:19Z</time>
      </trkpt>
      <trkpt lat="44.98737" lon="5.22459">
        <ele>1211.86</ele>
        <time>2018-12-05T11:25:24Z</time>
      </trkpt>
      <trkpt lat="44.98736" lon="5.22473">
        <ele>1210.8</ele>
        <time>2018-12-05T11:25:33Z</time>
      </trkpt>
      <trkpt lat="44.9874" lon="5.22486">
        <ele>1209.73</ele>
        <time>2018-12-05T11:25:43Z</time>
      </trkpt>
      <trkpt lat="44.98741" lon="5.22494">
        <ele>1209.3</ele>
        <time>2018-12-05T11:25:51Z</time>
      </trkpt>
      <trkpt lat="44.98747" lon="5.22503">
        <ele>1208.17</ele>
        <time>2018-12-05T11:25:59Z</time>
      </trkpt>
      <trkpt lat="44.98748" lon="5.22508">
        <ele>1207.5</ele>
        <time>2018-12-05T11:26:03Z</time>
      </trkpt>
      <trkpt lat="44.9875" lon="5.2251">
        <ele>1207.11</ele>
        <time>2018-12-05T11:26:05Z</time>
      </trkpt>
      <trkpt lat="44.98759" lon="5.22518">
        <ele>1209</ele>
        <time>2018-12-05T11:26:16Z</time>
      </trkpt>
      <trkpt lat="44.98767" lon="5.22523">
        <ele>1210.53</ele>
        <time>2018-12-05T11:26:25Z</time>
      </trkpt>
      <trkpt lat="44.98777" lon="5.2252">
        <ele>1212.2</ele>
        <time>2018-12-05T11:26:36Z</time>
      </trkpt>
      <trkpt lat="44.9878" lon="5.22519">
        <ele>1212.45</ele>
        <time>2018-12-05T11:26:39Z</time>
      </trkpt>
      <trkpt lat="44.98786" lon="5.22521">
        <ele>1213.6</ele>
        <time>2018-12-05T11:26:46Z</time>
      </trkpt>
      <trkpt lat="44.98799" lon="5.2253">
        <ele>1213.19</ele>
        <time>2018-12-05T11:26:57Z</time>
      </trkpt>
      <trkpt lat="44.98809" lon="5.22529">
        <ele>1213.78</ele>
        <time>2018-12-05T11:27:10Z</time>
      </trkpt>
      <trkpt lat="44.98821" lon="5.22522">
        <ele>1215.46</ele>
        <time>2018-12-05T11:27:27Z</time>
      </trkpt>
      <trkpt lat="44.98831" lon="5.22511">
        <ele>1217.57</ele>
        <time>2018-12-05T11:27:42Z</time>
      </trkpt>
      <trkpt lat="44.98839" lon="5.22497">
        <ele>1218.59</ele>
        <time>2018-12-05T11:28:00Z</time>
      </trkpt>
      <trkpt lat="44.98847" lon="5.22488">
        <ele>1218.17</ele>
        <time>2018-12-05T11:28:13Z</time>
      </trkpt>
      <trkpt lat="44.98851" lon="5.2249">
        <ele>1218.08</ele>
        <time>2018-12-05T11:28:16Z</time>
      </trkpt>
      <trkpt lat="44.98858" lon="5.22493">
        <ele>1217.76</ele>
        <time>2018-12-05T11:28:22Z</time>
      </trkpt>
      <trkpt lat="44.98867" lon="5.225">
        <ele>1216.05</ele>
        <time>2018-12-05T11:28:35Z</time>
      </trkpt>
      <trkpt lat="44.98875" lon="5.22509">
        <ele>1216.52</ele>
        <time>2018-12-05T11:28:44Z</time>
      </trkpt>
      <trkpt lat="44.98887" lon="5.22515">
        <ele>1216.47</ele>
        <time>2018-12-05T11:28:55Z</time>
      </trkpt>
      <trkpt lat="44.98893" lon="5.22518">
        <ele>1216.45</ele>
        <time>2018-12-05T11:29:06Z</time>
      </trkpt>
      <trkpt lat="44.98904" lon="5.22516">
        <ele>1214.85</ele>
        <time>2018-12-05T11:29:20Z</time>
      </trkpt>
      <trkpt lat="44.9891" lon="5.22516">
        <ele>1213.68</ele>
        <time>2018-12-05T11:29:28Z</time>
      </trkpt>
      <trkpt lat="44.98916" lon="5.2252">
        <ele>1212.03</ele>
        <time>2018-12-05T11:29:32Z</time>
      </trkpt>
      <trkpt lat="44.98922" lon="5.22522">
        <ele>1211.19</ele>
        <time>2018-12-05T11:29:36Z</time>
      </trkpt>
      <trkpt lat="44.9893" lon="5.22526">
        <ele>1209.49</ele>
        <time>2018-12-05T11:29:48Z</time>
      </trkpt>
      <trkpt lat="44.98934" lon="5.22534">
        <ele>1208.03</ele>
        <time>2018-12-05T11:29:58Z</time>
      </trkpt>
      <trkpt lat="44.98937" lon="5.22538">
        <ele>1208.32</ele>
        <time>2018-12-05T11:30:02Z</time>
      </trkpt>
      <trkpt lat="44.98945" lon="5.22557">
        <ele>1207.17</ele>
        <time>2018-12-05T11:30:13Z</time>
      </trkpt>
      <trkpt lat="44.9895" lon="5.22572">
        <ele>1205.65</ele>
        <time>2018-12-05T11:30:22Z</time>
      </trkpt>
      <trkpt lat="44.98952" lon="5.22576">
        <ele>1205.2</ele>
        <time>2018-12-05T11:30:25Z</time>
      </trkpt>
      <trkpt lat="44.98961" lon="5.22586">
        <ele>1202.33</ele>
        <time>2018-12-05T11:30:37Z</time>
      </trkpt>
      <trkpt lat="44.98969" lon="5.22587">
        <ele>1199.75</ele>
        <time>2018-12-05T11:30:46Z</time>
      </trkpt>
      <trkpt lat="44.98973" lon="5.22586">
        <ele>1199.02</ele>
        <time>2018-12-05T11:30:49Z</time>
      </trkpt>
      <trkpt lat="44.98977" lon="5.22588">
        <ele>1197.82</ele>
        <time>2018-12-05T11:30:59Z</time>
      </trkpt>
      <trkpt lat="44.98976" lon="5.22595">
        <ele>1198.05</ele>
        <time>2018-12-05T11:31:12Z</time>
      </trkpt>
      <trkpt lat="44.98979" lon="5.22606">
        <ele>1195.87</ele>
        <time>2018-12-05T11:31:21Z</time>
      </trkpt>
      <trkpt lat="44.9898" lon="5.22609">
        <ele>1195.53</ele>
        <time>2018-12-05T11:31:24Z</time>
      </trkpt>
      <trkpt lat="44.98982" lon="5.22613">
        <ele>1194.95</ele>
        <time>2018-12-05T11:31:27Z</time>
      </trkpt>
      <trkpt lat="44.98989" lon="5.22618">
        <ele>1194.31</ele>
        <time>2018-12-05T11:31:37Z</time>
      </trkpt>
      <trkpt lat="44.98992" lon="5.22618">
        <ele>1193.33</ele>
        <time>2018-12-05T11:31:41Z</time>
      </trkpt>
      <trkpt lat="44.99006" lon="5.22614">
        <ele>1190.81</ele>
        <time>2018-12-05T11:31:54Z</time>
      </trkpt>
      <trkpt lat="44.99006" lon="5.22614">
        <ele>1190.37</ele>
        <time>2018-12-05T11:31:55Z</time>
      </trkpt>
      <trkpt lat="44.99015" lon="5.22612">
        <ele>1189.03</ele>
        <time>2018-12-05T11:32:04Z</time>
      </trkpt>
      <trkpt lat="44.99017" lon="5.2261">
        <ele>1188.84</ele>
        <time>2018-12-05T11:32:06Z</time>
      </trkpt>
      <trkpt lat="44.99023" lon="5.22611">
        <ele>1187.73</ele>
        <time>2018-12-05T11:32:12Z</time>
      </trkpt>
      <trkpt lat="44.99031" lon="5.22616">
        <ele>1184.05</ele>
        <time>2018-12-05T11:32:22Z</time>
      </trkpt>
      <trkpt lat="44.9904" lon="5.22618">
        <ele>1182.01</ele>
        <time>2018-12-05T11:32:31Z</time>
      </trkpt>
      <trkpt lat="44.99042" lon="5.22619">
        <ele>1181.98</ele>
        <time>2018-12-05T11:32:33Z</time>
      </trkpt>
      <trkpt lat="44.99049" lon="5.22621">
        <ele>1181.61</ele>
        <time>2018-12-05T11:32:42Z</time>
      </trkpt>
      <trkpt lat="44.99053" lon="5.22625">
        <ele>1181.88</ele>
        <time>2018-12-05T11:32:53Z</time>
      </trkpt>
      <trkpt lat="44.99057" lon="5.22628">
        <ele>1181.31</ele>
        <time>2018-12-05T11:32:59Z</time>
      </trkpt>
      <trkpt lat="44.99063" lon="5.2263">
        <ele>1182</ele>
        <time>2018-12-05T11:33:11Z</time>
      </trkpt>
      <trkpt lat="44.99069" lon="5.2264">
        <ele>1182.52</ele>
        <time>2018-12-05T11:33:26Z</time>
      </trkpt>
      <trkpt lat="44.99078" lon="5.22638">
        <ele>1184.77</ele>
        <time>2018-12-05T11:33:37Z</time>
      </trkpt>
      <trkpt lat="44.99088" lon="5.22639">
        <ele>1188.03</ele>
        <time>2018-12-05T11:33:51Z</time>
      </trkpt>
      <trkpt lat="44.99097" lon="5.22642">
        <ele>1189.86</ele>
        <time>2018-12-05T11:34:04Z</time>
      </trkpt>
      <trkpt lat="44.991" lon="5.22633">
        <ele>1192.51</ele>
        <time>2018-12-05T11:34:18Z</time>
      </trkpt>
      <trkpt lat="44.99107" lon="5.22625">
        <ele>1194.45</ele>
        <time>2018-12-05T11:34:32Z</time>
      </trkpt>
      <trkpt lat="44.99111" lon="5.2262">
        <ele>1195.86</ele>
        <time>2018-12-05T11:34:46Z</time>
      </trkpt>
      <trkpt lat="44.99116" lon="5.22615">
        <ele>1198.91</ele>
        <time>2018-12-05T11:34:59Z</time>
      </trkpt>
      <trkpt lat="44.99119" lon="5.22609">
        <ele>1201.25</ele>
        <time>2018-12-05T11:35:13Z</time>
      </trkpt>
      <trkpt lat="44.99126" lon="5.22607">
        <ele>1202.6</ele>
        <time>2018-12-05T11:35:27Z</time>
      </trkpt>
      <trkpt lat="44.99127" lon="5.22605">
        <ele>1203.19</ele>
        <time>2018-12-05T11:35:48Z</time>
      </trkpt>
      <trkpt lat="44.99132" lon="5.22604">
        <ele>1204.28</ele>
        <time>2018-12-05T11:36:06Z</time>
      </trkpt>
      <trkpt lat="44.99139" lon="5.22609">
        <ele>1207.52</ele>
        <time>2018-12-05T11:36:21Z</time>
      </trkpt>
      <trkpt lat="44.99139" lon="5.22606">
        <ele>1208.73</ele>
        <time>2018-12-05T11:36:33Z</time>
      </trkpt>
      <trkpt lat="44.99143" lon="5.22604">
        <ele>1211</ele>
        <time>2018-12-05T11:36:46Z</time>
      </trkpt>
      <trkpt lat="44.9915" lon="5.2261">
        <ele>1212.77</ele>
        <time>2018-12-05T11:37:00Z</time>
      </trkpt>
      <trkpt lat="44.99156" lon="5.22616">
        <ele>1215.2</ele>
        <time>2018-12-05T11:37:16Z</time>
      </trkpt>
      <trkpt lat="44.9916" lon="5.22612">
        <ele>1218.26</ele>
        <time>2018-12-05T11:37:29Z</time>
      </trkpt>
      <trkpt lat="44.99166" lon="5.22602">
        <ele>1220.66</ele>
        <time>2018-12-05T11:37:44Z</time>
      </trkpt>
      <trkpt lat="44.99175" lon="5.22602">
        <ele>1221.69</ele>
        <time>2018-12-05T11:37:56Z</time>
      </trkpt>
      <trkpt lat="44.99181" lon="5.22596">
        <ele>1223.76</ele>
        <time>2018-12-05T11:38:10Z</time>
      </trkpt>
      <trkpt lat="44.99184" lon="5.22585">
        <ele>1225.61</ele>
        <time>2018-12-05T11:38:25Z</time>
      </trkpt>
      <trkpt lat="44.99184" lon="5.2258">
        <ele>1227.12</ele>
        <time>2018-12-05T11:38:39Z</time>
      </trkpt>
      <trkpt lat="44.99189" lon="5.22579">
        <ele>1227.05</ele>
        <time>2018-12-05T11:38:57Z</time>
      </trkpt>
      <trkpt lat="44.9919" lon="5.2258">
        <ele>1227.13</ele>
        <time>2018-12-05T11:39:22Z</time>
      </trkpt>
      <trkpt lat="44.99191" lon="5.22578">
        <ele>1227.09</ele>
        <time>2018-12-05T11:39:41Z</time>
      </trkpt>
      <trkpt lat="44.99194" lon="5.22577">
        <ele>1227.09</ele>
        <time>2018-12-05T11:40:01Z</time>
      </trkpt>
      <trkpt lat="44.99199" lon="5.22581">
        <ele>1226.5</ele>
        <time>2018-12-05T11:40:16Z</time>
      </trkpt>
      <trkpt lat="44.99206" lon="5.2259">
        <ele>1225.88</ele>
        <time>2018-12-05T11:40:29Z</time>
      </trkpt>
      <trkpt lat="44.99205" lon="5.22598">
        <ele>1224.25</ele>
        <time>2018-12-05T11:40:36Z</time>
      </trkpt>
      <trkpt lat="44.99209" lon="5.22612">
        <ele>1221.64</ele>
        <time>2018-12-05T11:40:49Z</time>
      </trkpt>
      <trkpt lat="44.99215" lon="5.22616">
        <ele>1221.74</ele>
        <time>2018-12-05T11:41:03Z</time>
      </trkpt>
      <trkpt lat="44.99217" lon="5.22612">
        <ele>1222.74</ele>
        <time>2018-12-05T11:41:19Z</time>
      </trkpt>
      <trkpt lat="44.99221" lon="5.22615">
        <ele>1223.46</ele>
        <time>2018-12-05T11:41:37Z</time>
      </trkpt>
      <trkpt lat="44.99229" lon="5.22621">
        <ele>1224.87</ele>
        <time>2018-12-05T11:41:53Z</time>
      </trkpt>
      <trkpt lat="44.99238" lon="5.22628">
        <ele>1226.55</ele>
        <time>2018-12-05T11:42:06Z</time>
      </trkpt>
      <trkpt lat="44.99247" lon="5.22634">
        <ele>1226.79</ele>
        <time>2018-12-05T11:42:19Z</time>
      </trkpt>
      <trkpt lat="44.99247" lon="5.22635">
        <ele>1226.84</ele>
        <time>2018-12-05T11:42:20Z</time>
      </trkpt>
      <trkpt lat="44.99254" lon="5.2264">
        <ele>1227.33</ele>
        <time>2018-12-05T11:42:30Z</time>
      </trkpt>
      <trkpt lat="44.99262" lon="5.22644">
        <ele>1228.71</ele>
        <time>2018-12-05T11:42:45Z</time>
      </trkpt>
      <trkpt lat="44.99268" lon="5.22635">
        <ele>1231.29</ele>
        <time>2018-12-05T11:43:00Z</time>
      </trkpt>
      <trkpt lat="44.99274" lon="5.22629">
        <ele>1232.78</ele>
        <time>2018-12-05T11:43:18Z</time>
      </trkpt>
      <trkpt lat="44.99279" lon="5.22627">
        <ele>1233.3</ele>
        <time>2018-12-05T11:43:33Z</time>
      </trkpt>
      <trkpt lat="44.99282" lon="5.22627">
        <ele>1233.01</ele>
        <time>2018-12-05T11:43:52Z</time>
      </trkpt>
      <trkpt lat="44.9928" lon="5.22624">
        <ele>1233.68</ele>
        <time>2018-12-05T11:44:27Z</time>
      </trkpt>
      <trkpt lat="44.99283" lon="5.22625">
        <ele>1233.9</ele>
        <time>2018-12-05T11:44:41Z</time>
      </trkpt>
      <trkpt lat="44.99293" lon="5.22627">
        <ele>1235.5</ele>
        <time>2018-12-05T11:44:56Z</time>
      </trkpt>
      <trkpt lat="44.993" lon="5.22635">
        <ele>1235.03</ele>
        <time>2018-12-05T11:45:08Z</time>
      </trkpt>
      <trkpt lat="44.99312" lon="5.2265">
        <ele>1233.58</ele>
        <time>2018-12-05T11:45:25Z</time>
      </trkpt>
      <trkpt lat="44.9932" lon="5.22661">
        <ele>1230.54</ele>
        <time>2018-12-05T11:45:39Z</time>
      </trkpt>
      <trkpt lat="44.99334" lon="5.22668">
        <ele>1228.31</ele>
        <time>2018-12-05T11:45:55Z</time>
      </trkpt>
      <trkpt lat="44.99337" lon="5.22667">
        <ele>1228.11</ele>
        <time>2018-12-05T11:45:59Z</time>
      </trkpt>
      <trkpt lat="44.99341" lon="5.22676">
        <ele>1227.92</ele>
        <time>2018-12-05T11:46:10Z</time>
      </trkpt>
      <trkpt lat="44.99354" lon="5.22674">
        <ele>1230.31</ele>
        <time>2018-12-05T11:46:26Z</time>
      </trkpt>
      <trkpt lat="44.99355" lon="5.22671">
        <ele>1231.64</ele>
        <time>2018-12-05T11:46:39Z</time>
      </trkpt>
      <trkpt lat="44.99359" lon="5.22666">
        <ele>1233.47</ele>
        <time>2018-12-05T11:46:54Z</time>
      </trkpt>
      <trkpt lat="44.99362" lon="5.22652">
        <ele>1236.64</ele>
        <time>2018-12-05T11:47:12Z</time>
      </trkpt>
      <trkpt lat="44.99361" lon="5.22637">
        <ele>1238.22</ele>
        <time>2018-12-05T11:47:29Z</time>
      </trkpt>
      <trkpt lat="44.99363" lon="5.22633">
        <ele>1239.74</ele>
        <time>2018-12-05T11:47:43Z</time>
      </trkpt>
      <trkpt lat="44.99367" lon="5.22627">
        <ele>1241.89</ele>
        <time>2018-12-05T11:47:58Z</time>
      </trkpt>
      <trkpt lat="44.99375" lon="5.22624">
        <ele>1243.77</ele>
        <time>2018-12-05T11:48:14Z</time>
      </trkpt>
      <trkpt lat="44.99382" lon="5.2262">
        <ele>1244.94</ele>
        <time>2018-12-05T11:48:30Z</time>
      </trkpt>
      <trkpt lat="44.99386" lon="5.22616">
        <ele>1246.04</ele>
        <time>2018-12-05T11:48:46Z</time>
      </trkpt>
      <trkpt lat="44.99398" lon="5.2261">
        <ele>1248.25</ele>
        <time>2018-12-05T11:49:01Z</time>
      </trkpt>
      <trkpt lat="44.99411" lon="5.22606">
        <ele>1250.25</ele>
        <time>2018-12-05T11:49:18Z</time>
      </trkpt>
      <trkpt lat="44.99415" lon="5.22608">
        <ele>1252.71</ele>
        <time>2018-12-05T11:49:34Z</time>
      </trkpt>
      <trkpt lat="44.9942" lon="5.22606">
        <ele>1255.06</ele>
        <time>2018-12-05T11:49:50Z</time>
      </trkpt>
      <trkpt lat="44.99422" lon="5.22609">
        <ele>1255.61</ele>
        <time>2018-12-05T11:50:02Z</time>
      </trkpt>
      <trkpt lat="44.99429" lon="5.22611">
        <ele>1256.55</ele>
        <time>2018-12-05T11:50:17Z</time>
      </trkpt>
      <trkpt lat="44.99431" lon="5.22611">
        <ele>1256.9</ele>
        <time>2018-12-05T11:50:34Z</time>
      </trkpt>
      <trkpt lat="44.99438" lon="5.2261">
        <ele>1257.64</ele>
        <time>2018-12-05T11:50:49Z</time>
      </trkpt>
      <trkpt lat="44.99446" lon="5.2261">
        <ele>1258.1</ele>
        <time>2018-12-05T11:50:59Z</time>
      </trkpt>
      <trkpt lat="44.99451" lon="5.22614">
        <ele>1257.45</ele>
        <time>2018-12-05T11:51:05Z</time>
      </trkpt>
      <trkpt lat="44.99462" lon="5.22622">
        <ele>1257.05</ele>
        <time>2018-12-05T11:51:18Z</time>
      </trkpt>
      <trkpt lat="44.99476" lon="5.22626">
        <ele>1258.13</ele>
        <time>2018-12-05T11:51:32Z</time>
      </trkpt>
      <trkpt lat="44.99487" lon="5.22626">
        <ele>1261.26</ele>
        <time>2018-12-05T11:51:48Z</time>
      </trkpt>
      <trkpt lat="44.9949" lon="5.22627">
        <ele>1262.65</ele>
        <time>2018-12-05T11:51:55Z</time>
      </trkpt>
      <trkpt lat="44.99496" lon="5.22625">
        <ele>1264.35</ele>
        <time>2018-12-05T11:52:10Z</time>
      </trkpt>
      <trkpt lat="44.99502" lon="5.22623">
        <ele>1265.75</ele>
        <time>2018-12-05T11:52:24Z</time>
      </trkpt>
      <trkpt lat="44.99506" lon="5.22623">
        <ele>1268.04</ele>
        <time>2018-12-05T11:52:39Z</time>
      </trkpt>
      <trkpt lat="44.99509" lon="5.22625">
        <ele>1269.33</ele>
        <time>2018-12-05T11:52:54Z</time>
      </trkpt>
      <trkpt lat="44.99508" lon="5.22622">
        <ele>1270.11</ele>
        <time>2018-12-05T11:53:10Z</time>
      </trkpt>
      <trkpt lat="44.99507" lon="5.22623">
        <ele>1270.4</ele>
        <time>2018-12-05T11:53:29Z</time>
      </trkpt>
      <trkpt lat="44.99508" lon="5.22624">
        <ele>1271.13</ele>
        <time>2018-12-05T11:53:45Z</time>
      </trkpt>
      <trkpt lat="44.99513" lon="5.22622">
        <ele>1273.19</ele>
        <time>2018-12-05T11:54:01Z</time>
      </trkpt>
      <trkpt lat="44.99515" lon="5.22618">
        <ele>1275</ele>
        <time>2018-12-05T11:54:14Z</time>
      </trkpt>
      <trkpt lat="44.9952" lon="5.22613">
        <ele>1277.18</ele>
        <time>2018-12-05T11:54:30Z</time>
      </trkpt>
      <trkpt lat="44.99524" lon="5.22612">
        <ele>1278.55</ele>
        <time>2018-12-05T11:54:44Z</time>
      </trkpt>
      <trkpt lat="44.9953" lon="5.22608">
        <ele>1281.58</ele>
        <time>2018-12-05T11:55:00Z</time>
      </trkpt>
      <trkpt lat="44.99537" lon="5.22605">
        <ele>1283.5</ele>
        <time>2018-12-05T11:55:17Z</time>
      </trkpt>
      <trkpt lat="44.99545" lon="5.22607">
        <ele>1285.33</ele>
        <time>2018-12-05T11:55:33Z</time>
      </trkpt>
      <trkpt lat="44.9955" lon="5.22607">
        <ele>1285.6</ele>
        <time>2018-12-05T11:55:49Z</time>
      </trkpt>
      <trkpt lat="44.99552" lon="5.22607">
        <ele>1285.61</ele>
        <time>2018-12-05T11:56:04Z</time>
      </trkpt>
      <trkpt lat="44.99551" lon="5.22608">
        <ele>1285.01</ele>
        <time>2018-12-05T11:56:15Z</time>
      </trkpt>
      <trkpt lat="44.99554" lon="5.2261">
        <ele>1284.81</ele>
        <time>2018-12-05T11:56:22Z</time>
      </trkpt>
      <trkpt lat="44.99556" lon="5.22611">
        <ele>1284.8</ele>
        <time>2018-12-05T11:56:33Z</time>
      </trkpt>
      <trkpt lat="44.99558" lon="5.22615">
        <ele>1284.46</ele>
        <time>2018-12-05T11:56:57Z</time>
      </trkpt>
      <trkpt lat="44.99558" lon="5.22616">
        <ele>1284.94</ele>
        <time>2018-12-05T11:57:23Z</time>
      </trkpt>
      <trkpt lat="44.99558" lon="5.22616">
        <ele>1285</ele>
        <time>2018-12-05T11:57:57Z</time>
      </trkpt>
      <trkpt lat="44.99557" lon="5.22617">
        <ele>1285.15</ele>
        <time>2018-12-05T11:58:31Z</time>
      </trkpt>
      <trkpt lat="44.99557" lon="5.22617">
        <ele>1284.96</ele>
        <time>2018-12-05T11:58:55Z</time>
      </trkpt>
      <trkpt lat="44.99558" lon="5.22617">
        <ele>1285.07</ele>
        <time>2018-12-05T11:59:45Z</time>
      </trkpt>
      <trkpt lat="44.99558" lon="5.22617">
        <ele>1285.22</ele>
        <time>2018-12-05T12:00:23Z</time>
      </trkpt>
      <trkpt lat="44.99558" lon="5.22617">
        <ele>1285.33</ele>
        <time>2018-12-05T12:01:08Z</time>
      </trkpt>
      <trkpt lat="44.99558" lon="5.22618">
        <ele>1285.54</ele>
        <time>2018-12-05T12:01:55Z</time>
      </trkpt>
      <trkpt lat="44.99558" lon="5.22617">
        <ele>1285.31</ele>
        <time>2018-12-05T12:02:40Z</time>
      </trkpt>
      <trkpt lat="44.99558" lon="5.22617">
        <ele>1285.22</ele>
        <time>2018-12-05T12:03:20Z</time>
      </trkpt>
      <trkpt lat="44.99557" lon="5.22618">
        <ele>1285.35</ele>
        <time>2018-12-05T12:04:05Z</time>
      </trkpt>
      <trkpt lat="44.99557" lon="5.22618">
        <ele>1285.28</ele>
        <time>2018-12-05T12:04:47Z</time>
      </trkpt>
      <trkpt lat="44.99558" lon="5.22618">
        <ele>1285.58</ele>
        <time>2018-12-05T12:05:26Z</time>
      </trkpt>
      <trkpt lat="44.99558" lon="5.22617">
        <ele>1285.64</ele>
        <time>2018-12-05T12:06:08Z</time>
      </trkpt>
      <trkpt lat="44.99557" lon="5.22617">
        <ele>1285.07</ele>
        <time>2018-12-05T12:06:52Z</time>
      </trkpt>
      <trkpt lat="44.99558" lon="5.22618">
        <ele>1285.81</ele>
        <time>2018-12-05T12:07:37Z</time>
      </trkpt>
      <trkpt lat="44.99558" lon="5.22618">
        <ele>1285.56</ele>
        <time>2018-12-05T12:08:24Z</time>
      </trkpt>
      <trkpt lat="44.99558" lon="5.22617">
        <ele>1285.69</ele>
        <time>2018-12-05T12:09:10Z</time>
      </trkpt>
      <trkpt lat="44.99558" lon="5.22617">
        <ele>1285.61</ele>
        <time>2018-12-05T12:09:52Z</time>
      </trkpt>
      <trkpt lat="44.99558" lon="5.22617">
        <ele>1285.5</ele>
        <time>2018-12-05T12:10:37Z</time>
      </trkpt>
      <trkpt lat="44.99557" lon="5.22617">
        <ele>1285.4</ele>
        <time>2018-12-05T12:11:18Z</time>
      </trkpt>
      <trkpt lat="44.99557" lon="5.22618">
        <ele>1285.6</ele>
        <time>2018-12-05T12:12:02Z</time>
      </trkpt>
      <trkpt lat="44.99557" lon="5.22619">
        <ele>1285.65</ele>
        <time>2018-12-05T12:12:46Z</time>
      </trkpt>
      <trkpt lat="44.99557" lon="5.22618">
        <ele>1286.13</ele>
        <time>2018-12-05T12:13:31Z</time>
      </trkpt>
      <trkpt lat="44.99558" lon="5.22619">
        <ele>1286.17</ele>
        <time>2018-12-05T12:14:18Z</time>
      </trkpt>
      <trkpt lat="44.99557" lon="5.22619">
        <ele>1285.97</ele>
        <time>2018-12-05T12:15:00Z</time>
      </trkpt>
      <trkpt lat="44.99558" lon="5.22618">
        <ele>1285.83</ele>
        <time>2018-12-05T12:15:38Z</time>
      </trkpt>
      <trkpt lat="44.99558" lon="5.22618">
        <ele>1285.65</ele>
        <time>2018-12-05T12:16:19Z</time>
      </trkpt>
      <trkpt lat="44.99557" lon="5.22618">
        <ele>1285.82</ele>
        <time>2018-12-05T12:16:57Z</time>
      </trkpt>
      <trkpt lat="44.99558" lon="5.22618">
        <ele>1285.72</ele>
        <time>2018-12-05T12:17:35Z</time>
      </trkpt>
      <trkpt lat="44.99558" lon="5.22618">
        <ele>1285.78</ele>
        <time>2018-12-05T12:18:28Z</time>
      </trkpt>
      <trkpt lat="44.99558" lon="5.22617">
        <ele>1285.63</ele>
        <time>2018-12-05T12:19:21Z</time>
      </trkpt>
      <trkpt lat="44.99557" lon="5.22618">
        <ele>1285.27</ele>
        <time>2018-12-05T12:20:04Z</time>
      </trkpt>
      <trkpt lat="44.99557" lon="5.22619">
        <ele>1284.86</ele>
        <time>2018-12-05T12:20:47Z</time>
      </trkpt>
      <trkpt lat="44.99556" lon="5.22619">
        <ele>1285.39</ele>
        <time>2018-12-05T12:21:30Z</time>
      </trkpt>
      <trkpt lat="44.99557" lon="5.2262">
        <ele>1285.41</ele>
        <time>2018-12-05T12:22:15Z</time>
      </trkpt>
      <trkpt lat="44.99557" lon="5.2262">
        <ele>1285.06</ele>
        <time>2018-12-05T12:23:02Z</time>
      </trkpt>
      <trkpt lat="44.99557" lon="5.22618">
        <ele>1285.7</ele>
        <time>2018-12-05T12:23:41Z</time>
      </trkpt>
      <trkpt lat="44.99557" lon="5.22618">
        <ele>1285.92</ele>
        <time>2018-12-05T12:24:24Z</time>
      </trkpt>
      <trkpt lat="44.99557" lon="5.22617">
        <ele>1285.97</ele>
        <time>2018-12-05T12:25:09Z</time>
      </trkpt>
      <trkpt lat="44.99556" lon="5.22617">
        <ele>1286.19</ele>
        <time>2018-12-05T12:25:52Z</time>
      </trkpt>
      <trkpt lat="44.99556" lon="5.22616">
        <ele>1286.21</ele>
        <time>2018-12-05T12:26:15Z</time>
      </trkpt>
      <trkpt lat="44.99557" lon="5.22617">
        <ele>1286.14</ele>
        <time>2018-12-05T12:26:40Z</time>
      </trkpt>
      <trkpt lat="44.99557" lon="5.22617">
        <ele>1286.27</ele>
        <time>2018-12-05T12:27:11Z</time>
      </trkpt>
      <trkpt lat="44.99559" lon="5.22616">
        <ele>1286.37</ele>
        <time>2018-12-05T12:27:43Z</time>
      </trkpt>
      <trkpt lat="44.9956" lon="5.22615">
        <ele>1286.39</ele>
        <time>2018-12-05T12:28:23Z</time>
      </trkpt>
      <trkpt lat="44.99559" lon="5.22614">
        <ele>1286.81</ele>
        <time>2018-12-05T12:28:57Z</time>
      </trkpt>
      <trkpt lat="44.99559" lon="5.22614">
        <ele>1286.74</ele>
        <time>2018-12-05T12:29:34Z</time>
      </trkpt>
      <trkpt lat="44.99559" lon="5.22614">
        <ele>1287.18</ele>
        <time>2018-12-05T12:30:15Z</time>
      </trkpt>
      <trkpt lat="44.99559" lon="5.22615">
        <ele>1288.43</ele>
        <time>2018-12-05T12:30:50Z</time>
      </trkpt>
      <trkpt lat="44.99557" lon="5.22615">
        <ele>1287.88</ele>
        <time>2018-12-05T12:31:30Z</time>
      </trkpt>
      <trkpt lat="44.99557" lon="5.22615">
        <ele>1287.9</ele>
        <time>2018-12-05T12:32:24Z</time>
      </trkpt>
      <trkpt lat="44.99557" lon="5.22616">
        <ele>1288.4</ele>
        <time>2018-12-05T12:33:18Z</time>
      </trkpt>
      <trkpt lat="44.99557" lon="5.22616">
        <ele>1288.71</ele>
        <time>2018-12-05T12:34:12Z</time>
      </trkpt>
      <trkpt lat="44.99558" lon="5.22616">
        <ele>1288.57</ele>
        <time>2018-12-05T12:35:17Z</time>
      </trkpt>
      <trkpt lat="44.99558" lon="5.22616">
        <ele>1288.96</ele>
        <time>2018-12-05T12:36:03Z</time>
      </trkpt>
      <trkpt lat="44.99559" lon="5.22616">
        <ele>1288.64</ele>
        <time>2018-12-05T12:36:55Z</time>
      </trkpt>
      <trkpt lat="44.99558" lon="5.22615">
        <ele>1289</ele>
        <time>2018-12-05T12:37:26Z</time>
      </trkpt>
      <trkpt lat="44.99559" lon="5.22614">
        <ele>1289.14</ele>
        <time>2018-12-05T12:37:55Z</time>
      </trkpt>
      <trkpt lat="44.99559" lon="5.22613">
        <ele>1289.22</ele>
        <time>2018-12-05T12:38:24Z</time>
      </trkpt>
      <trkpt lat="44.99559" lon="5.22613">
        <ele>1289.18</ele>
        <time>2018-12-05T12:38:54Z</time>
      </trkpt>
      <trkpt lat="44.99558" lon="5.22612">
        <ele>1289.14</ele>
        <time>2018-12-05T12:39:39Z</time>
      </trkpt>
      <trkpt lat="44.99557" lon="5.22613">
        <ele>1289.05</ele>
        <time>2018-12-05T12:40:17Z</time>
      </trkpt>
      <trkpt lat="44.99557" lon="5.22613">
        <ele>1289.99</ele>
        <time>2018-12-05T12:41:00Z</time>
      </trkpt>
      <trkpt lat="44.99556" lon="5.22613">
        <ele>1289.89</ele>
        <time>2018-12-05T12:41:15Z</time>
      </trkpt>
      <trkpt lat="44.99557" lon="5.22613">
        <ele>1290.13</ele>
        <time>2018-12-05T12:41:37Z</time>
      </trkpt>
      <trkpt lat="44.99554" lon="5.22614">
        <ele>1289.9</ele>
        <time>2018-12-05T12:41:51Z</time>
      </trkpt>
      <trkpt lat="44.99555" lon="5.22613">
        <ele>1289.96</ele>
        <time>2018-12-05T12:42:09Z</time>
      </trkpt>
      <trkpt lat="44.99554" lon="5.22613">
        <ele>1290.09</ele>
        <time>2018-12-05T12:42:30Z</time>
      </trkpt>
      <trkpt lat="44.99556" lon="5.22613">
        <ele>1290.25</ele>
        <time>2018-12-05T12:42:55Z</time>
      </trkpt>
      <trkpt lat="44.99554" lon="5.22613">
        <ele>1290.23</ele>
        <time>2018-12-05T12:43:09Z</time>
      </trkpt>
      <trkpt lat="44.99554" lon="5.22614">
        <ele>1290.18</ele>
        <time>2018-12-05T12:43:29Z</time>
      </trkpt>
      <trkpt lat="44.99554" lon="5.22614">
        <ele>1288.73</ele>
        <time>2018-12-05T12:43:46Z</time>
      </trkpt>
      <trkpt lat="44.99554" lon="5.22614">
        <ele>1290.12</ele>
        <time>2018-12-05T12:43:50Z</time>
      </trkpt>
      <trkpt lat="44.99554" lon="5.22615">
        <ele>1290.32</ele>
        <time>2018-12-05T12:44:21Z</time>
      </trkpt>
      <trkpt lat="44.99555" lon="5.22615">
        <ele>1289.99</ele>
        <time>2018-12-05T12:44:39Z</time>
      </trkpt>
      <trkpt lat="44.99555" lon="5.22613">
        <ele>1289.95</ele>
        <time>2018-12-05T12:45:02Z</time>
      </trkpt>
      <trkpt lat="44.99555" lon="5.22612">
        <ele>1290.09</ele>
        <time>2018-12-05T12:45:32Z</time>
      </trkpt>
      <trkpt lat="44.99555" lon="5.22613">
        <ele>1290.34</ele>
        <time>2018-12-05T12:45:58Z</time>
      </trkpt>
      <trkpt lat="44.99556" lon="5.22612">
        <ele>1289.58</ele>
        <time>2018-12-05T12:46:31Z</time>
      </trkpt>
      <trkpt lat="44.99555" lon="5.22612">
        <ele>1289.66</ele>
        <time>2018-12-05T12:46:59Z</time>
      </trkpt>
      <trkpt lat="44.99557" lon="5.22613">
        <ele>1290.04</ele>
        <time>2018-12-05T12:47:20Z</time>
      </trkpt>
      <trkpt lat="44.99561" lon="5.22613">
        <ele>1290.29</ele>
        <time>2018-12-05T12:47:37Z</time>
      </trkpt>
      <trkpt lat="44.99564" lon="5.22625">
        <ele>1289.39</ele>
        <time>2018-12-05T12:47:49Z</time>
      </trkpt>
      <trkpt lat="44.99571" lon="5.22635">
        <ele>1287.67</ele>
        <time>2018-12-05T12:48:03Z</time>
      </trkpt>
      <trkpt lat="44.99579" lon="5.22646">
        <ele>1286.54</ele>
        <time>2018-12-05T12:48:17Z</time>
      </trkpt>
      <trkpt lat="44.99585" lon="5.22645">
        <ele>1288.1</ele>
        <time>2018-12-05T12:48:27Z</time>
      </trkpt>
      <trkpt lat="44.99592" lon="5.22651">
        <ele>1287.52</ele>
        <time>2018-12-05T12:48:39Z</time>
      </trkpt>
      <trkpt lat="44.99601" lon="5.22647">
        <ele>1289.47</ele>
        <time>2018-12-05T12:48:55Z</time>
      </trkpt>
      <trkpt lat="44.99608" lon="5.22647">
        <ele>1290.32</ele>
        <time>2018-12-05T12:49:11Z</time>
      </trkpt>
      <trkpt lat="44.99617" lon="5.22648">
        <ele>1290.25</ele>
        <time>2018-12-05T12:49:26Z</time>
      </trkpt>
      <trkpt lat="44.99624" lon="5.22643">
        <ele>1292.01</ele>
        <time>2018-12-05T12:49:43Z</time>
      </trkpt>
      <trkpt lat="44.99632" lon="5.2264">
        <ele>1294.1</ele>
        <time>2018-12-05T12:49:57Z</time>
      </trkpt>
      <trkpt lat="44.99638" lon="5.22641">
        <ele>1293.02</ele>
        <time>2018-12-05T12:50:06Z</time>
      </trkpt>
      <trkpt lat="44.99645" lon="5.22644">
        <ele>1291.61</ele>
        <time>2018-12-05T12:50:17Z</time>
      </trkpt>
      <trkpt lat="44.9965" lon="5.22648">
        <ele>1290.1</ele>
        <time>2018-12-05T12:50:30Z</time>
      </trkpt>
      <trkpt lat="44.99652" lon="5.2265">
        <ele>1289.57</ele>
        <time>2018-12-05T12:50:35Z</time>
      </trkpt>
      <trkpt lat="44.99657" lon="5.22659">
        <ele>1287.45</ele>
        <time>2018-12-05T12:50:47Z</time>
      </trkpt>
      <trkpt lat="44.99667" lon="5.22667">
        <ele>1285.08</ele>
        <time>2018-12-05T12:51:00Z</time>
      </trkpt>
      <trkpt lat="44.99676" lon="5.22663">
        <ele>1283.82</ele>
        <time>2018-12-05T12:51:16Z</time>
      </trkpt>
      <trkpt lat="44.99685" lon="5.2266">
        <ele>1283.19</ele>
        <time>2018-12-05T12:51:31Z</time>
      </trkpt>
      <trkpt lat="44.99693" lon="5.22654">
        <ele>1284.93</ele>
        <time>2018-12-05T12:51:48Z</time>
      </trkpt>
      <trkpt lat="44.99706" lon="5.22646">
        <ele>1284.43</ele>
        <time>2018-12-05T12:52:03Z</time>
      </trkpt>
      <trkpt lat="44.99717" lon="5.22647">
        <ele>1282.82</ele>
        <time>2018-12-05T12:52:16Z</time>
      </trkpt>
      <trkpt lat="44.99727" lon="5.2265">
        <ele>1282.73</ele>
        <time>2018-12-05T12:52:34Z</time>
      </trkpt>
      <trkpt lat="44.99737" lon="5.22656">
        <ele>1281.88</ele>
        <time>2018-12-05T12:52:47Z</time>
      </trkpt>
      <trkpt lat="44.99745" lon="5.22656">
        <ele>1282.43</ele>
        <time>2018-12-05T12:53:00Z</time>
      </trkpt>
      <trkpt lat="44.99755" lon="5.22654">
        <ele>1282.57</ele>
        <time>2018-12-05T12:53:14Z</time>
      </trkpt>
      <trkpt lat="44.99765" lon="5.22655">
        <ele>1282.65</ele>
        <time>2018-12-05T12:53:27Z</time>
      </trkpt>
      <trkpt lat="44.99776" lon="5.22654">
        <ele>1284.25</ele>
        <time>2018-12-05T12:53:43Z</time>
      </trkpt>
      <trkpt lat="44.99786" lon="5.2265">
        <ele>1284.12</ele>
        <time>2018-12-05T12:53:58Z</time>
      </trkpt>
      <trkpt lat="44.99796" lon="5.22652">
        <ele>1284.31</ele>
        <time>2018-12-05T12:54:13Z</time>
      </trkpt>
      <trkpt lat="44.99804" lon="5.22651">
        <ele>1284.47</ele>
        <time>2018-12-05T12:54:27Z</time>
      </trkpt>
      <trkpt lat="44.99817" lon="5.22651">
        <ele>1284.61</ele>
        <time>2018-12-05T12:54:41Z</time>
      </trkpt>
      <trkpt lat="44.99827" lon="5.22653">
        <ele>1284.94</ele>
        <time>2018-12-05T12:54:54Z</time>
      </trkpt>
      <trkpt lat="44.99839" lon="5.22657">
        <ele>1283.34</ele>
        <time>2018-12-05T12:55:07Z</time>
      </trkpt>
      <trkpt lat="44.9985" lon="5.22661">
        <ele>1281.97</ele>
        <time>2018-12-05T12:55:20Z</time>
      </trkpt>
      <trkpt lat="44.99861" lon="5.22661">
        <ele>1282.08</ele>
        <time>2018-12-05T12:55:32Z</time>
      </trkpt>
      <trkpt lat="44.99862" lon="5.22661">
        <ele>1282.02</ele>
        <time>2018-12-05T12:55:33Z</time>
      </trkpt>
      <trkpt lat="44.99875" lon="5.22656">
        <ele>1281.98</ele>
        <time>2018-12-05T12:55:47Z</time>
      </trkpt>
      <trkpt lat="44.99884" lon="5.22656">
        <ele>1282.16</ele>
        <time>2018-12-05T12:55:58Z</time>
      </trkpt>
      <trkpt lat="44.99891" lon="5.22649">
        <ele>1282.75</ele>
        <time>2018-12-05T12:56:10Z</time>
      </trkpt>
      <trkpt lat="44.99893" lon="5.22648">
        <ele>1282.51</ele>
        <time>2018-12-05T12:56:14Z</time>
      </trkpt>
      <trkpt lat="44.99898" lon="5.2265">
        <ele>1282.27</ele>
        <time>2018-12-05T12:56:20Z</time>
      </trkpt>
      <trkpt lat="44.99908" lon="5.22655">
        <ele>1280.06</ele>
        <time>2018-12-05T12:56:32Z</time>
      </trkpt>
      <trkpt lat="44.99917" lon="5.2266">
        <ele>1278.81</ele>
        <time>2018-12-05T12:56:45Z</time>
      </trkpt>
      <trkpt lat="44.99925" lon="5.22666">
        <ele>1276.75</ele>
        <time>2018-12-05T12:57:00Z</time>
      </trkpt>
      <trkpt lat="44.99934" lon="5.2267">
        <ele>1274.87</ele>
        <time>2018-12-05T12:57:14Z</time>
      </trkpt>
      <trkpt lat="44.99947" lon="5.22669">
        <ele>1272.19</ele>
        <time>2018-12-05T12:57:31Z</time>
      </trkpt>
      <trkpt lat="44.99961" lon="5.22668">
        <ele>1272.11</ele>
        <time>2018-12-05T12:57:48Z</time>
      </trkpt>
      <trkpt lat="44.99972" lon="5.22672">
        <ele>1271.69</ele>
        <time>2018-12-05T12:58:03Z</time>
      </trkpt>
      <trkpt lat="44.99985" lon="5.22679">
        <ele>1271.62</ele>
        <time>2018-12-05T12:58:18Z</time>
      </trkpt>
      <trkpt lat="44.99989" lon="5.22682">
        <ele>1270.72</ele>
        <time>2018-12-05T12:58:36Z</time>
      </trkpt>
      <trkpt lat="44.9999" lon="5.22682">
        <ele>1270.59</ele>
        <time>2018-12-05T12:58:53Z</time>
      </trkpt>
      <trkpt lat="44.99993" lon="5.22681">
        <ele>1269.5</ele>
        <time>2018-12-05T12:59:09Z</time>
      </trkpt>
      <trkpt lat="44.99997" lon="5.22678">
        <ele>1266.74</ele>
        <time>2018-12-05T12:59:25Z</time>
      </trkpt>
      <trkpt lat="44.99996" lon="5.22671">
        <ele>1263.86</ele>
        <time>2018-12-05T12:59:41Z</time>
      </trkpt>
      <trkpt lat="44.99995" lon="5.22663">
        <ele>1261.39</ele>
        <time>2018-12-05T12:59:58Z</time>
      </trkpt>
      <trkpt lat="44.99991" lon="5.22656">
        <ele>1258.65</ele>
        <time>2018-12-05T13:00:14Z</time>
      </trkpt>
      <trkpt lat="44.99994" lon="5.22648">
        <ele>1255.59</ele>
        <time>2018-12-05T13:00:26Z</time>
      </trkpt>
      <trkpt lat="44.99996" lon="5.22637">
        <ele>1252.5</ele>
        <time>2018-12-05T13:00:40Z</time>
      </trkpt>
      <trkpt lat="44.99993" lon="5.22627">
        <ele>1249.92</ele>
        <time>2018-12-05T13:00:54Z</time>
      </trkpt>
      <trkpt lat="44.99989" lon="5.22619">
        <ele>1246.84</ele>
        <time>2018-12-05T13:01:11Z</time>
      </trkpt>
      <trkpt lat="44.99986" lon="5.22608">
        <ele>1244.12</ele>
        <time>2018-12-05T13:01:25Z</time>
      </trkpt>
      <trkpt lat="44.99982" lon="5.22598">
        <ele>1241.17</ele>
        <time>2018-12-05T13:01:42Z</time>
      </trkpt>
      <trkpt lat="44.99981" lon="5.22591">
        <ele>1238.7</ele>
        <time>2018-12-05T13:01:56Z</time>
      </trkpt>
      <trkpt lat="44.99979" lon="5.2258">
        <ele>1235.5</ele>
        <time>2018-12-05T13:02:08Z</time>
      </trkpt>
      <trkpt lat="44.99979" lon="5.22575">
        <ele>1234.01</ele>
        <time>2018-12-05T13:02:23Z</time>
      </trkpt>
      <trkpt lat="44.99982" lon="5.22565">
        <ele>1230.86</ele>
        <time>2018-12-05T13:02:37Z</time>
      </trkpt>
      <trkpt lat="44.99987" lon="5.22555">
        <ele>1227.38</ele>
        <time>2018-12-05T13:02:50Z</time>
      </trkpt>
      <trkpt lat="44.99989" lon="5.22551">
        <ele>1226.5</ele>
        <time>2018-12-05T13:02:52Z</time>
      </trkpt>
      <trkpt lat="44.99991" lon="5.22535">
        <ele>1222.74</ele>
        <time>2018-12-05T13:03:00Z</time>
      </trkpt>
      <trkpt lat="44.99994" lon="5.22529">
        <ele>1221.38</ele>
        <time>2018-12-05T13:03:03Z</time>
      </trkpt>
      <trkpt lat="44.99995" lon="5.22525">
        <ele>1220.01</ele>
        <time>2018-12-05T13:03:06Z</time>
      </trkpt>
      <trkpt lat="45" lon="5.22514">
        <ele>1216.75</ele>
        <time>2018-12-05T13:03:13Z</time>
      </trkpt>
      <trkpt lat="45.00005" lon="5.22506">
        <ele>1213.34</ele>
        <time>2018-12-05T13:03:20Z</time>
      </trkpt>
      <trkpt lat="45.00005" lon="5.22504">
        <ele>1213.06</ele>
        <time>2018-12-05T13:03:21Z</time>
      </trkpt>
      <trkpt lat="45.00009" lon="5.22497">
        <ele>1210.03</ele>
        <time>2018-12-05T13:03:26Z</time>
      </trkpt>
      <trkpt lat="45.0001" lon="5.22496">
        <ele>1209.45</ele>
        <time>2018-12-05T13:03:27Z</time>
      </trkpt>
      <trkpt lat="45.00011" lon="5.22493">
        <ele>1207.91</ele>
        <time>2018-12-05T13:03:32Z</time>
      </trkpt>
      <trkpt lat="45.00013" lon="5.22492">
        <ele>1207.34</ele>
        <time>2018-12-05T13:03:43Z</time>
      </trkpt>
      <trkpt lat="45.00011" lon="5.22494">
        <ele>1206.78</ele>
        <time>2018-12-05T13:04:09Z</time>
      </trkpt>
      <trkpt lat="45.00012" lon="5.22494">
        <ele>1206.8</ele>
        <time>2018-12-05T13:04:20Z</time>
      </trkpt>
      <trkpt lat="45.00013" lon="5.22497">
        <ele>1206.81</ele>
        <time>2018-12-05T13:05:09Z</time>
      </trkpt>
      <trkpt lat="45.00013" lon="5.22496">
        <ele>1207.32</ele>
        <time>2018-12-05T13:05:25Z</time>
      </trkpt>
      <trkpt lat="45.00013" lon="5.22496">
        <ele>1207.61</ele>
        <time>2018-12-05T13:05:47Z</time>
      </trkpt>
      <trkpt lat="45.00011" lon="5.22493">
        <ele>1207.63</ele>
        <time>2018-12-05T13:06:11Z</time>
      </trkpt>
      <trkpt lat="45.00012" lon="5.2249">
        <ele>1207.44</ele>
        <time>2018-12-05T13:06:38Z</time>
      </trkpt>
      <trkpt lat="45.00011" lon="5.22493">
        <ele>1207.62</ele>
        <time>2018-12-05T13:07:02Z</time>
      </trkpt>
      <trkpt lat="45.00011" lon="5.22495">
        <ele>1207.76</ele>
        <time>2018-12-05T13:07:24Z</time>
      </trkpt>
      <trkpt lat="45.00013" lon="5.22494">
        <ele>1207.31</ele>
        <time>2018-12-05T13:07:42Z</time>
      </trkpt>
      <trkpt lat="45.00013" lon="5.22493">
        <ele>1207.33</ele>
        <time>2018-12-05T13:08:07Z</time>
      </trkpt>
      <trkpt lat="45.00013" lon="5.22493">
        <ele>1207.09</ele>
        <time>2018-12-05T13:08:32Z</time>
      </trkpt>
      <trkpt lat="45.00013" lon="5.22493">
        <ele>1207.27</ele>
        <time>2018-12-05T13:08:50Z</time>
      </trkpt>
      <trkpt lat="45.00019" lon="5.2249">
        <ele>1205.45</ele>
        <time>2018-12-05T13:08:55Z</time>
      </trkpt>
      <trkpt lat="45.00027" lon="5.22482">
        <ele>1201.79</ele>
        <time>2018-12-05T13:09:03Z</time>
      </trkpt>
      <trkpt lat="45.00029" lon="5.22479">
        <ele>1200.61</ele>
        <time>2018-12-05T13:09:06Z</time>
      </trkpt>
      <trkpt lat="45.00034" lon="5.22472">
        <ele>1198.28</ele>
        <time>2018-12-05T13:09:15Z</time>
      </trkpt>
      <trkpt lat="45.00037" lon="5.22469">
        <ele>1196.85</ele>
        <time>2018-12-05T13:09:18Z</time>
      </trkpt>
      <trkpt lat="45.0004" lon="5.22467">
        <ele>1195.74</ele>
        <time>2018-12-05T13:09:21Z</time>
      </trkpt>
      <trkpt lat="45.00044" lon="5.22459">
        <ele>1192.18</ele>
        <time>2018-12-05T13:09:28Z</time>
      </trkpt>
      <trkpt lat="45.00044" lon="5.22458">
        <ele>1193.44</ele>
        <time>2018-12-05T13:09:34Z</time>
      </trkpt>
      <trkpt lat="45.00048" lon="5.22452">
        <ele>1191.16</ele>
        <time>2018-12-05T13:09:39Z</time>
      </trkpt>
      <trkpt lat="45.00055" lon="5.22443">
        <ele>1188.02</ele>
        <time>2018-12-05T13:09:48Z</time>
      </trkpt>
      <trkpt lat="45.00056" lon="5.22441">
        <ele>1186.84</ele>
        <time>2018-12-05T13:09:50Z</time>
      </trkpt>
      <trkpt lat="45.00065" lon="5.22432">
        <ele>1183.32</ele>
        <time>2018-12-05T13:10:00Z</time>
      </trkpt>
      <trkpt lat="45.00072" lon="5.22421">
        <ele>1179.96</ele>
        <time>2018-12-05T13:10:09Z</time>
      </trkpt>
      <trkpt lat="45.00072" lon="5.22419">
        <ele>1179.32</ele>
        <time>2018-12-05T13:10:11Z</time>
      </trkpt>
      <trkpt lat="45.00073" lon="5.22413">
        <ele>1177.9</ele>
        <time>2018-12-05T13:10:16Z</time>
      </trkpt>
      <trkpt lat="45.0008" lon="5.22402">
        <ele>1174.81</ele>
        <time>2018-12-05T13:10:26Z</time>
      </trkpt>
      <trkpt lat="45.0008" lon="5.22401">
        <ele>1174.55</ele>
        <time>2018-12-05T13:10:27Z</time>
      </trkpt>
      <trkpt lat="45.00085" lon="5.22389">
        <ele>1171.06</ele>
        <time>2018-12-05T13:10:38Z</time>
      </trkpt>
      <trkpt lat="45.00088" lon="5.22386">
        <ele>1170.28</ele>
        <time>2018-12-05T13:10:42Z</time>
      </trkpt>
      <trkpt lat="45.00092" lon="5.22372">
        <ele>1167.95</ele>
        <time>2018-12-05T13:10:53Z</time>
      </trkpt>
      <trkpt lat="45.00097" lon="5.22362">
        <ele>1165.74</ele>
        <time>2018-12-05T13:11:03Z</time>
      </trkpt>
      <trkpt lat="45.00098" lon="5.22359">
        <ele>1165.02</ele>
        <time>2018-12-05T13:11:06Z</time>
      </trkpt>
      <trkpt lat="45.00101" lon="5.22353">
        <ele>1163.41</ele>
        <time>2018-12-05T13:11:11Z</time>
      </trkpt>
      <trkpt lat="45.00103" lon="5.22348">
        <ele>1162.71</ele>
        <time>2018-12-05T13:11:15Z</time>
      </trkpt>
      <trkpt lat="45.00107" lon="5.22331">
        <ele>1160.23</ele>
        <time>2018-12-05T13:11:27Z</time>
      </trkpt>
      <trkpt lat="45.0011" lon="5.22317">
        <ele>1158</ele>
        <time>2018-12-05T13:11:38Z</time>
      </trkpt>
      <trkpt lat="45.00111" lon="5.22308">
        <ele>1157.01</ele>
        <time>2018-12-05T13:11:45Z</time>
      </trkpt>
      <trkpt lat="45.00117" lon="5.2229">
        <ele>1154.24</ele>
        <time>2018-12-05T13:11:58Z</time>
      </trkpt>
      <trkpt lat="45.00122" lon="5.22278">
        <ele>1151.84</ele>
        <time>2018-12-05T13:12:08Z</time>
      </trkpt>
      <trkpt lat="45.00128" lon="5.22264">
        <ele>1149.27</ele>
        <time>2018-12-05T13:12:20Z</time>
      </trkpt>
      <trkpt lat="45.00133" lon="5.22246">
        <ele>1146.93</ele>
        <time>2018-12-05T13:12:32Z</time>
      </trkpt>
      <trkpt lat="45.00136" lon="5.22238">
        <ele>1145.01</ele>
        <time>2018-12-05T13:12:40Z</time>
      </trkpt>
      <trkpt lat="45.00136" lon="5.22233">
        <ele>1144.7</ele>
        <time>2018-12-05T13:12:44Z</time>
      </trkpt>
      <trkpt lat="45.00135" lon="5.22225">
        <ele>1143.48</ele>
        <time>2018-12-05T13:12:50Z</time>
      </trkpt>
      <trkpt lat="45.00137" lon="5.22213">
        <ele>1142.29</ele>
        <time>2018-12-05T13:12:58Z</time>
      </trkpt>
      <trkpt lat="45.00138" lon="5.22196">
        <ele>1140.77</ele>
        <time>2018-12-05T13:13:09Z</time>
      </trkpt>
      <trkpt lat="45.00139" lon="5.22179">
        <ele>1139.74</ele>
        <time>2018-12-05T13:13:20Z</time>
      </trkpt>
      <trkpt lat="45.00142" lon="5.22161">
        <ele>1139.19</ele>
        <time>2018-12-05T13:13:31Z</time>
      </trkpt>
      <trkpt lat="45.00142" lon="5.22157">
        <ele>1139.07</ele>
        <time>2018-12-05T13:13:34Z</time>
      </trkpt>
      <trkpt lat="45.00145" lon="5.22144">
        <ele>1138.97</ele>
        <time>2018-12-05T13:13:47Z</time>
      </trkpt>
      <trkpt lat="45.00146" lon="5.22144">
        <ele>1139.05</ele>
        <time>2018-12-05T13:14:12Z</time>
      </trkpt>
      <trkpt lat="45.00146" lon="5.22146">
        <ele>1138.6</ele>
        <time>2018-12-05T13:14:33Z</time>
      </trkpt>
      <trkpt lat="45.00147" lon="5.22144">
        <ele>1138.5</ele>
        <time>2018-12-05T13:14:54Z</time>
      </trkpt>
      <trkpt lat="45.00148" lon="5.22142">
        <ele>1138.47</ele>
        <time>2018-12-05T13:15:32Z</time>
      </trkpt>
      <trkpt lat="45.00147" lon="5.2214">
        <ele>1138.73</ele>
        <time>2018-12-05T13:16:01Z</time>
      </trkpt>
      <trkpt lat="45.00147" lon="5.22138">
        <ele>1137.97</ele>
        <time>2018-12-05T13:16:19Z</time>
      </trkpt>
      <trkpt lat="45.00151" lon="5.22129">
        <ele>1136.69</ele>
        <time>2018-12-05T13:16:34Z</time>
      </trkpt>
      <trkpt lat="45.00154" lon="5.2211">
        <ele>1137.06</ele>
        <time>2018-12-05T13:16:51Z</time>
      </trkpt>
      <trkpt lat="45.00159" lon="5.2209">
        <ele>1136.09</ele>
        <time>2018-12-05T13:17:07Z</time>
      </trkpt>
      <trkpt lat="45.00167" lon="5.22079">
        <ele>1133.69</ele>
        <time>2018-12-05T13:17:21Z</time>
      </trkpt>
      <trkpt lat="45.00175" lon="5.22062">
        <ele>1133.83</ele>
        <time>2018-12-05T13:17:35Z</time>
      </trkpt>
      <trkpt lat="45.00181" lon="5.22051">
        <ele>1132.72</ele>
        <time>2018-12-05T13:17:44Z</time>
      </trkpt>
      <trkpt lat="45.00187" lon="5.22042">
        <ele>1131.61</ele>
        <time>2018-12-05T13:17:51Z</time>
      </trkpt>
      <trkpt lat="45.00187" lon="5.22025">
        <ele>1131.68</ele>
        <time>2018-12-05T13:18:02Z</time>
      </trkpt>
      <trkpt lat="45.00186" lon="5.2202">
        <ele>1131.75</ele>
        <time>2018-12-05T13:18:05Z</time>
      </trkpt>
      <trkpt lat="45.0018" lon="5.22004">
        <ele>1131.33</ele>
        <time>2018-12-05T13:18:16Z</time>
      </trkpt>
      <trkpt lat="45.00177" lon="5.21984">
        <ele>1131.29</ele>
        <time>2018-12-05T13:18:32Z</time>
      </trkpt>
      <trkpt lat="45.00174" lon="5.21975">
        <ele>1131.71</ele>
        <time>2018-12-05T13:18:40Z</time>
      </trkpt>
      <trkpt lat="45.00171" lon="5.21967">
        <ele>1132.37</ele>
        <time>2018-12-05T13:18:46Z</time>
      </trkpt>
      <trkpt lat="45.0016" lon="5.21939">
        <ele>1133.34</ele>
        <time>2018-12-05T13:19:05Z</time>
      </trkpt>
      <trkpt lat="45.00157" lon="5.21924">
        <ele>1134.14</ele>
        <time>2018-12-05T13:19:18Z</time>
      </trkpt>
      <trkpt lat="45.0016" lon="5.21899">
        <ele>1134.23</ele>
        <time>2018-12-05T13:19:33Z</time>
      </trkpt>
      <trkpt lat="45.00156" lon="5.21874">
        <ele>1133.7</ele>
        <time>2018-12-05T13:19:47Z</time>
      </trkpt>
      <trkpt lat="45.00167" lon="5.21858">
        <ele>1131.2</ele>
        <time>2018-12-05T13:20:02Z</time>
      </trkpt>
      <trkpt lat="45.00181" lon="5.21843">
        <ele>1128.6</ele>
        <time>2018-12-05T13:20:18Z</time>
      </trkpt>
      <trkpt lat="45.00197" lon="5.21835">
        <ele>1126.96</ele>
        <time>2018-12-05T13:20:34Z</time>
      </trkpt>
      <trkpt lat="45.00211" lon="5.21827">
        <ele>1125.19</ele>
        <time>2018-12-05T13:20:46Z</time>
      </trkpt>
      <trkpt lat="45.00224" lon="5.21821">
        <ele>1122.99</ele>
        <time>2018-12-05T13:20:57Z</time>
      </trkpt>
      <trkpt lat="45.00239" lon="5.21813">
        <ele>1120.06</ele>
        <time>2018-12-05T13:21:08Z</time>
      </trkpt>
      <trkpt lat="45.00252" lon="5.21803">
        <ele>1117</ele>
        <time>2018-12-05T13:21:21Z</time>
      </trkpt>
      <trkpt lat="45.0026" lon="5.21798">
        <ele>1113.99</ele>
        <time>2018-12-05T13:21:31Z</time>
      </trkpt>
      <trkpt lat="45.00272" lon="5.21794">
        <ele>1110.99</ele>
        <time>2018-12-05T13:21:43Z</time>
      </trkpt>
      <trkpt lat="45.00285" lon="5.21786">
        <ele>1107.72</ele>
        <time>2018-12-05T13:21:54Z</time>
      </trkpt>
      <trkpt lat="45.00299" lon="5.21777">
        <ele>1104.44</ele>
        <time>2018-12-05T13:22:05Z</time>
      </trkpt>
      <trkpt lat="45.0031" lon="5.21771">
        <ele>1101.29</ele>
        <time>2018-12-05T13:22:15Z</time>
      </trkpt>
      <trkpt lat="45.00316" lon="5.21769">
        <ele>1099.24</ele>
        <time>2018-12-05T13:22:21Z</time>
      </trkpt>
      <trkpt lat="45.0032" lon="5.21768">
        <ele>1098</ele>
        <time>2018-12-05T13:22:24Z</time>
      </trkpt>
      <trkpt lat="45.00329" lon="5.21763">
        <ele>1094.52</ele>
        <time>2018-12-05T13:22:33Z</time>
      </trkpt>
      <trkpt lat="45.00341" lon="5.21753">
        <ele>1091.22</ele>
        <time>2018-12-05T13:22:45Z</time>
      </trkpt>
      <trkpt lat="45.00347" lon="5.21749">
        <ele>1088.15</ele>
        <time>2018-12-05T13:22:52Z</time>
      </trkpt>
      <trkpt lat="45.00353" lon="5.21745">
        <ele>1085.96</ele>
        <time>2018-12-05T13:22:57Z</time>
      </trkpt>
      <trkpt lat="45.00356" lon="5.21742">
        <ele>1084.9</ele>
        <time>2018-12-05T13:23:00Z</time>
      </trkpt>
      <trkpt lat="45.00367" lon="5.21733">
        <ele>1081.89</ele>
        <time>2018-12-05T13:23:11Z</time>
      </trkpt>
      <trkpt lat="45.00368" lon="5.21732">
        <ele>1081.91</ele>
        <time>2018-12-05T13:23:12Z</time>
      </trkpt>
      <trkpt lat="45.00387" lon="5.21724">
        <ele>1078.59</ele>
        <time>2018-12-05T13:23:27Z</time>
      </trkpt>
      <trkpt lat="45.00395" lon="5.21719">
        <ele>1076.33</ele>
        <time>2018-12-05T13:23:42Z</time>
      </trkpt>
      <trkpt lat="45.00408" lon="5.21716">
        <ele>1073.26</ele>
        <time>2018-12-05T13:23:53Z</time>
      </trkpt>
      <trkpt lat="45.00423" lon="5.21713">
        <ele>1070.21</ele>
        <time>2018-12-05T13:24:05Z</time>
      </trkpt>
      <trkpt lat="45.00437" lon="5.21708">
        <ele>1067.73</ele>
        <time>2018-12-05T13:24:18Z</time>
      </trkpt>
      <trkpt lat="45.0045" lon="5.21705">
        <ele>1064.65</ele>
        <time>2018-12-05T13:24:29Z</time>
      </trkpt>
      <trkpt lat="45.00466" lon="5.21708">
        <ele>1061.87</ele>
        <time>2018-12-05T13:24:42Z</time>
      </trkpt>
      <trkpt lat="45.00475" lon="5.21701">
        <ele>1058.85</ele>
        <time>2018-12-05T13:24:52Z</time>
      </trkpt>
      <trkpt lat="45.00483" lon="5.21694">
        <ele>1055.82</ele>
        <time>2018-12-05T13:25:01Z</time>
      </trkpt>
      <trkpt lat="45.0049" lon="5.21688">
        <ele>1052.69</ele>
        <time>2018-12-05T13:25:11Z</time>
      </trkpt>
      <trkpt lat="45.00498" lon="5.21684">
        <ele>1049.24</ele>
        <time>2018-12-05T13:25:20Z</time>
      </trkpt>
      <trkpt lat="45.00499" lon="5.21684">
        <ele>1049.16</ele>
        <time>2018-12-05T13:25:21Z</time>
      </trkpt>
      <trkpt lat="45.00509" lon="5.21686">
        <ele>1045.87</ele>
        <time>2018-12-05T13:25:32Z</time>
      </trkpt>
      <trkpt lat="45.00517" lon="5.21682">
        <ele>1042.87</ele>
        <time>2018-12-05T13:25:41Z</time>
      </trkpt>
      <trkpt lat="45.00521" lon="5.21682">
        <ele>1040.72</ele>
        <time>2018-12-05T13:25:46Z</time>
      </trkpt>
      <trkpt lat="45.0053" lon="5.2168">
        <ele>1037.65</ele>
        <time>2018-12-05T13:25:54Z</time>
      </trkpt>
      <trkpt lat="45.00538" lon="5.21675">
        <ele>1034.35</ele>
        <time>2018-12-05T13:26:03Z</time>
      </trkpt>
      <trkpt lat="45.00548" lon="5.2167">
        <ele>1031.28</ele>
        <time>2018-12-05T13:26:12Z</time>
      </trkpt>
      <trkpt lat="45.00559" lon="5.21665">
        <ele>1028.26</ele>
        <time>2018-12-05T13:26:23Z</time>
      </trkpt>
      <trkpt lat="45.00568" lon="5.21668">
        <ele>1027.09</ele>
        <time>2018-12-05T13:26:39Z</time>
      </trkpt>
      <trkpt lat="45.0057" lon="5.21669">
        <ele>1025.7</ele>
        <time>2018-12-05T13:26:41Z</time>
      </trkpt>
      <trkpt lat="45.00584" lon="5.21672">
        <ele>1025.23</ele>
        <time>2018-12-05T13:26:59Z</time>
      </trkpt>
      <trkpt lat="45.0059" lon="5.21675">
        <ele>1022.15</ele>
        <time>2018-12-05T13:27:08Z</time>
      </trkpt>
      <trkpt lat="45.006" lon="5.21677">
        <ele>1019.86</ele>
        <time>2018-12-05T13:27:21Z</time>
      </trkpt>
      <trkpt lat="45.00612" lon="5.21683">
        <ele>1017.35</ele>
        <time>2018-12-05T13:27:34Z</time>
      </trkpt>
      <trkpt lat="45.0062" lon="5.21689">
        <ele>1014.55</ele>
        <time>2018-12-05T13:27:43Z</time>
      </trkpt>
      <trkpt lat="45.00628" lon="5.21695">
        <ele>1013.22</ele>
        <time>2018-12-05T13:27:50Z</time>
      </trkpt>
      <trkpt lat="45.00637" lon="5.21687">
        <ele>1010.99</ele>
        <time>2018-12-05T13:27:58Z</time>
      </trkpt>
      <trkpt lat="45.00637" lon="5.21673">
        <ele>1008.06</ele>
        <time>2018-12-05T13:28:08Z</time>
      </trkpt>
      <trkpt lat="45.00639" lon="5.21662">
        <ele>1005.18</ele>
        <time>2018-12-05T13:28:16Z</time>
      </trkpt>
      <trkpt lat="45.00641" lon="5.21647">
        <ele>1002.44</ele>
        <time>2018-12-05T13:28:27Z</time>
      </trkpt>
      <trkpt lat="45.00643" lon="5.21628">
        <ele>999.87</ele>
        <time>2018-12-05T13:28:38Z</time>
      </trkpt>
      <trkpt lat="45.00642" lon="5.21612">
        <ele>997.19</ele>
        <time>2018-12-05T13:28:48Z</time>
      </trkpt>
      <trkpt lat="45.00645" lon="5.21606">
        <ele>994.88</ele>
        <time>2018-12-05T13:28:53Z</time>
      </trkpt>
      <trkpt lat="45.00655" lon="5.21592">
        <ele>992.14</ele>
        <time>2018-12-05T13:29:04Z</time>
      </trkpt>
      <trkpt lat="45.00657" lon="5.21589">
        <ele>991.53</ele>
        <time>2018-12-05T13:29:06Z</time>
      </trkpt>
      <trkpt lat="45.0067" lon="5.21576">
        <ele>990.32</ele>
        <time>2018-12-05T13:29:19Z</time>
      </trkpt>
      <trkpt lat="45.00678" lon="5.21566">
        <ele>990.37</ele>
        <time>2018-12-05T13:29:30Z</time>
      </trkpt>
      <trkpt lat="45.00681" lon="5.21566">
        <ele>990.47</ele>
        <time>2018-12-05T13:29:43Z</time>
      </trkpt>
      <trkpt lat="45.00683" lon="5.21567">
        <ele>990.2</ele>
        <time>2018-12-05T13:30:10Z</time>
      </trkpt>
      <trkpt lat="45.00683" lon="5.21567">
        <ele>990.01</ele>
        <time>2018-12-05T13:30:50Z</time>
      </trkpt>
      <trkpt lat="45.00686" lon="5.21566">
        <ele>989.46</ele>
        <time>2018-12-05T13:31:31Z</time>
      </trkpt>
      <trkpt lat="45.00686" lon="5.21564">
        <ele>988.78</ele>
        <time>2018-12-05T13:31:45Z</time>
      </trkpt>
      <trkpt lat="45.00686" lon="5.21563">
        <ele>988.66</ele>
        <time>2018-12-05T13:32:13Z</time>
      </trkpt>
      <trkpt lat="45.00685" lon="5.21563">
        <ele>988.5</ele>
        <time>2018-12-05T13:32:39Z</time>
      </trkpt>
      <trkpt lat="45.00684" lon="5.21563">
        <ele>989.31</ele>
        <time>2018-12-05T13:32:52Z</time>
      </trkpt>
      <trkpt lat="45.00684" lon="5.21564">
        <ele>988.09</ele>
        <time>2018-12-05T13:33:10Z</time>
      </trkpt>
      <trkpt lat="45.00682" lon="5.21565">
        <ele>988.13</ele>
        <time>2018-12-05T13:33:37Z</time>
      </trkpt>
      <trkpt lat="45.00682" lon="5.2157">
        <ele>989.27</ele>
        <time>2018-12-05T13:34:03Z</time>
      </trkpt>
      <trkpt lat="45.00681" lon="5.21571">
        <ele>990.52</ele>
        <time>2018-12-05T13:34:08Z</time>
      </trkpt>
      <trkpt lat="45.00681" lon="5.21571">
        <ele>989.09</ele>
        <time>2018-12-05T13:34:10Z</time>
      </trkpt>
      <trkpt lat="45.00686" lon="5.21566">
        <ele>989.17</ele>
        <time>2018-12-05T13:34:27Z</time>
      </trkpt>
      <trkpt lat="45.00686" lon="5.21563">
        <ele>989.14</ele>
        <time>2018-12-05T13:34:53Z</time>
      </trkpt>
      <trkpt lat="45.00697" lon="5.21563">
        <ele>989.8</ele>
        <time>2018-12-05T13:35:07Z</time>
      </trkpt>
      <trkpt lat="45.00706" lon="5.2157">
        <ele>989.08</ele>
        <time>2018-12-05T13:35:20Z</time>
      </trkpt>
      <trkpt lat="45.00705" lon="5.21569">
        <ele>989.02</ele>
        <time>2018-12-05T13:35:39Z</time>
      </trkpt>
      <trkpt lat="45.00704" lon="5.21571">
        <ele>988.58</ele>
        <time>2018-12-05T13:36:02Z</time>
      </trkpt>
      <trkpt lat="45.00708" lon="5.21574">
        <ele>988.86</ele>
        <time>2018-12-05T13:36:19Z</time>
      </trkpt>
      <trkpt lat="45.00719" lon="5.21589">
        <ele>986.91</ele>
        <time>2018-12-05T13:36:36Z</time>
      </trkpt>
      <trkpt lat="45.0073" lon="5.21604">
        <ele>985.5</ele>
        <time>2018-12-05T13:36:52Z</time>
      </trkpt>
      <trkpt lat="45.00745" lon="5.21618">
        <ele>983.63</ele>
        <time>2018-12-05T13:37:09Z</time>
      </trkpt>
      <trkpt lat="45.00752" lon="5.21609">
        <ele>986.05</ele>
        <time>2018-12-05T13:37:23Z</time>
      </trkpt>
      <trkpt lat="45.0076" lon="5.21599">
        <ele>989.22</ele>
        <time>2018-12-05T13:37:37Z</time>
      </trkpt>
      <trkpt lat="45.00768" lon="5.21587">
        <ele>992.25</ele>
        <time>2018-12-05T13:37:53Z</time>
      </trkpt>
      <trkpt lat="45.00778" lon="5.21579">
        <ele>995.24</ele>
        <time>2018-12-05T13:38:11Z</time>
      </trkpt>
      <trkpt lat="45.00785" lon="5.21568">
        <ele>997.9</ele>
        <time>2018-12-05T13:38:26Z</time>
      </trkpt>
      <trkpt lat="45.00789" lon="5.21554">
        <ele>1001.04</ele>
        <time>2018-12-05T13:38:40Z</time>
      </trkpt>
      <trkpt lat="45.00797" lon="5.21539">
        <ele>1003.38</ele>
        <time>2018-12-05T13:38:55Z</time>
      </trkpt>
      <trkpt lat="45.00808" lon="5.21521">
        <ele>1005.13</ele>
        <time>2018-12-05T13:39:13Z</time>
      </trkpt>
      <trkpt lat="45.00815" lon="5.21504">
        <ele>1005.53</ele>
        <time>2018-12-05T13:39:28Z</time>
      </trkpt>
      <trkpt lat="45.00818" lon="5.21488">
        <ele>1003.94</ele>
        <time>2018-12-05T13:39:43Z</time>
      </trkpt>
      <trkpt lat="45.00822" lon="5.21474">
        <ele>1000.51</ele>
        <time>2018-12-05T13:40:00Z</time>
      </trkpt>
      <trkpt lat="45.00822" lon="5.21464">
        <ele>997.34</ele>
        <time>2018-12-05T13:40:11Z</time>
      </trkpt>
      <trkpt lat="45.00823" lon="5.21457">
        <ele>995.01</ele>
        <time>2018-12-05T13:40:25Z</time>
      </trkpt>
      <trkpt lat="45.00825" lon="5.21449">
        <ele>991.56</ele>
        <time>2018-12-05T13:40:33Z</time>
      </trkpt>
      <trkpt lat="45.00826" lon="5.21448">
        <ele>990.2</ele>
        <time>2018-12-05T13:40:35Z</time>
      </trkpt>
      <trkpt lat="45.00828" lon="5.21444">
        <ele>988.34</ele>
        <time>2018-12-05T13:40:49Z</time>
      </trkpt>
      <trkpt lat="45.00835" lon="5.21436">
        <ele>984.96</ele>
        <time>2018-12-05T13:41:01Z</time>
      </trkpt>
      <trkpt lat="45.00842" lon="5.21434">
        <ele>981.92</ele>
        <time>2018-12-05T13:41:08Z</time>
      </trkpt>
      <trkpt lat="45.00845" lon="5.21422">
        <ele>978.81</ele>
        <time>2018-12-05T13:41:17Z</time>
      </trkpt>
      <trkpt lat="45.00845" lon="5.21415">
        <ele>976.88</ele>
        <time>2018-12-05T13:41:22Z</time>
      </trkpt>
      <trkpt lat="45.00847" lon="5.21405">
        <ele>973.79</ele>
        <time>2018-12-05T13:41:32Z</time>
      </trkpt>
      <trkpt lat="45.00851" lon="5.21392">
        <ele>970.32</ele>
        <time>2018-12-05T13:41:44Z</time>
      </trkpt>
      <trkpt lat="45.00857" lon="5.21381">
        <ele>967.23</ele>
        <time>2018-12-05T13:41:50Z</time>
      </trkpt>
      <trkpt lat="45.00859" lon="5.21376">
        <ele>965.4</ele>
        <time>2018-12-05T13:42:00Z</time>
      </trkpt>
      <trkpt lat="45.0086" lon="5.21374">
        <ele>965.58</ele>
        <time>2018-12-05T13:42:04Z</time>
      </trkpt>
      <trkpt lat="45.00863" lon="5.21362">
        <ele>962.56</ele>
        <time>2018-12-05T13:42:10Z</time>
      </trkpt>
      <trkpt lat="45.00867" lon="5.21342">
        <ele>959.42</ele>
        <time>2018-12-05T13:42:22Z</time>
      </trkpt>
      <trkpt lat="45.00866" lon="5.21338">
        <ele>959.48</ele>
        <time>2018-12-05T13:42:25Z</time>
      </trkpt>
      <trkpt lat="45.00867" lon="5.21335">
        <ele>959.07</ele>
        <time>2018-12-05T13:42:28Z</time>
      </trkpt>
      <trkpt lat="45.00868" lon="5.21312">
        <ele>957.39</ele>
        <time>2018-12-05T13:42:41Z</time>
      </trkpt>
      <trkpt lat="45.00869" lon="5.21293">
        <ele>956.6</ele>
        <time>2018-12-05T13:42:53Z</time>
      </trkpt>
      <trkpt lat="45.00873" lon="5.21269">
        <ele>955.45</ele>
        <time>2018-12-05T13:43:07Z</time>
      </trkpt>
      <trkpt lat="45.00875" lon="5.21261">
        <ele>954.77</ele>
        <time>2018-12-05T13:43:13Z</time>
      </trkpt>
      <trkpt lat="45.00883" lon="5.21244">
        <ele>953.98</ele>
        <time>2018-12-05T13:43:24Z</time>
      </trkpt>
      <trkpt lat="45.00888" lon="5.21226">
        <ele>953.3</ele>
        <time>2018-12-05T13:43:37Z</time>
      </trkpt>
      <trkpt lat="45.00894" lon="5.21212">
        <ele>952.9</ele>
        <time>2018-12-05T13:43:48Z</time>
      </trkpt>
      <trkpt lat="45.00896" lon="5.21203">
        <ele>953.16</ele>
        <time>2018-12-05T13:43:58Z</time>
      </trkpt>
      <trkpt lat="45.00892" lon="5.21205">
        <ele>952.9</ele>
        <time>2018-12-05T13:44:14Z</time>
      </trkpt>
      <trkpt lat="45.00891" lon="5.21209">
        <ele>951.94</ele>
        <time>2018-12-05T13:44:31Z</time>
      </trkpt>
      <trkpt lat="45.00892" lon="5.21208">
        <ele>952.86</ele>
        <time>2018-12-05T13:44:54Z</time>
      </trkpt>
      <trkpt lat="45.00889" lon="5.21209">
        <ele>952.64</ele>
        <time>2018-12-05T13:45:12Z</time>
      </trkpt>
      <trkpt lat="45.00883" lon="5.21215">
        <ele>951.46</ele>
        <time>2018-12-05T13:45:27Z</time>
      </trkpt>
      <trkpt lat="45.0088" lon="5.21216">
        <ele>950.7</ele>
        <time>2018-12-05T13:45:40Z</time>
      </trkpt>
      <trkpt lat="45.00876" lon="5.21213">
        <ele>950.5</ele>
        <time>2018-12-05T13:45:52Z</time>
      </trkpt>
      <trkpt lat="45.00877" lon="5.21214">
        <ele>950.69</ele>
        <time>2018-12-05T13:46:14Z</time>
      </trkpt>
      <trkpt lat="45.00876" lon="5.21214">
        <ele>949.53</ele>
        <time>2018-12-05T13:46:20Z</time>
      </trkpt>
      <trkpt lat="45.00875" lon="5.21213">
        <ele>950.77</ele>
        <time>2018-12-05T13:46:39Z</time>
      </trkpt>
      <trkpt lat="45.00876" lon="5.21211">
        <ele>950.7</ele>
        <time>2018-12-05T13:47:04Z</time>
      </trkpt>
      <trkpt lat="45.00875" lon="5.21211">
        <ele>950.02</ele>
        <time>2018-12-05T13:47:25Z</time>
      </trkpt>
      <trkpt lat="45.00876" lon="5.21212">
        <ele>951.23</ele>
        <time>2018-12-05T13:47:42Z</time>
      </trkpt>
      <trkpt lat="45.00876" lon="5.21213">
        <ele>951.1</ele>
        <time>2018-12-05T13:48:01Z</time>
      </trkpt>
      <trkpt lat="45.00877" lon="5.21212">
        <ele>951.41</ele>
        <time>2018-12-05T13:48:26Z</time>
      </trkpt>
      <trkpt lat="45.00877" lon="5.21213">
        <ele>951.6</ele>
        <time>2018-12-05T13:48:51Z</time>
      </trkpt>
      <trkpt lat="45.00874" lon="5.21212">
        <ele>951.38</ele>
        <time>2018-12-05T13:49:11Z</time>
      </trkpt>
      <trkpt lat="45.00873" lon="5.21211">
        <ele>951.37</ele>
        <time>2018-12-05T13:49:30Z</time>
      </trkpt>
      <trkpt lat="45.00873" lon="5.21213">
        <ele>951.33</ele>
        <time>2018-12-05T13:49:50Z</time>
      </trkpt>
      <trkpt lat="45.00873" lon="5.21212">
        <ele>951.48</ele>
        <time>2018-12-05T13:50:13Z</time>
      </trkpt>
      <trkpt lat="45.00869" lon="5.21214">
        <ele>951.2</ele>
        <time>2018-12-05T13:50:28Z</time>
      </trkpt>
      <trkpt lat="45.00863" lon="5.21216">
        <ele>950.73</ele>
        <time>2018-12-05T13:50:34Z</time>
      </trkpt>
      <trkpt lat="45.00852" lon="5.21219">
        <ele>948.27</ele>
        <time>2018-12-05T13:50:45Z</time>
      </trkpt>
      <trkpt lat="45.00846" lon="5.21219">
        <ele>946.79</ele>
        <time>2018-12-05T13:50:50Z</time>
      </trkpt>
      <trkpt lat="45.00833" lon="5.21224">
        <ele>944.11</ele>
        <time>2018-12-05T13:51:01Z</time>
      </trkpt>
      <trkpt lat="45.00827" lon="5.21229">
        <ele>942.61</ele>
        <time>2018-12-05T13:51:08Z</time>
      </trkpt>
      <trkpt lat="45.00821" lon="5.21244">
        <ele>939.78</ele>
        <time>2018-12-05T13:51:20Z</time>
      </trkpt>
      <trkpt lat="45.00819" lon="5.21255">
        <ele>937.6</ele>
        <time>2018-12-05T13:51:30Z</time>
      </trkpt>
      <trkpt lat="45.00819" lon="5.2127">
        <ele>934.12</ele>
        <time>2018-12-05T13:51:42Z</time>
      </trkpt>
      <trkpt lat="45.00819" lon="5.21284">
        <ele>930.88</ele>
        <time>2018-12-05T13:51:55Z</time>
      </trkpt>
      <trkpt lat="45.0081" lon="5.21293">
        <ele>928.15</ele>
        <time>2018-12-05T13:52:08Z</time>
      </trkpt>
      <trkpt lat="45.00795" lon="5.21307">
        <ele>925.67</ele>
        <time>2018-12-05T13:52:21Z</time>
      </trkpt>
      <trkpt lat="45.00783" lon="5.21319">
        <ele>923.81</ele>
        <time>2018-12-05T13:52:34Z</time>
      </trkpt>
      <trkpt lat="45.00774" lon="5.21321">
        <ele>923.63</ele>
        <time>2018-12-05T13:52:46Z</time>
      </trkpt>
      <trkpt lat="45.00762" lon="5.21325">
        <ele>920.97</ele>
        <time>2018-12-05T13:52:58Z</time>
      </trkpt>
      <trkpt lat="45.00755" lon="5.2133">
        <ele>919.82</ele>
        <time>2018-12-05T13:53:07Z</time>
      </trkpt>
      <trkpt lat="45.00743" lon="5.21333">
        <ele>917.5</ele>
        <time>2018-12-05T13:53:22Z</time>
      </trkpt>
      <trkpt lat="45.0073" lon="5.21338">
        <ele>914.41</ele>
        <time>2018-12-05T13:53:36Z</time>
      </trkpt>
      <trkpt lat="45.00728" lon="5.21339">
        <ele>913.96</ele>
        <time>2018-12-05T13:53:38Z</time>
      </trkpt>
      <trkpt lat="45.00723" lon="5.21342">
        <ele>912.91</ele>
        <time>2018-12-05T13:53:44Z</time>
      </trkpt>
      <trkpt lat="45.00712" lon="5.21349">
        <ele>911.33</ele>
        <time>2018-12-05T13:53:55Z</time>
      </trkpt>
      <trkpt lat="45.00699" lon="5.21354">
        <ele>908.83</ele>
        <time>2018-12-05T13:54:07Z</time>
      </trkpt>
      <trkpt lat="45.00686" lon="5.21363">
        <ele>906.94</ele>
        <time>2018-12-05T13:54:21Z</time>
      </trkpt>
      <trkpt lat="45.00673" lon="5.21371">
        <ele>904.74</ele>
        <time>2018-12-05T13:54:35Z</time>
      </trkpt>
      <trkpt lat="45.00671" lon="5.21362">
        <ele>902.67</ele>
        <time>2018-12-05T13:54:44Z</time>
      </trkpt>
      <trkpt lat="45.00674" lon="5.21357">
        <ele>901.58</ele>
        <time>2018-12-05T13:54:47Z</time>
      </trkpt>
      <trkpt lat="45.00683" lon="5.21342">
        <ele>898.19</ele>
        <time>2018-12-05T13:54:57Z</time>
      </trkpt>
      <trkpt lat="45.00691" lon="5.21334">
        <ele>896.18</ele>
        <time>2018-12-05T13:55:07Z</time>
      </trkpt>
      <trkpt lat="45.00694" lon="5.2133">
        <ele>895.4</ele>
        <time>2018-12-05T13:55:11Z</time>
      </trkpt>
      <trkpt lat="45.00703" lon="5.2132">
        <ele>892.65</ele>
        <time>2018-12-05T13:55:22Z</time>
      </trkpt>
      <trkpt lat="45.00706" lon="5.21317">
        <ele>891.76</ele>
        <time>2018-12-05T13:55:26Z</time>
      </trkpt>
      <trkpt lat="45.00716" lon="5.21305">
        <ele>889.74</ele>
        <time>2018-12-05T13:55:38Z</time>
      </trkpt>
      <trkpt lat="45.00724" lon="5.21293">
        <ele>888</ele>
        <time>2018-12-05T13:55:48Z</time>
      </trkpt>
      <trkpt lat="45.00726" lon="5.21291">
        <ele>887.66</ele>
        <time>2018-12-05T13:55:50Z</time>
      </trkpt>
      <trkpt lat="45.00728" lon="5.21286">
        <ele>887.31</ele>
        <time>2018-12-05T13:55:53Z</time>
      </trkpt>
      <trkpt lat="45.00734" lon="5.21272">
        <ele>885.64</ele>
        <time>2018-12-05T13:56:01Z</time>
      </trkpt>
      <trkpt lat="45.00731" lon="5.21252">
        <ele>884.02</ele>
        <time>2018-12-05T13:56:13Z</time>
      </trkpt>
      <trkpt lat="45.00723" lon="5.21258">
        <ele>881.83</ele>
        <time>2018-12-05T13:56:22Z</time>
      </trkpt>
      <trkpt lat="45.00706" lon="5.21271">
        <ele>878.25</ele>
        <time>2018-12-05T13:56:34Z</time>
      </trkpt>
      <trkpt lat="45.00701" lon="5.21275">
        <ele>877.3</ele>
        <time>2018-12-05T13:56:38Z</time>
      </trkpt>
      <trkpt lat="45.00688" lon="5.21279">
        <ele>875.02</ele>
        <time>2018-12-05T13:56:49Z</time>
      </trkpt>
      <trkpt lat="45.00675" lon="5.21283">
        <ele>872.9</ele>
        <time>2018-12-05T13:57:02Z</time>
      </trkpt>
      <trkpt lat="45.00664" lon="5.21289">
        <ele>871.27</ele>
        <time>2018-12-05T13:57:12Z</time>
      </trkpt>
      <trkpt lat="45.00661" lon="5.21292">
        <ele>870.83</ele>
        <time>2018-12-05T13:57:15Z</time>
      </trkpt>
      <trkpt lat="45.00649" lon="5.21296">
        <ele>868.16</ele>
        <time>2018-12-05T13:57:26Z</time>
      </trkpt>
      <trkpt lat="45.00648" lon="5.21297">
        <ele>868.15</ele>
        <time>2018-12-05T13:57:27Z</time>
      </trkpt>
      <trkpt lat="45.00637" lon="5.21298">
        <ele>865.97</ele>
        <time>2018-12-05T13:57:35Z</time>
      </trkpt>
      <trkpt lat="45.00625" lon="5.21296">
        <ele>864.23</ele>
        <time>2018-12-05T13:57:44Z</time>
      </trkpt>
      <trkpt lat="45.00622" lon="5.21296">
        <ele>863.39</ele>
        <time>2018-12-05T13:57:47Z</time>
      </trkpt>
      <trkpt lat="45.00607" lon="5.21292">
        <ele>860.09</ele>
        <time>2018-12-05T13:57:58Z</time>
      </trkpt>
      <trkpt lat="45.00591" lon="5.21289">
        <ele>857.17</ele>
        <time>2018-12-05T13:58:10Z</time>
      </trkpt>
      <trkpt lat="45.00575" lon="5.21296">
        <ele>855.74</ele>
        <time>2018-12-05T13:58:22Z</time>
      </trkpt>
      <trkpt lat="45.00565" lon="5.21303">
        <ele>853.81</ele>
        <time>2018-12-05T13:58:33Z</time>
      </trkpt>
      <trkpt lat="45.00564" lon="5.21302">
        <ele>853.63</ele>
        <time>2018-12-05T13:58:34Z</time>
      </trkpt>
      <trkpt lat="45.00557" lon="5.21304">
        <ele>852.98</ele>
        <time>2018-12-05T13:58:39Z</time>
      </trkpt>
      <trkpt lat="45.00551" lon="5.21305">
        <ele>852.14</ele>
        <time>2018-12-05T13:58:44Z</time>
      </trkpt>
      <trkpt lat="45.00548" lon="5.21304">
        <ele>851.57</ele>
        <time>2018-12-05T13:58:47Z</time>
      </trkpt>
      <trkpt lat="45.00535" lon="5.21305">
        <ele>849.5</ele>
        <time>2018-12-05T13:58:58Z</time>
      </trkpt>
      <trkpt lat="45.00521" lon="5.213">
        <ele>847.83</ele>
        <time>2018-12-05T13:59:11Z</time>
      </trkpt>
      <trkpt lat="45.00508" lon="5.21287">
        <ele>845.37</ele>
        <time>2018-12-05T13:59:23Z</time>
      </trkpt>
      <trkpt lat="45.00499" lon="5.21273">
        <ele>843.07</ele>
        <time>2018-12-05T13:59:35Z</time>
      </trkpt>
      <trkpt lat="45.00494" lon="5.21266">
        <ele>841.47</ele>
        <time>2018-12-05T13:59:41Z</time>
      </trkpt>
      <trkpt lat="45.00493" lon="5.21263">
        <ele>840.95</ele>
        <time>2018-12-05T13:59:43Z</time>
      </trkpt>
      <trkpt lat="45.00489" lon="5.21257">
        <ele>839.7</ele>
        <time>2018-12-05T13:59:47Z</time>
      </trkpt>
      <trkpt lat="45.00477" lon="5.21243">
        <ele>838.52</ele>
        <time>2018-12-05T13:59:58Z</time>
      </trkpt>
      <trkpt lat="45.00475" lon="5.21241">
        <ele>838.22</ele>
        <time>2018-12-05T14:00:00Z</time>
      </trkpt>
      <trkpt lat="45.00465" lon="5.21236">
        <ele>836.02</ele>
        <time>2018-12-05T14:00:10Z</time>
      </trkpt>
      <trkpt lat="45.00459" lon="5.21232">
        <ele>835.11</ele>
        <time>2018-12-05T14:00:23Z</time>
      </trkpt>
      <trkpt lat="45.00455" lon="5.21238">
        <ele>834.23</ele>
        <time>2018-12-05T14:00:37Z</time>
      </trkpt>
      <trkpt lat="45.00455" lon="5.2124">
        <ele>834.18</ele>
        <time>2018-12-05T14:01:01Z</time>
      </trkpt>
      <trkpt lat="45.0046" lon="5.21232">
        <ele>834.21</ele>
        <time>2018-12-05T14:01:20Z</time>
      </trkpt>
      <trkpt lat="45.00461" lon="5.21232">
        <ele>834.31</ele>
        <time>2018-12-05T14:01:40Z</time>
      </trkpt>
      <trkpt lat="45.00462" lon="5.2123">
        <ele>834.14</ele>
        <time>2018-12-05T14:01:59Z</time>
      </trkpt>
      <trkpt lat="45.00463" lon="5.21231">
        <ele>834.24</ele>
        <time>2018-12-05T14:02:22Z</time>
      </trkpt>
      <trkpt lat="45.0046" lon="5.21231">
        <ele>833.93</ele>
        <time>2018-12-05T14:02:43Z</time>
      </trkpt>
      <trkpt lat="45.00461" lon="5.21233">
        <ele>833.79</ele>
        <time>2018-12-05T14:03:08Z</time>
      </trkpt>
      <trkpt lat="45.00462" lon="5.21235">
        <ele>833.71</ele>
        <time>2018-12-05T14:03:27Z</time>
      </trkpt>
      <trkpt lat="45.00462" lon="5.21235">
        <ele>833.37</ele>
        <time>2018-12-05T14:03:32Z</time>
      </trkpt>
      <trkpt lat="45.00465" lon="5.21231">
        <ele>832.39</ele>
        <time>2018-12-05T14:03:53Z</time>
      </trkpt>
      <trkpt lat="45.00468" lon="5.21231">
        <ele>833.56</ele>
        <time>2018-12-05T14:03:57Z</time>
      </trkpt>
      <trkpt lat="45.00476" lon="5.2123">
        <ele>832.66</ele>
        <time>2018-12-05T14:04:04Z</time>
      </trkpt>
      <trkpt lat="45.00482" lon="5.21233">
        <ele>831.49</ele>
        <time>2018-12-05T14:04:14Z</time>
      </trkpt>
      <trkpt lat="45.00493" lon="5.21238">
        <ele>828.96</ele>
        <time>2018-12-05T14:04:29Z</time>
      </trkpt>
      <trkpt lat="45.00503" lon="5.21247">
        <ele>827.88</ele>
        <time>2018-12-05T14:04:43Z</time>
      </trkpt>
      <trkpt lat="45.00509" lon="5.21247">
        <ele>827.23</ele>
        <time>2018-12-05T14:04:48Z</time>
      </trkpt>
      <trkpt lat="45.00514" lon="5.21247">
        <ele>826.37</ele>
        <time>2018-12-05T14:04:51Z</time>
      </trkpt>
      <trkpt lat="45.00527" lon="5.2124">
        <ele>823.35</ele>
        <time>2018-12-05T14:05:01Z</time>
      </trkpt>
      <trkpt lat="45.00541" lon="5.21236">
        <ele>820.06</ele>
        <time>2018-12-05T14:05:10Z</time>
      </trkpt>
      <trkpt lat="45.00547" lon="5.21232">
        <ele>819.18</ele>
        <time>2018-12-05T14:05:17Z</time>
      </trkpt>
      <trkpt lat="45.00554" lon="5.21228">
        <ele>818.35</ele>
        <time>2018-12-05T14:05:24Z</time>
      </trkpt>
      <trkpt lat="45.00557" lon="5.21226">
        <ele>818.14</ele>
        <time>2018-12-05T14:05:26Z</time>
      </trkpt>
      <trkpt lat="45.00566" lon="5.21218">
        <ele>818.37</ele>
        <time>2018-12-05T14:05:35Z</time>
      </trkpt>
      <trkpt lat="45.00568" lon="5.21216">
        <ele>818.51</ele>
        <time>2018-12-05T14:05:37Z</time>
      </trkpt>
      <trkpt lat="45.0057" lon="5.21214">
        <ele>818.48</ele>
        <time>2018-12-05T14:05:38Z</time>
      </trkpt>
      <trkpt lat="45.00571" lon="5.21213">
        <ele>818.3</ele>
        <time>2018-12-05T14:05:39Z</time>
      </trkpt>
      <trkpt lat="45.0058" lon="5.21198">
        <ele>817.52</ele>
        <time>2018-12-05T14:05:50Z</time>
      </trkpt>
      <trkpt lat="45.00594" lon="5.21181">
        <ele>816.34</ele>
        <time>2018-12-05T14:06:02Z</time>
      </trkpt>
      <trkpt lat="45.006" lon="5.21164">
        <ele>813.47</ele>
        <time>2018-12-05T14:06:13Z</time>
      </trkpt>
      <trkpt lat="45.00601" lon="5.21157">
        <ele>812.95</ele>
        <time>2018-12-05T14:06:24Z</time>
      </trkpt>
      <trkpt lat="45.00604" lon="5.21148">
        <ele>810.4</ele>
        <time>2018-12-05T14:06:32Z</time>
      </trkpt>
      <trkpt lat="45.00604" lon="5.21147">
        <ele>810.21</ele>
        <time>2018-12-05T14:06:33Z</time>
      </trkpt>
      <trkpt lat="45.00604" lon="5.21145">
        <ele>809.79</ele>
        <time>2018-12-05T14:06:34Z</time>
      </trkpt>
      <trkpt lat="45.00603" lon="5.21139">
        <ele>808.28</ele>
        <time>2018-12-05T14:06:40Z</time>
      </trkpt>
      <trkpt lat="45.00603" lon="5.21137">
        <ele>807.53</ele>
        <time>2018-12-05T14:06:41Z</time>
      </trkpt>
      <trkpt lat="45.00601" lon="5.21136">
        <ele>807.01</ele>
        <time>2018-12-05T14:06:42Z</time>
      </trkpt>
      <trkpt lat="45.00601" lon="5.21134">
        <ele>806.21</ele>
        <time>2018-12-05T14:06:43Z</time>
      </trkpt>
      <trkpt lat="45.006" lon="5.21132">
        <ele>805.32</ele>
        <time>2018-12-05T14:06:44Z</time>
      </trkpt>
      <trkpt lat="45.00599" lon="5.2113">
        <ele>805.02</ele>
        <time>2018-12-05T14:06:45Z</time>
      </trkpt>
      <trkpt lat="45.00592" lon="5.21127">
        <ele>801.96</ele>
        <time>2018-12-05T14:06:49Z</time>
      </trkpt>
      <trkpt lat="45.00589" lon="5.21125">
        <ele>800.71</ele>
        <time>2018-12-05T14:06:51Z</time>
      </trkpt>
      <trkpt lat="45.00587" lon="5.21124">
        <ele>799.76</ele>
        <time>2018-12-05T14:06:52Z</time>
      </trkpt>
      <trkpt lat="45.00585" lon="5.21123">
        <ele>798.92</ele>
        <time>2018-12-05T14:06:53Z</time>
      </trkpt>
      <trkpt lat="45.00584" lon="5.21122">
        <ele>798.44</ele>
        <time>2018-12-05T14:06:54Z</time>
      </trkpt>
      <trkpt lat="45.00582" lon="5.2112">
        <ele>797.94</ele>
        <time>2018-12-05T14:06:55Z</time>
      </trkpt>
      <trkpt lat="45.00582" lon="5.21119">
        <ele>797.18</ele>
        <time>2018-12-05T14:06:56Z</time>
      </trkpt>
      <trkpt lat="45.00581" lon="5.21117">
        <ele>796.63</ele>
        <time>2018-12-05T14:06:57Z</time>
      </trkpt>
      <trkpt lat="45.00579" lon="5.21116">
        <ele>796.09</ele>
        <time>2018-12-05T14:06:58Z</time>
      </trkpt>
      <trkpt lat="45.00577" lon="5.21115">
        <ele>795.51</ele>
        <time>2018-12-05T14:06:59Z</time>
      </trkpt>
      <trkpt lat="45.00575" lon="5.21114">
        <ele>794.89</ele>
        <time>2018-12-05T14:07:00Z</time>
      </trkpt>
      <trkpt lat="45.00573" lon="5.21112">
        <ele>793.85</ele>
        <time>2018-12-05T14:07:01Z</time>
      </trkpt>
      <trkpt lat="45.00566" lon="5.21107">
        <ele>790.52</ele>
        <time>2018-12-05T14:07:06Z</time>
      </trkpt>
      <trkpt lat="45.00565" lon="5.21107">
        <ele>789.99</ele>
        <time>2018-12-05T14:07:07Z</time>
      </trkpt>
      <trkpt lat="45.00563" lon="5.21106">
        <ele>788.92</ele>
        <time>2018-12-05T14:07:08Z</time>
      </trkpt>
      <trkpt lat="45.00562" lon="5.21106">
        <ele>789.19</ele>
        <time>2018-12-05T14:07:09Z</time>
      </trkpt>
      <trkpt lat="45.00556" lon="5.21101">
        <ele>785.97</ele>
        <time>2018-12-05T14:07:16Z</time>
      </trkpt>
      <trkpt lat="45.00555" lon="5.211">
        <ele>785.77</ele>
        <time>2018-12-05T14:07:17Z</time>
      </trkpt>
      <trkpt lat="45.00553" lon="5.21099">
        <ele>784.28</ele>
        <time>2018-12-05T14:07:18Z</time>
      </trkpt>
      <trkpt lat="45.00547" lon="5.21093">
        <ele>781.25</ele>
        <time>2018-12-05T14:07:23Z</time>
      </trkpt>
      <trkpt lat="45.00546" lon="5.21092">
        <ele>780.5</ele>
        <time>2018-12-05T14:07:24Z</time>
      </trkpt>
      <trkpt lat="45.00544" lon="5.21091">
        <ele>779.34</ele>
        <time>2018-12-05T14:07:26Z</time>
      </trkpt>
      <trkpt lat="45.00542" lon="5.21089">
        <ele>778.54</ele>
        <time>2018-12-05T14:07:27Z</time>
      </trkpt>
      <trkpt lat="45.00541" lon="5.21088">
        <ele>777.46</ele>
        <time>2018-12-05T14:07:28Z</time>
      </trkpt>
      <trkpt lat="45.00538" lon="5.21086">
        <ele>776.29</ele>
        <time>2018-12-05T14:07:30Z</time>
      </trkpt>
      <trkpt lat="45.00533" lon="5.21083">
        <ele>773.08</ele>
        <time>2018-12-05T14:07:33Z</time>
      </trkpt>
      <trkpt lat="45.00528" lon="5.21078">
        <ele>771.51</ele>
        <time>2018-12-05T14:07:37Z</time>
      </trkpt>
      <trkpt lat="45.00527" lon="5.21077">
        <ele>771.72</ele>
        <time>2018-12-05T14:07:38Z</time>
      </trkpt>
      <trkpt lat="45.00525" lon="5.21076">
        <ele>771.38</ele>
        <time>2018-12-05T14:07:39Z</time>
      </trkpt>
      <trkpt lat="45.00524" lon="5.21076">
        <ele>770.68</ele>
        <time>2018-12-05T14:07:40Z</time>
      </trkpt>
      <trkpt lat="45.00523" lon="5.21075">
        <ele>770.47</ele>
        <time>2018-12-05T14:07:41Z</time>
      </trkpt>
      <trkpt lat="45.00521" lon="5.21074">
        <ele>770.4</ele>
        <time>2018-12-05T14:07:42Z</time>
      </trkpt>
      <trkpt lat="45.0052" lon="5.21074">
        <ele>770.05</ele>
        <time>2018-12-05T14:07:43Z</time>
      </trkpt>
      <trkpt lat="45.00519" lon="5.21073">
        <ele>769.81</ele>
        <time>2018-12-05T14:07:44Z</time>
      </trkpt>
      <trkpt lat="45.00518" lon="5.21072">
        <ele>769.52</ele>
        <time>2018-12-05T14:07:45Z</time>
      </trkpt>
      <trkpt lat="45.00516" lon="5.2107">
        <ele>769.21</ele>
        <time>2018-12-05T14:07:46Z</time>
      </trkpt>
      <trkpt lat="45.00515" lon="5.21069">
        <ele>768.88</ele>
        <time>2018-12-05T14:07:47Z</time>
      </trkpt>
      <trkpt lat="45.00512" lon="5.21066">
        <ele>768.38</ele>
        <time>2018-12-05T14:07:50Z</time>
      </trkpt>
      <trkpt lat="45.00505" lon="5.21064">
        <ele>766.57</ele>
        <time>2018-12-05T14:08:01Z</time>
      </trkpt>
      <trkpt lat="45.00507" lon="5.21059">
        <ele>766.92</ele>
        <time>2018-12-05T14:08:18Z</time>
      </trkpt>
      <trkpt lat="45.00506" lon="5.21058">
        <ele>766.13</ele>
        <time>2018-12-05T14:08:19Z</time>
      </trkpt>
      <trkpt lat="45.00504" lon="5.21054">
        <ele>765.53</ele>
        <time>2018-12-05T14:08:21Z</time>
      </trkpt>
      <trkpt lat="45.00497" lon="5.21047">
        <ele>763.67</ele>
        <time>2018-12-05T14:08:27Z</time>
      </trkpt>
      <trkpt lat="45.00495" lon="5.21046">
        <ele>763.23</ele>
        <time>2018-12-05T14:08:37Z</time>
      </trkpt>
      <trkpt lat="45.00492" lon="5.21044">
        <ele>762.91</ele>
        <time>2018-12-05T14:08:43Z</time>
      </trkpt>
      <trkpt lat="45.00485" lon="5.21042">
        <ele>762.09</ele>
        <time>2018-12-05T14:08:52Z</time>
      </trkpt>
      <trkpt lat="45.00481" lon="5.2104">
        <ele>760.67</ele>
        <time>2018-12-05T14:09:05Z</time>
      </trkpt>
      <trkpt lat="45.00479" lon="5.21039">
        <ele>760.27</ele>
        <time>2018-12-05T14:09:08Z</time>
      </trkpt>
      <trkpt lat="45.00478" lon="5.21038">
        <ele>759.93</ele>
        <time>2018-12-05T14:09:09Z</time>
      </trkpt>
      <trkpt lat="45.00477" lon="5.21037">
        <ele>759.66</ele>
        <time>2018-12-05T14:09:10Z</time>
      </trkpt>
      <trkpt lat="45.00475" lon="5.21037">
        <ele>759.3</ele>
        <time>2018-12-05T14:09:11Z</time>
      </trkpt>
      <trkpt lat="45.00474" lon="5.21036">
        <ele>759.05</ele>
        <time>2018-12-05T14:09:12Z</time>
      </trkpt>
      <trkpt lat="45.00473" lon="5.21036">
        <ele>758.91</ele>
        <time>2018-12-05T14:09:13Z</time>
      </trkpt>
      <trkpt lat="45.00472" lon="5.21035">
        <ele>758.82</ele>
        <time>2018-12-05T14:09:14Z</time>
      </trkpt>
      <trkpt lat="45.00462" lon="5.21029">
        <ele>756.74</ele>
        <time>2018-12-05T14:09:23Z</time>
      </trkpt>
      <trkpt lat="45.00452" lon="5.21022">
        <ele>755.13</ele>
        <time>2018-12-05T14:09:32Z</time>
      </trkpt>
      <trkpt lat="45.00442" lon="5.21015">
        <ele>754.19</ele>
        <time>2018-12-05T14:09:41Z</time>
      </trkpt>
      <trkpt lat="45.00439" lon="5.21012">
        <ele>753.89</ele>
        <time>2018-12-05T14:09:44Z</time>
      </trkpt>
      <trkpt lat="45.00438" lon="5.2101">
        <ele>753.61</ele>
        <time>2018-12-05T14:09:45Z</time>
      </trkpt>
      <trkpt lat="45.00436" lon="5.21009">
        <ele>753.58</ele>
        <time>2018-12-05T14:09:46Z</time>
      </trkpt>
      <trkpt lat="45.00435" lon="5.21008">
        <ele>753.59</ele>
        <time>2018-12-05T14:09:47Z</time>
      </trkpt>
      <trkpt lat="45.00434" lon="5.21007">
        <ele>753.3</ele>
        <time>2018-12-05T14:09:48Z</time>
      </trkpt>
      <trkpt lat="45.00432" lon="5.21006">
        <ele>753.12</ele>
        <time>2018-12-05T14:09:49Z</time>
      </trkpt>
      <trkpt lat="45.00431" lon="5.21005">
        <ele>753.27</ele>
        <time>2018-12-05T14:09:50Z</time>
      </trkpt>
      <trkpt lat="45.00425" lon="5.21">
        <ele>752.6</ele>
        <time>2018-12-05T14:09:56Z</time>
      </trkpt>
      <trkpt lat="45.00424" lon="5.20998">
        <ele>752.35</ele>
        <time>2018-12-05T14:09:57Z</time>
      </trkpt>
      <trkpt lat="45.00423" lon="5.20997">
        <ele>752.22</ele>
        <time>2018-12-05T14:09:58Z</time>
      </trkpt>
      <trkpt lat="45.00422" lon="5.20995">
        <ele>752.14</ele>
        <time>2018-12-05T14:09:59Z</time>
      </trkpt>
      <trkpt lat="45.00421" lon="5.20994">
        <ele>752.16</ele>
        <time>2018-12-05T14:10:00Z</time>
      </trkpt>
      <trkpt lat="45.0042" lon="5.20993">
        <ele>752.16</ele>
        <time>2018-12-05T14:10:01Z</time>
      </trkpt>
      <trkpt lat="45.00419" lon="5.20992">
        <ele>751.72</ele>
        <time>2018-12-05T14:10:02Z</time>
      </trkpt>
      <trkpt lat="45.00417" lon="5.2099">
        <ele>751.64</ele>
        <time>2018-12-05T14:10:04Z</time>
      </trkpt>
      <trkpt lat="45.00416" lon="5.2099">
        <ele>751.17</ele>
        <time>2018-12-05T14:10:05Z</time>
      </trkpt>
      <trkpt lat="45.00415" lon="5.20989">
        <ele>751.22</ele>
        <time>2018-12-05T14:10:06Z</time>
      </trkpt>
      <trkpt lat="45.00414" lon="5.20988">
        <ele>751.04</ele>
        <time>2018-12-05T14:10:07Z</time>
      </trkpt>
      <trkpt lat="45.00409" lon="5.2098">
        <ele>749.71</ele>
        <time>2018-12-05T14:10:15Z</time>
      </trkpt>
      <trkpt lat="45.00399" lon="5.20965">
        <ele>746.57</ele>
        <time>2018-12-05T14:10:27Z</time>
      </trkpt>
      <trkpt lat="45.00391" lon="5.20949">
        <ele>743.55</ele>
        <time>2018-12-05T14:10:39Z</time>
      </trkpt>
      <trkpt lat="45.00385" lon="5.20937">
        <ele>740.78</ele>
        <time>2018-12-05T14:10:49Z</time>
      </trkpt>
      <trkpt lat="45.00384" lon="5.20935">
        <ele>740.53</ele>
        <time>2018-12-05T14:10:50Z</time>
      </trkpt>
      <trkpt lat="45.00383" lon="5.20934">
        <ele>740.19</ele>
        <time>2018-12-05T14:10:51Z</time>
      </trkpt>
      <trkpt lat="45.00381" lon="5.20927">
        <ele>738.75</ele>
        <time>2018-12-05T14:10:55Z</time>
      </trkpt>
      <trkpt lat="45.0038" lon="5.20925">
        <ele>738.28</ele>
        <time>2018-12-05T14:10:56Z</time>
      </trkpt>
      <trkpt lat="45.00371" lon="5.20915">
        <ele>736.34</ele>
        <time>2018-12-05T14:11:05Z</time>
      </trkpt>
      <trkpt lat="45.0037" lon="5.20914">
        <ele>736.1</ele>
        <time>2018-12-05T14:11:06Z</time>
      </trkpt>
      <trkpt lat="45.00369" lon="5.20913">
        <ele>735.62</ele>
        <time>2018-12-05T14:11:07Z</time>
      </trkpt>
      <trkpt lat="45.00368" lon="5.20912">
        <ele>735.44</ele>
        <time>2018-12-05T14:11:08Z</time>
      </trkpt>
      <trkpt lat="45.00367" lon="5.20911">
        <ele>735.25</ele>
        <time>2018-12-05T14:11:09Z</time>
      </trkpt>
      <trkpt lat="45.00366" lon="5.2091">
        <ele>735.19</ele>
        <time>2018-12-05T14:11:10Z</time>
      </trkpt>
      <trkpt lat="45.00365" lon="5.20909">
        <ele>735.15</ele>
        <time>2018-12-05T14:11:11Z</time>
      </trkpt>
      <trkpt lat="45.00364" lon="5.20908">
        <ele>734.39</ele>
        <time>2018-12-05T14:11:12Z</time>
      </trkpt>
      <trkpt lat="45.00362" lon="5.20907">
        <ele>734.55</ele>
        <time>2018-12-05T14:11:13Z</time>
      </trkpt>
      <trkpt lat="45.00361" lon="5.20906">
        <ele>734.11</ele>
        <time>2018-12-05T14:11:14Z</time>
      </trkpt>
      <trkpt lat="45.0036" lon="5.20905">
        <ele>733.76</ele>
        <time>2018-12-05T14:11:15Z</time>
      </trkpt>
      <trkpt lat="45.00359" lon="5.20904">
        <ele>733.61</ele>
        <time>2018-12-05T14:11:16Z</time>
      </trkpt>
      <trkpt lat="45.00358" lon="5.20903">
        <ele>733.42</ele>
        <time>2018-12-05T14:11:17Z</time>
      </trkpt>
      <trkpt lat="45.00357" lon="5.20901">
        <ele>733.32</ele>
        <time>2018-12-05T14:11:18Z</time>
      </trkpt>
      <trkpt lat="45.00344" lon="5.20893">
        <ele>731.21</ele>
        <time>2018-12-05T14:11:29Z</time>
      </trkpt>
      <trkpt lat="45.00336" lon="5.20891">
        <ele>729.52</ele>
        <time>2018-12-05T14:11:38Z</time>
      </trkpt>
      <trkpt lat="45.00326" lon="5.20888">
        <ele>726.63</ele>
        <time>2018-12-05T14:11:49Z</time>
      </trkpt>
      <trkpt lat="45.00325" lon="5.20888">
        <ele>726.51</ele>
        <time>2018-12-05T14:11:50Z</time>
      </trkpt>
      <trkpt lat="45.00324" lon="5.20886">
        <ele>726.18</ele>
        <time>2018-12-05T14:11:51Z</time>
      </trkpt>
      <trkpt lat="45.00323" lon="5.20885">
        <ele>726</ele>
        <time>2018-12-05T14:11:52Z</time>
      </trkpt>
      <trkpt lat="45.00323" lon="5.20884">
        <ele>725.83</ele>
        <time>2018-12-05T14:11:53Z</time>
      </trkpt>
      <trkpt lat="45.00323" lon="5.20882">
        <ele>725.7</ele>
        <time>2018-12-05T14:11:54Z</time>
      </trkpt>
      <trkpt lat="45.00324" lon="5.20881">
        <ele>725.51</ele>
        <time>2018-12-05T14:11:55Z</time>
      </trkpt>
      <trkpt lat="45.00329" lon="5.20872">
        <ele>723.59</ele>
        <time>2018-12-05T14:12:02Z</time>
      </trkpt>
      <trkpt lat="45.00336" lon="5.20865">
        <ele>720.71</ele>
        <time>2018-12-05T14:12:10Z</time>
      </trkpt>
      <trkpt lat="45.00337" lon="5.20864">
        <ele>720.24</ele>
        <time>2018-12-05T14:12:11Z</time>
      </trkpt>
      <trkpt lat="45.00342" lon="5.20851">
        <ele>717.36</ele>
        <time>2018-12-05T14:12:22Z</time>
      </trkpt>
      <trkpt lat="45.00343" lon="5.20846">
        <ele>716.14</ele>
        <time>2018-12-05T14:12:25Z</time>
      </trkpt>
      <trkpt lat="45.00344" lon="5.20844">
        <ele>715.72</ele>
        <time>2018-12-05T14:12:26Z</time>
      </trkpt>
      <trkpt lat="45.00344" lon="5.20842">
        <ele>715.53</ele>
        <time>2018-12-05T14:12:27Z</time>
      </trkpt>
      <trkpt lat="45.00345" lon="5.2084">
        <ele>715.22</ele>
        <time>2018-12-05T14:12:28Z</time>
      </trkpt>
      <trkpt lat="45.00346" lon="5.20839">
        <ele>715.04</ele>
        <time>2018-12-05T14:12:29Z</time>
      </trkpt>
      <trkpt lat="45.00347" lon="5.20838">
        <ele>714.44</ele>
        <time>2018-12-05T14:12:30Z</time>
      </trkpt>
      <trkpt lat="45.00348" lon="5.20837">
        <ele>714.46</ele>
        <time>2018-12-05T14:12:31Z</time>
      </trkpt>
      <trkpt lat="45.00358" lon="5.20826">
        <ele>712.52</ele>
        <time>2018-12-05T14:12:41Z</time>
      </trkpt>
      <trkpt lat="45.00359" lon="5.20825">
        <ele>711.88</ele>
        <time>2018-12-05T14:12:42Z</time>
      </trkpt>
      <trkpt lat="45.00358" lon="5.20822">
        <ele>711.25</ele>
        <time>2018-12-05T14:12:43Z</time>
      </trkpt>
      <trkpt lat="45.00357" lon="5.2082">
        <ele>710.66</ele>
        <time>2018-12-05T14:12:44Z</time>
      </trkpt>
      <trkpt lat="45.00357" lon="5.20818">
        <ele>710.06</ele>
        <time>2018-12-05T14:12:45Z</time>
      </trkpt>
      <trkpt lat="45.00356" lon="5.20817">
        <ele>709.76</ele>
        <time>2018-12-05T14:12:46Z</time>
      </trkpt>
      <trkpt lat="45.00352" lon="5.20807">
        <ele>707.8</ele>
        <time>2018-12-05T14:12:56Z</time>
      </trkpt>
      <trkpt lat="45.00351" lon="5.20804">
        <ele>707.88</ele>
        <time>2018-12-05T14:12:58Z</time>
      </trkpt>
      <trkpt lat="45.00351" lon="5.20803">
        <ele>707.31</ele>
        <time>2018-12-05T14:12:59Z</time>
      </trkpt>
      <trkpt lat="45.00349" lon="5.20799">
        <ele>706.65</ele>
        <time>2018-12-05T14:13:02Z</time>
      </trkpt>
      <trkpt lat="45.00349" lon="5.20795">
        <ele>705.88</ele>
        <time>2018-12-05T14:13:06Z</time>
      </trkpt>
      <trkpt lat="45.00349" lon="5.20793">
        <ele>705.65</ele>
        <time>2018-12-05T14:13:07Z</time>
      </trkpt>
      <trkpt lat="45.00348" lon="5.20791">
        <ele>705.28</ele>
        <time>2018-12-05T14:13:08Z</time>
      </trkpt>
      <trkpt lat="45.00348" lon="5.20789">
        <ele>705.19</ele>
        <time>2018-12-05T14:13:09Z</time>
      </trkpt>
      <trkpt lat="45.00347" lon="5.20787">
        <ele>704.72</ele>
        <time>2018-12-05T14:13:10Z</time>
      </trkpt>
      <trkpt lat="45.00348" lon="5.20785">
        <ele>704.37</ele>
        <time>2018-12-05T14:13:11Z</time>
      </trkpt>
      <trkpt lat="45.00345" lon="5.20767">
        <ele>701.27</ele>
        <time>2018-12-05T14:13:21Z</time>
      </trkpt>
      <trkpt lat="45.00346" lon="5.20759">
        <ele>699.45</ele>
        <time>2018-12-05T14:13:26Z</time>
      </trkpt>
      <trkpt lat="45.00346" lon="5.20758">
        <ele>699.34</ele>
        <time>2018-12-05T14:13:27Z</time>
      </trkpt>
      <trkpt lat="45.00344" lon="5.20739">
        <ele>696.62</ele>
        <time>2018-12-05T14:13:38Z</time>
      </trkpt>
      <trkpt lat="45.00343" lon="5.20725">
        <ele>693.42</ele>
        <time>2018-12-05T14:13:47Z</time>
      </trkpt>
      <trkpt lat="45.00343" lon="5.20721">
        <ele>692.63</ele>
        <time>2018-12-05T14:13:49Z</time>
      </trkpt>
      <trkpt lat="45.00341" lon="5.20713">
        <ele>691.14</ele>
        <time>2018-12-05T14:13:54Z</time>
      </trkpt>
      <trkpt lat="45.00341" lon="5.20711">
        <ele>690.78</ele>
        <time>2018-12-05T14:13:55Z</time>
      </trkpt>
      <trkpt lat="45.00337" lon="5.20699">
        <ele>688.63</ele>
        <time>2018-12-05T14:14:04Z</time>
      </trkpt>
      <trkpt lat="45.00334" lon="5.20693">
        <ele>687.98</ele>
        <time>2018-12-05T14:14:15Z</time>
      </trkpt>
      <trkpt lat="45.00331" lon="5.20696">
        <ele>687.41</ele>
        <time>2018-12-05T14:14:33Z</time>
      </trkpt>
      <trkpt lat="45.00332" lon="5.20698">
        <ele>687.18</ele>
        <time>2018-12-05T14:14:52Z</time>
      </trkpt>
      <trkpt lat="45.00331" lon="5.20698">
        <ele>687.39</ele>
        <time>2018-12-05T14:15:11Z</time>
      </trkpt>
      <trkpt lat="45.00333" lon="5.20692">
        <ele>687.82</ele>
        <time>2018-12-05T14:15:15Z</time>
      </trkpt>
      <trkpt lat="45.00333" lon="5.20691">
        <ele>687.69</ele>
        <time>2018-12-05T14:15:16Z</time>
      </trkpt>
      <trkpt lat="45.00333" lon="5.20689">
        <ele>687.37</ele>
        <time>2018-12-05T14:15:17Z</time>
      </trkpt>
      <trkpt lat="45.00333" lon="5.20687">
        <ele>687.29</ele>
        <time>2018-12-05T14:15:18Z</time>
      </trkpt>
      <trkpt lat="45.00333" lon="5.20685">
        <ele>687.16</ele>
        <time>2018-12-05T14:15:19Z</time>
      </trkpt>
      <trkpt lat="45.00333" lon="5.20683">
        <ele>687.01</ele>
        <time>2018-12-05T14:15:20Z</time>
      </trkpt>
      <trkpt lat="45.00333" lon="5.20681">
        <ele>686.63</ele>
        <time>2018-12-05T14:15:21Z</time>
      </trkpt>
      <trkpt lat="45.00333" lon="5.20679">
        <ele>686.44</ele>
        <time>2018-12-05T14:15:22Z</time>
      </trkpt>
      <trkpt lat="45.00333" lon="5.20677">
        <ele>686.36</ele>
        <time>2018-12-05T14:15:23Z</time>
      </trkpt>
      <trkpt lat="45.00332" lon="5.20669">
        <ele>685.4</ele>
        <time>2018-12-05T14:15:27Z</time>
      </trkpt>
      <trkpt lat="45.00332" lon="5.20667">
        <ele>685.11</ele>
        <time>2018-12-05T14:15:28Z</time>
      </trkpt>
      <trkpt lat="45.00333" lon="5.20665">
        <ele>685.09</ele>
        <time>2018-12-05T14:15:29Z</time>
      </trkpt>
      <trkpt lat="45.00332" lon="5.20663">
        <ele>684.55</ele>
        <time>2018-12-05T14:15:30Z</time>
      </trkpt>
      <trkpt lat="45.00332" lon="5.20661">
        <ele>684.41</ele>
        <time>2018-12-05T14:15:31Z</time>
      </trkpt>
      <trkpt lat="45.00332" lon="5.20659">
        <ele>684.21</ele>
        <time>2018-12-05T14:15:32Z</time>
      </trkpt>
      <trkpt lat="45.00331" lon="5.20657">
        <ele>684.11</ele>
        <time>2018-12-05T14:15:33Z</time>
      </trkpt>
      <trkpt lat="45.00331" lon="5.20655">
        <ele>684.02</ele>
        <time>2018-12-05T14:15:34Z</time>
      </trkpt>
      <trkpt lat="45.00331" lon="5.20653">
        <ele>683.65</ele>
        <time>2018-12-05T14:15:35Z</time>
      </trkpt>
      <trkpt lat="45.00331" lon="5.20651">
        <ele>683.61</ele>
        <time>2018-12-05T14:15:36Z</time>
      </trkpt>
      <trkpt lat="45.00331" lon="5.20649">
        <ele>683.44</ele>
        <time>2018-12-05T14:15:37Z</time>
      </trkpt>
      <trkpt lat="45.00331" lon="5.20647">
        <ele>683.23</ele>
        <time>2018-12-05T14:15:38Z</time>
      </trkpt>
      <trkpt lat="45.00331" lon="5.20645">
        <ele>683.09</ele>
        <time>2018-12-05T14:15:39Z</time>
      </trkpt>
      <trkpt lat="45.00331" lon="5.20643">
        <ele>682.94</ele>
        <time>2018-12-05T14:15:40Z</time>
      </trkpt>
      <trkpt lat="45.00331" lon="5.20641">
        <ele>682.51</ele>
        <time>2018-12-05T14:15:41Z</time>
      </trkpt>
      <trkpt lat="45.00331" lon="5.2064">
        <ele>682.32</ele>
        <time>2018-12-05T14:15:42Z</time>
      </trkpt>
      <trkpt lat="45.0033" lon="5.20638">
        <ele>682.18</ele>
        <time>2018-12-05T14:15:43Z</time>
      </trkpt>
      <trkpt lat="45.00331" lon="5.20636">
        <ele>682.01</ele>
        <time>2018-12-05T14:15:44Z</time>
      </trkpt>
      <trkpt lat="45.00331" lon="5.20634">
        <ele>681.84</ele>
        <time>2018-12-05T14:15:45Z</time>
      </trkpt>
      <trkpt lat="45.00331" lon="5.20632">
        <ele>681.65</ele>
        <time>2018-12-05T14:15:46Z</time>
      </trkpt>
      <trkpt lat="45.0033" lon="5.20628">
        <ele>681.26</ele>
        <time>2018-12-05T14:15:48Z</time>
      </trkpt>
      <trkpt lat="45.0033" lon="5.20626">
        <ele>680.91</ele>
        <time>2018-12-05T14:15:49Z</time>
      </trkpt>
      <trkpt lat="45.0033" lon="5.20623">
        <ele>680.95</ele>
        <time>2018-12-05T14:15:50Z</time>
      </trkpt>
      <trkpt lat="45.0033" lon="5.20621">
        <ele>680.98</ele>
        <time>2018-12-05T14:15:51Z</time>
      </trkpt>
      <trkpt lat="45.0033" lon="5.20619">
        <ele>680.65</ele>
        <time>2018-12-05T14:15:52Z</time>
      </trkpt>
      <trkpt lat="45.0033" lon="5.20617">
        <ele>680.3</ele>
        <time>2018-12-05T14:15:53Z</time>
      </trkpt>
      <trkpt lat="45.0033" lon="5.20615">
        <ele>679.93</ele>
        <time>2018-12-05T14:15:54Z</time>
      </trkpt>
      <trkpt lat="45.0033" lon="5.20612">
        <ele>679.8</ele>
        <time>2018-12-05T14:15:55Z</time>
      </trkpt>
      <trkpt lat="45.00329" lon="5.2061">
        <ele>679.55</ele>
        <time>2018-12-05T14:15:56Z</time>
      </trkpt>
      <trkpt lat="45.00328" lon="5.20601">
        <ele>678.9</ele>
        <time>2018-12-05T14:16:00Z</time>
      </trkpt>
      <trkpt lat="45.00328" lon="5.20599">
        <ele>678.61</ele>
        <time>2018-12-05T14:16:01Z</time>
      </trkpt>
      <trkpt lat="45.00328" lon="5.20597">
        <ele>678.4</ele>
        <time>2018-12-05T14:16:02Z</time>
      </trkpt>
      <trkpt lat="45.00327" lon="5.20595">
        <ele>678.27</ele>
        <time>2018-12-05T14:16:03Z</time>
      </trkpt>
      <trkpt lat="45.00326" lon="5.20593">
        <ele>678.17</ele>
        <time>2018-12-05T14:16:04Z</time>
      </trkpt>
      <trkpt lat="45.00326" lon="5.20591">
        <ele>677.89</ele>
        <time>2018-12-05T14:16:05Z</time>
      </trkpt>
      <trkpt lat="45.00321" lon="5.20575">
        <ele>676.75</ele>
        <time>2018-12-05T14:16:13Z</time>
      </trkpt>
      <trkpt lat="45.0032" lon="5.20573">
        <ele>676.45</ele>
        <time>2018-12-05T14:16:14Z</time>
      </trkpt>
      <trkpt lat="45.00319" lon="5.20571">
        <ele>675.97</ele>
        <time>2018-12-05T14:16:15Z</time>
      </trkpt>
      <trkpt lat="45.00319" lon="5.20569">
        <ele>676.17</ele>
        <time>2018-12-05T14:16:16Z</time>
      </trkpt>
      <trkpt lat="45.00319" lon="5.20567">
        <ele>676.09</ele>
        <time>2018-12-05T14:16:17Z</time>
      </trkpt>
      <trkpt lat="45.00319" lon="5.2056">
        <ele>675.48</ele>
        <time>2018-12-05T14:16:21Z</time>
      </trkpt>
      <trkpt lat="45.00319" lon="5.20558">
        <ele>675.22</ele>
        <time>2018-12-05T14:16:22Z</time>
      </trkpt>
      <trkpt lat="45.00319" lon="5.20556">
        <ele>674.95</ele>
        <time>2018-12-05T14:16:23Z</time>
      </trkpt>
      <trkpt lat="45.00318" lon="5.20554">
        <ele>674.47</ele>
        <time>2018-12-05T14:16:24Z</time>
      </trkpt>
      <trkpt lat="45.00318" lon="5.20553">
        <ele>674.39</ele>
        <time>2018-12-05T14:16:25Z</time>
      </trkpt>
      <trkpt lat="45.00318" lon="5.20551">
        <ele>674.37</ele>
        <time>2018-12-05T14:16:26Z</time>
      </trkpt>
      <trkpt lat="45.00318" lon="5.20549">
        <ele>674.23</ele>
        <time>2018-12-05T14:16:27Z</time>
      </trkpt>
      <trkpt lat="45.00318" lon="5.20547">
        <ele>674.15</ele>
        <time>2018-12-05T14:16:28Z</time>
      </trkpt>
      <trkpt lat="45.00319" lon="5.20545">
        <ele>673.94</ele>
        <time>2018-12-05T14:16:29Z</time>
      </trkpt>
      <trkpt lat="45.00319" lon="5.20543">
        <ele>673.77</ele>
        <time>2018-12-05T14:16:30Z</time>
      </trkpt>
      <trkpt lat="45.00319" lon="5.20541">
        <ele>673.67</ele>
        <time>2018-12-05T14:16:31Z</time>
      </trkpt>
      <trkpt lat="45.00319" lon="5.20539">
        <ele>673.57</ele>
        <time>2018-12-05T14:16:32Z</time>
      </trkpt>
      <trkpt lat="45.00319" lon="5.20537">
        <ele>673.16</ele>
        <time>2018-12-05T14:16:33Z</time>
      </trkpt>
      <trkpt lat="45.00318" lon="5.20535">
        <ele>672.81</ele>
        <time>2018-12-05T14:16:34Z</time>
      </trkpt>
      <trkpt lat="45.00318" lon="5.20534">
        <ele>672.68</ele>
        <time>2018-12-05T14:16:35Z</time>
      </trkpt>
      <trkpt lat="45.00319" lon="5.20532">
        <ele>672.37</ele>
        <time>2018-12-05T14:16:36Z</time>
      </trkpt>
      <trkpt lat="45.00319" lon="5.20528">
        <ele>672.08</ele>
        <time>2018-12-05T14:16:38Z</time>
      </trkpt>
      <trkpt lat="45.00319" lon="5.20527">
        <ele>671.93</ele>
        <time>2018-12-05T14:16:39Z</time>
      </trkpt>
      <trkpt lat="45.00319" lon="5.20525">
        <ele>671.81</ele>
        <time>2018-12-05T14:16:40Z</time>
      </trkpt>
      <trkpt lat="45.00319" lon="5.20523">
        <ele>671.51</ele>
        <time>2018-12-05T14:16:41Z</time>
      </trkpt>
      <trkpt lat="45.00319" lon="5.20521">
        <ele>671.1</ele>
        <time>2018-12-05T14:16:42Z</time>
      </trkpt>
      <trkpt lat="45.00319" lon="5.20519">
        <ele>670.87</ele>
        <time>2018-12-05T14:16:43Z</time>
      </trkpt>
      <trkpt lat="45.00319" lon="5.20517">
        <ele>670.56</ele>
        <time>2018-12-05T14:16:44Z</time>
      </trkpt>
      <trkpt lat="45.00319" lon="5.20515">
        <ele>670.42</ele>
        <time>2018-12-05T14:16:45Z</time>
      </trkpt>
      <trkpt lat="45.00319" lon="5.20513">
        <ele>670.12</ele>
        <time>2018-12-05T14:16:46Z</time>
      </trkpt>
      <trkpt lat="45.00319" lon="5.20511">
        <ele>669.92</ele>
        <time>2018-12-05T14:16:47Z</time>
      </trkpt>
      <trkpt lat="45.00318" lon="5.20495">
        <ele>668.48</ele>
        <time>2018-12-05T14:16:55Z</time>
      </trkpt>
      <trkpt lat="45.00317" lon="5.20486">
        <ele>667.42</ele>
        <time>2018-12-05T14:17:00Z</time>
      </trkpt>
      <trkpt lat="45.00317" lon="5.20484">
        <ele>667</ele>
        <time>2018-12-05T14:17:01Z</time>
      </trkpt>
      <trkpt lat="45.00317" lon="5.20482">
        <ele>666.62</ele>
        <time>2018-12-05T14:17:02Z</time>
      </trkpt>
      <trkpt lat="45.00317" lon="5.2048">
        <ele>666.5</ele>
        <time>2018-12-05T14:17:03Z</time>
      </trkpt>
      <trkpt lat="45.00317" lon="5.20478">
        <ele>665.97</ele>
        <time>2018-12-05T14:17:04Z</time>
      </trkpt>
      <trkpt lat="45.00315" lon="5.20468">
        <ele>665.06</ele>
        <time>2018-12-05T14:17:10Z</time>
      </trkpt>
      <trkpt lat="45.00314" lon="5.20467">
        <ele>664.99</ele>
        <time>2018-12-05T14:17:11Z</time>
      </trkpt>
      <trkpt lat="45.00314" lon="5.20465">
        <ele>664.65</ele>
        <time>2018-12-05T14:17:12Z</time>
      </trkpt>
      <trkpt lat="45.0031" lon="5.20446">
        <ele>663.11</ele>
        <time>2018-12-05T14:17:23Z</time>
      </trkpt>
      <trkpt lat="45.00308" lon="5.20431">
        <ele>661.93</ele>
        <time>2018-12-05T14:17:32Z</time>
      </trkpt>
      <trkpt lat="45.00307" lon="5.20422">
        <ele>661.05</ele>
        <time>2018-12-05T14:17:37Z</time>
      </trkpt>
      <trkpt lat="45.00307" lon="5.2042">
        <ele>660.78</ele>
        <time>2018-12-05T14:17:38Z</time>
      </trkpt>
      <trkpt lat="45.00308" lon="5.20405">
        <ele>659.13</ele>
        <time>2018-12-05T14:17:48Z</time>
      </trkpt>
      <trkpt lat="45.00307" lon="5.20403">
        <ele>658.86</ele>
        <time>2018-12-05T14:17:49Z</time>
      </trkpt>
      <trkpt lat="45.00305" lon="5.20386">
        <ele>656.42</ele>
        <time>2018-12-05T14:18:00Z</time>
      </trkpt>
      <trkpt lat="45.00305" lon="5.2038">
        <ele>655.39</ele>
        <time>2018-12-05T14:18:04Z</time>
      </trkpt>
      <trkpt lat="45.00305" lon="5.20379">
        <ele>655.2</ele>
        <time>2018-12-05T14:18:05Z</time>
      </trkpt>
      <trkpt lat="45.00305" lon="5.20377">
        <ele>655.1</ele>
        <time>2018-12-05T14:18:06Z</time>
      </trkpt>
      <trkpt lat="45.00305" lon="5.20375">
        <ele>654.92</ele>
        <time>2018-12-05T14:18:07Z</time>
      </trkpt>
      <trkpt lat="45.003" lon="5.20358">
        <ele>653.88</ele>
        <time>2018-12-05T14:18:19Z</time>
      </trkpt>
      <trkpt lat="45.003" lon="5.20357">
        <ele>653.84</ele>
        <time>2018-12-05T14:18:20Z</time>
      </trkpt>
      <trkpt lat="45.003" lon="5.20355">
        <ele>653.61</ele>
        <time>2018-12-05T14:18:21Z</time>
      </trkpt>
      <trkpt lat="45.00299" lon="5.20353">
        <ele>653.28</ele>
        <time>2018-12-05T14:18:22Z</time>
      </trkpt>
      <trkpt lat="45.00299" lon="5.20351">
        <ele>653.35</ele>
        <time>2018-12-05T14:18:23Z</time>
      </trkpt>
      <trkpt lat="45.00298" lon="5.2035">
        <ele>653.45</ele>
        <time>2018-12-05T14:18:24Z</time>
      </trkpt>
      <trkpt lat="45.00294" lon="5.20327">
        <ele>651.78</ele>
        <time>2018-12-05T14:18:37Z</time>
      </trkpt>
      <trkpt lat="45.00293" lon="5.20322">
        <ele>651.75</ele>
        <time>2018-12-05T14:18:40Z</time>
      </trkpt>
      <trkpt lat="45.00292" lon="5.2032">
        <ele>651.47</ele>
        <time>2018-12-05T14:18:41Z</time>
      </trkpt>
      <trkpt lat="45.00292" lon="5.20318">
        <ele>651.39</ele>
        <time>2018-12-05T14:18:42Z</time>
      </trkpt>
      <trkpt lat="45.00291" lon="5.20315">
        <ele>651.2</ele>
        <time>2018-12-05T14:18:44Z</time>
      </trkpt>
      <trkpt lat="45.00291" lon="5.20314">
        <ele>651.13</ele>
        <time>2018-12-05T14:18:45Z</time>
      </trkpt>
      <trkpt lat="45.0029" lon="5.20312">
        <ele>650.95</ele>
        <time>2018-12-05T14:18:46Z</time>
      </trkpt>
      <trkpt lat="45.0029" lon="5.2031">
        <ele>650.97</ele>
        <time>2018-12-05T14:18:47Z</time>
      </trkpt>
      <trkpt lat="45.00289" lon="5.20309">
        <ele>650.73</ele>
        <time>2018-12-05T14:18:48Z</time>
      </trkpt>
      <trkpt lat="45.00289" lon="5.20307">
        <ele>650.74</ele>
        <time>2018-12-05T14:18:49Z</time>
      </trkpt>
      <trkpt lat="45.00288" lon="5.20306">
        <ele>650.67</ele>
        <time>2018-12-05T14:18:50Z</time>
      </trkpt>
      <trkpt lat="45.00287" lon="5.20304">
        <ele>650.66</ele>
        <time>2018-12-05T14:18:51Z</time>
      </trkpt>
      <trkpt lat="45.00278" lon="5.20283">
        <ele>649.29</ele>
        <time>2018-12-05T14:19:03Z</time>
      </trkpt>
      <trkpt lat="45.00272" lon="5.20267">
        <ele>648.13</ele>
        <time>2018-12-05T14:19:12Z</time>
      </trkpt>
      <trkpt lat="45.00263" lon="5.20246">
        <ele>646.83</ele>
        <time>2018-12-05T14:19:24Z</time>
      </trkpt>
      <trkpt lat="45.00255" lon="5.20231">
        <ele>645.34</ele>
        <time>2018-12-05T14:19:33Z</time>
      </trkpt>
      <trkpt lat="45.00243" lon="5.20212">
        <ele>643.48</ele>
        <time>2018-12-05T14:19:45Z</time>
      </trkpt>
      <trkpt lat="45.00235" lon="5.20198">
        <ele>642.17</ele>
        <time>2018-12-05T14:19:54Z</time>
      </trkpt>
      <trkpt lat="45.00234" lon="5.20197">
        <ele>642.19</ele>
        <time>2018-12-05T14:19:55Z</time>
      </trkpt>
      <trkpt lat="45.00234" lon="5.20195">
        <ele>641.85</ele>
        <time>2018-12-05T14:19:56Z</time>
      </trkpt>
      <trkpt lat="45.00226" lon="5.20176">
        <ele>639.68</ele>
        <time>2018-12-05T14:20:08Z</time>
      </trkpt>
      <trkpt lat="45.00219" lon="5.20154">
        <ele>637.8</ele>
        <time>2018-12-05T14:20:22Z</time>
      </trkpt>
      <trkpt lat="45.00214" lon="5.20137">
        <ele>636.3</ele>
        <time>2018-12-05T14:20:33Z</time>
      </trkpt>
      <trkpt lat="45.00206" lon="5.20114">
        <ele>634.02</ele>
        <time>2018-12-05T14:20:48Z</time>
      </trkpt>
      <trkpt lat="45.00197" lon="5.20096">
        <ele>632.69</ele>
        <time>2018-12-05T14:21:00Z</time>
      </trkpt>
      <trkpt lat="45.00194" lon="5.20089">
        <ele>632.16</ele>
        <time>2018-12-05T14:21:04Z</time>
      </trkpt>
      <trkpt lat="45.00193" lon="5.20088">
        <ele>632.28</ele>
        <time>2018-12-05T14:21:05Z</time>
      </trkpt>
      <trkpt lat="45.00192" lon="5.20087">
        <ele>632</ele>
        <time>2018-12-05T14:21:06Z</time>
      </trkpt>
      <trkpt lat="45.00191" lon="5.20086">
        <ele>631.85</ele>
        <time>2018-12-05T14:21:07Z</time>
      </trkpt>
      <trkpt lat="45.00191" lon="5.20085">
        <ele>631.4</ele>
        <time>2018-12-05T14:21:08Z</time>
      </trkpt>
      <trkpt lat="45.00187" lon="5.20077">
        <ele>631.46</ele>
        <time>2018-12-05T14:21:13Z</time>
      </trkpt>
      <trkpt lat="45.00186" lon="5.20075">
        <ele>631.11</ele>
        <time>2018-12-05T14:21:14Z</time>
      </trkpt>
      <trkpt lat="45.00184" lon="5.20071">
        <ele>630.59</ele>
        <time>2018-12-05T14:21:17Z</time>
      </trkpt>
      <trkpt lat="45.00183" lon="5.20069">
        <ele>630.56</ele>
        <time>2018-12-05T14:21:18Z</time>
      </trkpt>
      <trkpt lat="45.00182" lon="5.20068">
        <ele>630.4</ele>
        <time>2018-12-05T14:21:19Z</time>
      </trkpt>
      <trkpt lat="45.00181" lon="5.20066">
        <ele>630.38</ele>
        <time>2018-12-05T14:21:20Z</time>
      </trkpt>
      <trkpt lat="45.00181" lon="5.20064">
        <ele>630.07</ele>
        <time>2018-12-05T14:21:21Z</time>
      </trkpt>
      <trkpt lat="45.00179" lon="5.20061">
        <ele>629.78</ele>
        <time>2018-12-05T14:21:23Z</time>
      </trkpt>
      <trkpt lat="45.00178" lon="5.20059">
        <ele>629.59</ele>
        <time>2018-12-05T14:21:24Z</time>
      </trkpt>
      <trkpt lat="45.00178" lon="5.20057">
        <ele>629.54</ele>
        <time>2018-12-05T14:21:25Z</time>
      </trkpt>
      <trkpt lat="45.00177" lon="5.20056">
        <ele>629.43</ele>
        <time>2018-12-05T14:21:26Z</time>
      </trkpt>
      <trkpt lat="45.00176" lon="5.20055">
        <ele>629.24</ele>
        <time>2018-12-05T14:21:27Z</time>
      </trkpt>
      <trkpt lat="45.00176" lon="5.20053">
        <ele>629.07</ele>
        <time>2018-12-05T14:21:28Z</time>
      </trkpt>
      <trkpt lat="45.00175" lon="5.20052">
        <ele>629.04</ele>
        <time>2018-12-05T14:21:29Z</time>
      </trkpt>
      <trkpt lat="45.00174" lon="5.2005">
        <ele>628.97</ele>
        <time>2018-12-05T14:21:30Z</time>
      </trkpt>
      <trkpt lat="45.00173" lon="5.20048">
        <ele>628.93</ele>
        <time>2018-12-05T14:21:31Z</time>
      </trkpt>
      <trkpt lat="45.00173" lon="5.20047">
        <ele>628.81</ele>
        <time>2018-12-05T14:21:32Z</time>
      </trkpt>
      <trkpt lat="45.00172" lon="5.20045">
        <ele>628.51</ele>
        <time>2018-12-05T14:21:33Z</time>
      </trkpt>
      <trkpt lat="45.00172" lon="5.20043">
        <ele>628.57</ele>
        <time>2018-12-05T14:21:34Z</time>
      </trkpt>
      <trkpt lat="45.00171" lon="5.20041">
        <ele>628.64</ele>
        <time>2018-12-05T14:21:35Z</time>
      </trkpt>
      <trkpt lat="45.0017" lon="5.2004">
        <ele>628.6</ele>
        <time>2018-12-05T14:21:36Z</time>
      </trkpt>
      <trkpt lat="45.00169" lon="5.20038">
        <ele>628.35</ele>
        <time>2018-12-05T14:21:37Z</time>
      </trkpt>
      <trkpt lat="45.00169" lon="5.20037">
        <ele>628.2</ele>
        <time>2018-12-05T14:21:38Z</time>
      </trkpt>
      <trkpt lat="45.00168" lon="5.20035">
        <ele>628.03</ele>
        <time>2018-12-05T14:21:39Z</time>
      </trkpt>
      <trkpt lat="45.00166" lon="5.20032">
        <ele>627.59</ele>
        <time>2018-12-05T14:21:41Z</time>
      </trkpt>
      <trkpt lat="45.00165" lon="5.2003">
        <ele>627.78</ele>
        <time>2018-12-05T14:21:42Z</time>
      </trkpt>
      <trkpt lat="45.00161" lon="5.20023">
        <ele>627.22</ele>
        <time>2018-12-05T14:21:47Z</time>
      </trkpt>
      <trkpt lat="45.0016" lon="5.20021">
        <ele>626.92</ele>
        <time>2018-12-05T14:21:48Z</time>
      </trkpt>
      <trkpt lat="45.0016" lon="5.20019">
        <ele>626.96</ele>
        <time>2018-12-05T14:21:49Z</time>
      </trkpt>
      <trkpt lat="45.00159" lon="5.20018">
        <ele>626.95</ele>
        <time>2018-12-05T14:21:50Z</time>
      </trkpt>
      <trkpt lat="45.00159" lon="5.20016">
        <ele>626.68</ele>
        <time>2018-12-05T14:21:51Z</time>
      </trkpt>
      <trkpt lat="45.00158" lon="5.20015">
        <ele>626.61</ele>
        <time>2018-12-05T14:21:52Z</time>
      </trkpt>
      <trkpt lat="45.00157" lon="5.20014">
        <ele>626.6</ele>
        <time>2018-12-05T14:21:53Z</time>
      </trkpt>
      <trkpt lat="45.00156" lon="5.20013">
        <ele>626.41</ele>
        <time>2018-12-05T14:21:54Z</time>
      </trkpt>
      <trkpt lat="45.00155" lon="5.20011">
        <ele>626.19</ele>
        <time>2018-12-05T14:21:55Z</time>
      </trkpt>
      <trkpt lat="45.00152" lon="5.2001">
        <ele>625.83</ele>
        <time>2018-12-05T14:21:57Z</time>
      </trkpt>
      <trkpt lat="45.00151" lon="5.20009">
        <ele>625.68</ele>
        <time>2018-12-05T14:21:58Z</time>
      </trkpt>
      <trkpt lat="45.0015" lon="5.20008">
        <ele>625.65</ele>
        <time>2018-12-05T14:21:59Z</time>
      </trkpt>
      <trkpt lat="45.00149" lon="5.20007">
        <ele>625.53</ele>
        <time>2018-12-05T14:22:00Z</time>
      </trkpt>
      <trkpt lat="45.00148" lon="5.20006">
        <ele>625.32</ele>
        <time>2018-12-05T14:22:01Z</time>
      </trkpt>
      <trkpt lat="45.00147" lon="5.20005">
        <ele>625.27</ele>
        <time>2018-12-05T14:22:02Z</time>
      </trkpt>
      <trkpt lat="45.00145" lon="5.20004">
        <ele>625.18</ele>
        <time>2018-12-05T14:22:03Z</time>
      </trkpt>
      <trkpt lat="45.0014" lon="5.20001">
        <ele>624.48</ele>
        <time>2018-12-05T14:22:08Z</time>
      </trkpt>
      <trkpt lat="45.00138" lon="5.2">
        <ele>624.43</ele>
        <time>2018-12-05T14:22:09Z</time>
      </trkpt>
      <trkpt lat="45.00124" lon="5.19987">
        <ele>622.33</ele>
        <time>2018-12-05T14:22:22Z</time>
      </trkpt>
      <trkpt lat="45.00111" lon="5.1998">
        <ele>620.86</ele>
        <time>2018-12-05T14:22:32Z</time>
      </trkpt>
      <trkpt lat="45.001" lon="5.19972">
        <ele>619.7</ele>
        <time>2018-12-05T14:22:42Z</time>
      </trkpt>
      <trkpt lat="45.00091" lon="5.19965">
        <ele>618.93</ele>
        <time>2018-12-05T14:22:50Z</time>
      </trkpt>
      <trkpt lat="45.00079" lon="5.19958">
        <ele>617.46</ele>
        <time>2018-12-05T14:23:00Z</time>
      </trkpt>
      <trkpt lat="45.00078" lon="5.19957">
        <ele>617.22</ele>
        <time>2018-12-05T14:23:01Z</time>
      </trkpt>
      <trkpt lat="45.00077" lon="5.19957">
        <ele>617.19</ele>
        <time>2018-12-05T14:23:02Z</time>
      </trkpt>
      <trkpt lat="45.00076" lon="5.19956">
        <ele>617.22</ele>
        <time>2018-12-05T14:23:03Z</time>
      </trkpt>
      <trkpt lat="45.00076" lon="5.19955">
        <ele>617.12</ele>
        <time>2018-12-05T14:23:04Z</time>
      </trkpt>
      <trkpt lat="45.00075" lon="5.19954">
        <ele>617.05</ele>
        <time>2018-12-05T14:23:05Z</time>
      </trkpt>
      <trkpt lat="45.00074" lon="5.19953">
        <ele>617.08</ele>
        <time>2018-12-05T14:23:06Z</time>
      </trkpt>
      <trkpt lat="45.00073" lon="5.19952">
        <ele>616.8</ele>
        <time>2018-12-05T14:23:07Z</time>
      </trkpt>
      <trkpt lat="45.00071" lon="5.19951">
        <ele>616.77</ele>
        <time>2018-12-05T14:23:08Z</time>
      </trkpt>
      <trkpt lat="45.00057" lon="5.19947">
        <ele>615.78</ele>
        <time>2018-12-05T14:23:19Z</time>
      </trkpt>
      <trkpt lat="45.00045" lon="5.19942">
        <ele>614.86</ele>
        <time>2018-12-05T14:23:28Z</time>
      </trkpt>
      <trkpt lat="45.00036" lon="5.19941">
        <ele>614.05</ele>
        <time>2018-12-05T14:23:35Z</time>
      </trkpt>
      <trkpt lat="45.00035" lon="5.1994">
        <ele>613.81</ele>
        <time>2018-12-05T14:23:36Z</time>
      </trkpt>
      <trkpt lat="45.00034" lon="5.19939">
        <ele>613.89</ele>
        <time>2018-12-05T14:23:37Z</time>
      </trkpt>
      <trkpt lat="45.00033" lon="5.19938">
        <ele>613.59</ele>
        <time>2018-12-05T14:23:38Z</time>
      </trkpt>
      <trkpt lat="45.00032" lon="5.19937">
        <ele>613.46</ele>
        <time>2018-12-05T14:23:39Z</time>
      </trkpt>
      <trkpt lat="45.00031" lon="5.19936">
        <ele>613.31</ele>
        <time>2018-12-05T14:23:40Z</time>
      </trkpt>
      <trkpt lat="45.0003" lon="5.19935">
        <ele>613.12</ele>
        <time>2018-12-05T14:23:41Z</time>
      </trkpt>
      <trkpt lat="45.00029" lon="5.19934">
        <ele>612.9</ele>
        <time>2018-12-05T14:23:42Z</time>
      </trkpt>
      <trkpt lat="45.00027" lon="5.19934">
        <ele>612.32</ele>
        <time>2018-12-05T14:23:44Z</time>
      </trkpt>
      <trkpt lat="45.00024" lon="5.19933">
        <ele>611.94</ele>
        <time>2018-12-05T14:23:46Z</time>
      </trkpt>
      <trkpt lat="45.00021" lon="5.19931">
        <ele>611.3</ele>
        <time>2018-12-05T14:23:49Z</time>
      </trkpt>
      <trkpt lat="45.00012" lon="5.1993">
        <ele>609.77</ele>
        <time>2018-12-05T14:23:58Z</time>
      </trkpt>
      <trkpt lat="45.00004" lon="5.19929">
        <ele>608.49</ele>
        <time>2018-12-05T14:24:06Z</time>
      </trkpt>
      <trkpt lat="44.99989" lon="5.19933">
        <ele>607.18</ele>
        <time>2018-12-05T14:24:17Z</time>
      </trkpt>
      <trkpt lat="44.99979" lon="5.19936">
        <ele>605.42</ele>
        <time>2018-12-05T14:24:27Z</time>
      </trkpt>
      <trkpt lat="44.99959" lon="5.19935">
        <ele>602.57</ele>
        <time>2018-12-05T14:24:42Z</time>
      </trkpt>
      <trkpt lat="44.99957" lon="5.19935">
        <ele>602.28</ele>
        <time>2018-12-05T14:24:44Z</time>
      </trkpt>
      <trkpt lat="44.9995" lon="5.19934">
        <ele>601.49</ele>
        <time>2018-12-05T14:24:50Z</time>
      </trkpt>
      <trkpt lat="44.99948" lon="5.19933">
        <ele>601.02</ele>
        <time>2018-12-05T14:24:52Z</time>
      </trkpt>
      <trkpt lat="44.99938" lon="5.19928">
        <ele>599.15</ele>
        <time>2018-12-05T14:25:02Z</time>
      </trkpt>
      <trkpt lat="44.99932" lon="5.19926">
        <ele>598.23</ele>
        <time>2018-12-05T14:25:08Z</time>
      </trkpt>
      <trkpt lat="44.99922" lon="5.19925">
        <ele>596.39</ele>
        <time>2018-12-05T14:25:18Z</time>
      </trkpt>
      <trkpt lat="44.99912" lon="5.19925">
        <ele>595.34</ele>
        <time>2018-12-05T14:25:26Z</time>
      </trkpt>
      <trkpt lat="44.99894" lon="5.19932">
        <ele>592.91</ele>
        <time>2018-12-05T14:25:42Z</time>
      </trkpt>
      <trkpt lat="44.99883" lon="5.19935">
        <ele>591.33</ele>
        <time>2018-12-05T14:25:52Z</time>
      </trkpt>
      <trkpt lat="44.99869" lon="5.19935">
        <ele>589.51</ele>
        <time>2018-12-05T14:26:05Z</time>
      </trkpt>
      <trkpt lat="44.99855" lon="5.19933">
        <ele>587.61</ele>
        <time>2018-12-05T14:26:16Z</time>
      </trkpt>
      <trkpt lat="44.99848" lon="5.1993">
        <ele>586.35</ele>
        <time>2018-12-05T14:26:22Z</time>
      </trkpt>
      <trkpt lat="44.99846" lon="5.19928">
        <ele>586.4</ele>
        <time>2018-12-05T14:26:23Z</time>
      </trkpt>
      <trkpt lat="44.9983" lon="5.19922">
        <ele>583.82</ele>
        <time>2018-12-05T14:26:36Z</time>
      </trkpt>
      <trkpt lat="44.99829" lon="5.19921">
        <ele>583.35</ele>
        <time>2018-12-05T14:26:37Z</time>
      </trkpt>
      <trkpt lat="44.99828" lon="5.19921">
        <ele>583.62</ele>
        <time>2018-12-05T14:26:38Z</time>
      </trkpt>
      <trkpt lat="44.99826" lon="5.19921">
        <ele>583.39</ele>
        <time>2018-12-05T14:26:39Z</time>
      </trkpt>
      <trkpt lat="44.99825" lon="5.1992">
        <ele>583.02</ele>
        <time>2018-12-05T14:26:40Z</time>
      </trkpt>
      <trkpt lat="44.99824" lon="5.19919">
        <ele>582.62</ele>
        <time>2018-12-05T14:26:41Z</time>
      </trkpt>
      <trkpt lat="44.99823" lon="5.19919">
        <ele>582.62</ele>
        <time>2018-12-05T14:26:42Z</time>
      </trkpt>
      <trkpt lat="44.99821" lon="5.19918">
        <ele>582.46</ele>
        <time>2018-12-05T14:26:43Z</time>
      </trkpt>
      <trkpt lat="44.9982" lon="5.19919">
        <ele>582.34</ele>
        <time>2018-12-05T14:26:44Z</time>
      </trkpt>
      <trkpt lat="44.99819" lon="5.19918">
        <ele>582.15</ele>
        <time>2018-12-05T14:26:45Z</time>
      </trkpt>
      <trkpt lat="44.99818" lon="5.19918">
        <ele>581.89</ele>
        <time>2018-12-05T14:26:46Z</time>
      </trkpt>
      <trkpt lat="44.99817" lon="5.19917">
        <ele>581.72</ele>
        <time>2018-12-05T14:26:47Z</time>
      </trkpt>
      <trkpt lat="44.99815" lon="5.19916">
        <ele>581.67</ele>
        <time>2018-12-05T14:26:48Z</time>
      </trkpt>
      <trkpt lat="44.99813" lon="5.19915">
        <ele>581.1</ele>
        <time>2018-12-05T14:26:50Z</time>
      </trkpt>
      <trkpt lat="44.99805" lon="5.19909">
        <ele>579.89</ele>
        <time>2018-12-05T14:26:58Z</time>
      </trkpt>
      <trkpt lat="44.99804" lon="5.19908">
        <ele>579.68</ele>
        <time>2018-12-05T14:26:59Z</time>
      </trkpt>
      <trkpt lat="44.99802" lon="5.19907">
        <ele>579.54</ele>
        <time>2018-12-05T14:27:00Z</time>
      </trkpt>
      <trkpt lat="44.99801" lon="5.19906">
        <ele>579.38</ele>
        <time>2018-12-05T14:27:01Z</time>
      </trkpt>
      <trkpt lat="44.998" lon="5.19905">
        <ele>579.28</ele>
        <time>2018-12-05T14:27:02Z</time>
      </trkpt>
      <trkpt lat="44.99794" lon="5.199">
        <ele>578.51</ele>
        <time>2018-12-05T14:27:08Z</time>
      </trkpt>
      <trkpt lat="44.99793" lon="5.19899">
        <ele>578.43</ele>
        <time>2018-12-05T14:27:09Z</time>
      </trkpt>
      <trkpt lat="44.99792" lon="5.19898">
        <ele>578.15</ele>
        <time>2018-12-05T14:27:10Z</time>
      </trkpt>
      <trkpt lat="44.99791" lon="5.19897">
        <ele>577.91</ele>
        <time>2018-12-05T14:27:11Z</time>
      </trkpt>
      <trkpt lat="44.9979" lon="5.19897">
        <ele>578.14</ele>
        <time>2018-12-05T14:27:12Z</time>
      </trkpt>
      <trkpt lat="44.9978" lon="5.19889">
        <ele>576.58</ele>
        <time>2018-12-05T14:27:22Z</time>
      </trkpt>
      <trkpt lat="44.99779" lon="5.19887">
        <ele>576.37</ele>
        <time>2018-12-05T14:27:23Z</time>
      </trkpt>
      <trkpt lat="44.99778" lon="5.19886">
        <ele>576.21</ele>
        <time>2018-12-05T14:27:24Z</time>
      </trkpt>
      <trkpt lat="44.99777" lon="5.19885">
        <ele>576.18</ele>
        <time>2018-12-05T14:27:25Z</time>
      </trkpt>
      <trkpt lat="44.99775" lon="5.19884">
        <ele>575.83</ele>
        <time>2018-12-05T14:27:26Z</time>
      </trkpt>
      <trkpt lat="44.99765" lon="5.19873">
        <ele>574.14</ele>
        <time>2018-12-05T14:27:36Z</time>
      </trkpt>
      <trkpt lat="44.99763" lon="5.19872">
        <ele>573.91</ele>
        <time>2018-12-05T14:27:37Z</time>
      </trkpt>
      <trkpt lat="44.99762" lon="5.19871">
        <ele>573.58</ele>
        <time>2018-12-05T14:27:38Z</time>
      </trkpt>
      <trkpt lat="44.99761" lon="5.19871">
        <ele>573.51</ele>
        <time>2018-12-05T14:27:39Z</time>
      </trkpt>
      <trkpt lat="44.9976" lon="5.1987">
        <ele>573.38</ele>
        <time>2018-12-05T14:27:40Z</time>
      </trkpt>
      <trkpt lat="44.99759" lon="5.19869">
        <ele>573.27</ele>
        <time>2018-12-05T14:27:41Z</time>
      </trkpt>
      <trkpt lat="44.99758" lon="5.19868">
        <ele>573.32</ele>
        <time>2018-12-05T14:27:42Z</time>
      </trkpt>
      <trkpt lat="44.99756" lon="5.19868">
        <ele>573.11</ele>
        <time>2018-12-05T14:27:43Z</time>
      </trkpt>
      <trkpt lat="44.99755" lon="5.19867">
        <ele>572.84</ele>
        <time>2018-12-05T14:27:44Z</time>
      </trkpt>
      <trkpt lat="44.99754" lon="5.19866">
        <ele>572.85</ele>
        <time>2018-12-05T14:27:45Z</time>
      </trkpt>
      <trkpt lat="44.99741" lon="5.1986">
        <ele>570.86</ele>
        <time>2018-12-05T14:27:56Z</time>
      </trkpt>
      <trkpt lat="44.99735" lon="5.19858">
        <ele>570.63</ele>
        <time>2018-12-05T14:28:00Z</time>
      </trkpt>
      <trkpt lat="44.99734" lon="5.19857">
        <ele>570.29</ele>
        <time>2018-12-05T14:28:01Z</time>
      </trkpt>
      <trkpt lat="44.99733" lon="5.19856">
        <ele>569.89</ele>
        <time>2018-12-05T14:28:02Z</time>
      </trkpt>
      <trkpt lat="44.99732" lon="5.19855">
        <ele>569.75</ele>
        <time>2018-12-05T14:28:03Z</time>
      </trkpt>
      <trkpt lat="44.99731" lon="5.19854">
        <ele>569.67</ele>
        <time>2018-12-05T14:28:04Z</time>
      </trkpt>
      <trkpt lat="44.9973" lon="5.19853">
        <ele>569.2</ele>
        <time>2018-12-05T14:28:05Z</time>
      </trkpt>
      <trkpt lat="44.99729" lon="5.19852">
        <ele>569.2</ele>
        <time>2018-12-05T14:28:06Z</time>
      </trkpt>
      <trkpt lat="44.99728" lon="5.19852">
        <ele>568.98</ele>
        <time>2018-12-05T14:28:07Z</time>
      </trkpt>
      <trkpt lat="44.99726" lon="5.19851">
        <ele>568.84</ele>
        <time>2018-12-05T14:28:08Z</time>
      </trkpt>
      <trkpt lat="44.99725" lon="5.1985">
        <ele>568.72</ele>
        <time>2018-12-05T14:28:09Z</time>
      </trkpt>
      <trkpt lat="44.99724" lon="5.19849">
        <ele>568.57</ele>
        <time>2018-12-05T14:28:10Z</time>
      </trkpt>
      <trkpt lat="44.99713" lon="5.19843">
        <ele>567.23</ele>
        <time>2018-12-05T14:28:20Z</time>
      </trkpt>
      <trkpt lat="44.99712" lon="5.19842">
        <ele>566.98</ele>
        <time>2018-12-05T14:28:21Z</time>
      </trkpt>
      <trkpt lat="44.9971" lon="5.19841">
        <ele>566.93</ele>
        <time>2018-12-05T14:28:22Z</time>
      </trkpt>
      <trkpt lat="44.99709" lon="5.19841">
        <ele>566.92</ele>
        <time>2018-12-05T14:28:23Z</time>
      </trkpt>
      <trkpt lat="44.99708" lon="5.1984">
        <ele>566.72</ele>
        <time>2018-12-05T14:28:24Z</time>
      </trkpt>
      <trkpt lat="44.99707" lon="5.19839">
        <ele>566.53</ele>
        <time>2018-12-05T14:28:25Z</time>
      </trkpt>
      <trkpt lat="44.99706" lon="5.19838">
        <ele>566.41</ele>
        <time>2018-12-05T14:28:26Z</time>
      </trkpt>
      <trkpt lat="44.99697" lon="5.19835">
        <ele>565.22</ele>
        <time>2018-12-05T14:28:33Z</time>
      </trkpt>
      <trkpt lat="44.99695" lon="5.19834">
        <ele>565.04</ele>
        <time>2018-12-05T14:28:34Z</time>
      </trkpt>
      <trkpt lat="44.99694" lon="5.19833">
        <ele>564.78</ele>
        <time>2018-12-05T14:28:35Z</time>
      </trkpt>
      <trkpt lat="44.99693" lon="5.19832">
        <ele>564.65</ele>
        <time>2018-12-05T14:28:36Z</time>
      </trkpt>
      <trkpt lat="44.99692" lon="5.19831">
        <ele>564.67</ele>
        <time>2018-12-05T14:28:37Z</time>
      </trkpt>
      <trkpt lat="44.99691" lon="5.1983">
        <ele>564.18</ele>
        <time>2018-12-05T14:28:38Z</time>
      </trkpt>
      <trkpt lat="44.9969" lon="5.19829">
        <ele>563.82</ele>
        <time>2018-12-05T14:28:39Z</time>
      </trkpt>
      <trkpt lat="44.99689" lon="5.19828">
        <ele>563.72</ele>
        <time>2018-12-05T14:28:40Z</time>
      </trkpt>
      <trkpt lat="44.99688" lon="5.19828">
        <ele>563.89</ele>
        <time>2018-12-05T14:28:41Z</time>
      </trkpt>
      <trkpt lat="44.99687" lon="5.19827">
        <ele>563.37</ele>
        <time>2018-12-05T14:28:42Z</time>
      </trkpt>
      <trkpt lat="44.99686" lon="5.19827">
        <ele>563.5</ele>
        <time>2018-12-05T14:28:43Z</time>
      </trkpt>
      <trkpt lat="44.99675" lon="5.19817">
        <ele>561.77</ele>
        <time>2018-12-05T14:28:54Z</time>
      </trkpt>
      <trkpt lat="44.99662" lon="5.19809">
        <ele>558.85</ele>
        <time>2018-12-05T14:29:06Z</time>
      </trkpt>
      <trkpt lat="44.9965" lon="5.198">
        <ele>557.28</ele>
        <time>2018-12-05T14:29:17Z</time>
      </trkpt>
      <trkpt lat="44.99649" lon="5.19799">
        <ele>557.19</ele>
        <time>2018-12-05T14:29:18Z</time>
      </trkpt>
      <trkpt lat="44.99644" lon="5.19795">
        <ele>556.54</ele>
        <time>2018-12-05T14:29:23Z</time>
      </trkpt>
      <trkpt lat="44.99642" lon="5.19794">
        <ele>556.51</ele>
        <time>2018-12-05T14:29:24Z</time>
      </trkpt>
      <trkpt lat="44.99641" lon="5.19793">
        <ele>556.25</ele>
        <time>2018-12-05T14:29:25Z</time>
      </trkpt>
      <trkpt lat="44.9964" lon="5.19792">
        <ele>556.08</ele>
        <time>2018-12-05T14:29:26Z</time>
      </trkpt>
      <trkpt lat="44.99639" lon="5.19791">
        <ele>555.95</ele>
        <time>2018-12-05T14:29:27Z</time>
      </trkpt>
      <trkpt lat="44.99638" lon="5.1979">
        <ele>555.89</ele>
        <time>2018-12-05T14:29:28Z</time>
      </trkpt>
      <trkpt lat="44.99637" lon="5.1979">
        <ele>555.71</ele>
        <time>2018-12-05T14:29:29Z</time>
      </trkpt>
      <trkpt lat="44.99636" lon="5.19789">
        <ele>555.38</ele>
        <time>2018-12-05T14:29:30Z</time>
      </trkpt>
      <trkpt lat="44.99635" lon="5.19788">
        <ele>555.41</ele>
        <time>2018-12-05T14:29:31Z</time>
      </trkpt>
      <trkpt lat="44.99633" lon="5.19787">
        <ele>555.23</ele>
        <time>2018-12-05T14:29:32Z</time>
      </trkpt>
      <trkpt lat="44.99632" lon="5.19786">
        <ele>555.02</ele>
        <time>2018-12-05T14:29:33Z</time>
      </trkpt>
      <trkpt lat="44.99631" lon="5.19785">
        <ele>554.94</ele>
        <time>2018-12-05T14:29:34Z</time>
      </trkpt>
      <trkpt lat="44.9963" lon="5.19784">
        <ele>554.76</ele>
        <time>2018-12-05T14:29:35Z</time>
      </trkpt>
      <trkpt lat="44.99623" lon="5.19776">
        <ele>553.53</ele>
        <time>2018-12-05T14:29:43Z</time>
      </trkpt>
      <trkpt lat="44.99622" lon="5.19775">
        <ele>553.56</ele>
        <time>2018-12-05T14:29:44Z</time>
      </trkpt>
      <trkpt lat="44.99621" lon="5.19774">
        <ele>553.39</ele>
        <time>2018-12-05T14:29:45Z</time>
      </trkpt>
      <trkpt lat="44.99614" lon="5.19766">
        <ele>552.34</ele>
        <time>2018-12-05T14:29:52Z</time>
      </trkpt>
      <trkpt lat="44.99613" lon="5.19765">
        <ele>552.09</ele>
        <time>2018-12-05T14:29:53Z</time>
      </trkpt>
      <trkpt lat="44.99613" lon="5.19763">
        <ele>552.14</ele>
        <time>2018-12-05T14:29:54Z</time>
      </trkpt>
      <trkpt lat="44.99612" lon="5.19762">
        <ele>551.88</ele>
        <time>2018-12-05T14:29:55Z</time>
      </trkpt>
      <trkpt lat="44.99611" lon="5.1976">
        <ele>551.7</ele>
        <time>2018-12-05T14:29:56Z</time>
      </trkpt>
      <trkpt lat="44.99611" lon="5.19759">
        <ele>551.44</ele>
        <time>2018-12-05T14:29:57Z</time>
      </trkpt>
      <trkpt lat="44.9961" lon="5.19758">
        <ele>551.34</ele>
        <time>2018-12-05T14:29:58Z</time>
      </trkpt>
      <trkpt lat="44.99609" lon="5.19756">
        <ele>551.2</ele>
        <time>2018-12-05T14:29:59Z</time>
      </trkpt>
      <trkpt lat="44.99608" lon="5.19755">
        <ele>550.96</ele>
        <time>2018-12-05T14:30:00Z</time>
      </trkpt>
      <trkpt lat="44.99607" lon="5.19755">
        <ele>550.95</ele>
        <time>2018-12-05T14:30:01Z</time>
      </trkpt>
      <trkpt lat="44.99605" lon="5.19753">
        <ele>550.69</ele>
        <time>2018-12-05T14:30:03Z</time>
      </trkpt>
      <trkpt lat="44.99598" lon="5.19747">
        <ele>549.47</ele>
        <time>2018-12-05T14:30:10Z</time>
      </trkpt>
      <trkpt lat="44.99597" lon="5.19746">
        <ele>549.42</ele>
        <time>2018-12-05T14:30:11Z</time>
      </trkpt>
      <trkpt lat="44.99596" lon="5.19745">
        <ele>549.17</ele>
        <time>2018-12-05T14:30:12Z</time>
      </trkpt>
      <trkpt lat="44.99595" lon="5.19744">
        <ele>549.18</ele>
        <time>2018-12-05T14:30:13Z</time>
      </trkpt>
      <trkpt lat="44.99594" lon="5.19743">
        <ele>548.97</ele>
        <time>2018-12-05T14:30:14Z</time>
      </trkpt>
      <trkpt lat="44.99593" lon="5.19742">
        <ele>549.01</ele>
        <time>2018-12-05T14:30:15Z</time>
      </trkpt>
      <trkpt lat="44.99592" lon="5.19741">
        <ele>548.84</ele>
        <time>2018-12-05T14:30:16Z</time>
      </trkpt>
      <trkpt lat="44.99591" lon="5.1974">
        <ele>548.7</ele>
        <time>2018-12-05T14:30:17Z</time>
      </trkpt>
      <trkpt lat="44.9959" lon="5.19739">
        <ele>548.39</ele>
        <time>2018-12-05T14:30:18Z</time>
      </trkpt>
      <trkpt lat="44.99589" lon="5.19737">
        <ele>548.27</ele>
        <time>2018-12-05T14:30:19Z</time>
      </trkpt>
      <trkpt lat="44.99586" lon="5.19732">
        <ele>547.8</ele>
        <time>2018-12-05T14:30:23Z</time>
      </trkpt>
      <trkpt lat="44.99585" lon="5.19731">
        <ele>547.56</ele>
        <time>2018-12-05T14:30:24Z</time>
      </trkpt>
      <trkpt lat="44.99584" lon="5.1973">
        <ele>547.35</ele>
        <time>2018-12-05T14:30:25Z</time>
      </trkpt>
      <trkpt lat="44.99583" lon="5.19729">
        <ele>547.12</ele>
        <time>2018-12-05T14:30:26Z</time>
      </trkpt>
      <trkpt lat="44.99582" lon="5.19728">
        <ele>546.9</ele>
        <time>2018-12-05T14:30:27Z</time>
      </trkpt>
      <trkpt lat="44.99581" lon="5.19727">
        <ele>546.89</ele>
        <time>2018-12-05T14:30:28Z</time>
      </trkpt>
      <trkpt lat="44.9958" lon="5.19726">
        <ele>546.86</ele>
        <time>2018-12-05T14:30:29Z</time>
      </trkpt>
      <trkpt lat="44.99567" lon="5.19714">
        <ele>545.08</ele>
        <time>2018-12-05T14:30:41Z</time>
      </trkpt>
      <trkpt lat="44.99557" lon="5.197">
        <ele>543.41</ele>
        <time>2018-12-05T14:30:52Z</time>
      </trkpt>
      <trkpt lat="44.99556" lon="5.19699">
        <ele>543.44</ele>
        <time>2018-12-05T14:30:53Z</time>
      </trkpt>
      <trkpt lat="44.99555" lon="5.19698">
        <ele>543.18</ele>
        <time>2018-12-05T14:30:54Z</time>
      </trkpt>
      <trkpt lat="44.99554" lon="5.19697">
        <ele>543.14</ele>
        <time>2018-12-05T14:30:55Z</time>
      </trkpt>
      <trkpt lat="44.9955" lon="5.19692">
        <ele>542.46</ele>
        <time>2018-12-05T14:30:59Z</time>
      </trkpt>
      <trkpt lat="44.99542" lon="5.1968">
        <ele>540.98</ele>
        <time>2018-12-05T14:31:08Z</time>
      </trkpt>
      <trkpt lat="44.99532" lon="5.19666">
        <ele>539.59</ele>
        <time>2018-12-05T14:31:19Z</time>
      </trkpt>
      <trkpt lat="44.9952" lon="5.19655">
        <ele>538.25</ele>
        <time>2018-12-05T14:31:30Z</time>
      </trkpt>
      <trkpt lat="44.99513" lon="5.19647">
        <ele>536.83</ele>
        <time>2018-12-05T14:31:38Z</time>
      </trkpt>
      <trkpt lat="44.99511" lon="5.19646">
        <ele>536.66</ele>
        <time>2018-12-05T14:31:39Z</time>
      </trkpt>
      <trkpt lat="44.9951" lon="5.19646">
        <ele>536.5</ele>
        <time>2018-12-05T14:31:40Z</time>
      </trkpt>
      <trkpt lat="44.99508" lon="5.19645">
        <ele>536.32</ele>
        <time>2018-12-05T14:31:41Z</time>
      </trkpt>
      <trkpt lat="44.99507" lon="5.19644">
        <ele>536.22</ele>
        <time>2018-12-05T14:31:42Z</time>
      </trkpt>
      <trkpt lat="44.99495" lon="5.19636">
        <ele>534.3</ele>
        <time>2018-12-05T14:31:53Z</time>
      </trkpt>
      <trkpt lat="44.99493" lon="5.19635">
        <ele>534.1</ele>
        <time>2018-12-05T14:31:55Z</time>
      </trkpt>
      <trkpt lat="44.99492" lon="5.19635">
        <ele>533.88</ele>
        <time>2018-12-05T14:31:56Z</time>
      </trkpt>
      <trkpt lat="44.9949" lon="5.19635">
        <ele>533.89</ele>
        <time>2018-12-05T14:31:57Z</time>
      </trkpt>
      <trkpt lat="44.99478" lon="5.19633">
        <ele>532.17</ele>
        <time>2018-12-05T14:32:07Z</time>
      </trkpt>
      <trkpt lat="44.99464" lon="5.19635">
        <ele>530.44</ele>
        <time>2018-12-05T14:32:19Z</time>
      </trkpt>
      <trkpt lat="44.9946" lon="5.19638">
        <ele>529.9</ele>
        <time>2018-12-05T14:32:23Z</time>
      </trkpt>
      <trkpt lat="44.99459" lon="5.19639">
        <ele>529.85</ele>
        <time>2018-12-05T14:32:24Z</time>
      </trkpt>
      <trkpt lat="44.99458" lon="5.1964">
        <ele>529.52</ele>
        <time>2018-12-05T14:32:25Z</time>
      </trkpt>
      <trkpt lat="44.99448" lon="5.19652">
        <ele>528.36</ele>
        <time>2018-12-05T14:32:36Z</time>
      </trkpt>
      <trkpt lat="44.99443" lon="5.19663">
        <ele>527.42</ele>
        <time>2018-12-05T14:32:44Z</time>
      </trkpt>
      <trkpt lat="44.99442" lon="5.19664">
        <ele>527.11</ele>
        <time>2018-12-05T14:32:45Z</time>
      </trkpt>
      <trkpt lat="44.99441" lon="5.19668">
        <ele>526.95</ele>
        <time>2018-12-05T14:32:47Z</time>
      </trkpt>
      <trkpt lat="44.99441" lon="5.19669">
        <ele>526.79</ele>
        <time>2018-12-05T14:32:48Z</time>
      </trkpt>
      <trkpt lat="44.9944" lon="5.19671">
        <ele>526.65</ele>
        <time>2018-12-05T14:32:49Z</time>
      </trkpt>
      <trkpt lat="44.99439" lon="5.19672">
        <ele>526.41</ele>
        <time>2018-12-05T14:32:50Z</time>
      </trkpt>
      <trkpt lat="44.99439" lon="5.19674">
        <ele>526.27</ele>
        <time>2018-12-05T14:32:51Z</time>
      </trkpt>
      <trkpt lat="44.99429" lon="5.19687">
        <ele>524.99</ele>
        <time>2018-12-05T14:33:02Z</time>
      </trkpt>
      <trkpt lat="44.99418" lon="5.19696">
        <ele>524.05</ele>
        <time>2018-12-05T14:33:12Z</time>
      </trkpt>
      <trkpt lat="44.99416" lon="5.19697">
        <ele>523.78</ele>
        <time>2018-12-05T14:33:13Z</time>
      </trkpt>
      <trkpt lat="44.99401" lon="5.19703">
        <ele>522.35</ele>
        <time>2018-12-05T14:33:25Z</time>
      </trkpt>
      <trkpt lat="44.99386" lon="5.1971">
        <ele>521.02</ele>
        <time>2018-12-05T14:33:37Z</time>
      </trkpt>
      <trkpt lat="44.99371" lon="5.19718">
        <ele>519.34</ele>
        <time>2018-12-05T14:33:49Z</time>
      </trkpt>
      <trkpt lat="44.99364" lon="5.1972">
        <ele>518.35</ele>
        <time>2018-12-05T14:33:55Z</time>
      </trkpt>
      <trkpt lat="44.99351" lon="5.19724">
        <ele>517.28</ele>
        <time>2018-12-05T14:34:05Z</time>
      </trkpt>
      <trkpt lat="44.99338" lon="5.19733">
        <ele>515.42</ele>
        <time>2018-12-05T14:34:17Z</time>
      </trkpt>
      <trkpt lat="44.99327" lon="5.1974">
        <ele>513.71</ele>
        <time>2018-12-05T14:34:27Z</time>
      </trkpt>
      <trkpt lat="44.99317" lon="5.19749">
        <ele>512.21</ele>
        <time>2018-12-05T14:34:38Z</time>
      </trkpt>
      <trkpt lat="44.99305" lon="5.19759">
        <ele>510.48</ele>
        <time>2018-12-05T14:34:50Z</time>
      </trkpt>
      <trkpt lat="44.99303" lon="5.19759">
        <ele>510.36</ele>
        <time>2018-12-05T14:34:51Z</time>
      </trkpt>
      <trkpt lat="44.99302" lon="5.19759">
        <ele>510.03</ele>
        <time>2018-12-05T14:34:52Z</time>
      </trkpt>
      <trkpt lat="44.99301" lon="5.1976">
        <ele>510.06</ele>
        <time>2018-12-05T14:34:53Z</time>
      </trkpt>
      <trkpt lat="44.993" lon="5.19761">
        <ele>509.5</ele>
        <time>2018-12-05T14:34:54Z</time>
      </trkpt>
      <trkpt lat="44.99299" lon="5.19762">
        <ele>509.85</ele>
        <time>2018-12-05T14:34:55Z</time>
      </trkpt>
      <trkpt lat="44.99297" lon="5.19763">
        <ele>509.3</ele>
        <time>2018-12-05T14:34:56Z</time>
      </trkpt>
      <trkpt lat="44.99296" lon="5.19763">
        <ele>509.21</ele>
        <time>2018-12-05T14:34:57Z</time>
      </trkpt>
      <trkpt lat="44.99295" lon="5.19764">
        <ele>508.98</ele>
        <time>2018-12-05T14:34:58Z</time>
      </trkpt>
      <trkpt lat="44.99294" lon="5.19765">
        <ele>508.69</ele>
        <time>2018-12-05T14:34:59Z</time>
      </trkpt>
      <trkpt lat="44.99292" lon="5.19765">
        <ele>508.67</ele>
        <time>2018-12-05T14:35:00Z</time>
      </trkpt>
      <trkpt lat="44.99291" lon="5.19766">
        <ele>508.45</ele>
        <time>2018-12-05T14:35:01Z</time>
      </trkpt>
      <trkpt lat="44.9929" lon="5.19767">
        <ele>508.38</ele>
        <time>2018-12-05T14:35:02Z</time>
      </trkpt>
      <trkpt lat="44.99289" lon="5.19768">
        <ele>508.24</ele>
        <time>2018-12-05T14:35:03Z</time>
      </trkpt>
      <trkpt lat="44.99288" lon="5.19769">
        <ele>508.11</ele>
        <time>2018-12-05T14:35:04Z</time>
      </trkpt>
      <trkpt lat="44.9928" lon="5.19773">
        <ele>507.08</ele>
        <time>2018-12-05T14:35:10Z</time>
      </trkpt>
      <trkpt lat="44.99279" lon="5.19773">
        <ele>506.95</ele>
        <time>2018-12-05T14:35:11Z</time>
      </trkpt>
      <trkpt lat="44.99278" lon="5.19774">
        <ele>506.73</ele>
        <time>2018-12-05T14:35:12Z</time>
      </trkpt>
      <trkpt lat="44.99276" lon="5.19774">
        <ele>506.63</ele>
        <time>2018-12-05T14:35:13Z</time>
      </trkpt>
      <trkpt lat="44.99275" lon="5.19775">
        <ele>506.39</ele>
        <time>2018-12-05T14:35:14Z</time>
      </trkpt>
      <trkpt lat="44.99274" lon="5.19775">
        <ele>506.07</ele>
        <time>2018-12-05T14:35:15Z</time>
      </trkpt>
      <trkpt lat="44.99273" lon="5.19776">
        <ele>506.04</ele>
        <time>2018-12-05T14:35:16Z</time>
      </trkpt>
      <trkpt lat="44.99272" lon="5.19776">
        <ele>505.8</ele>
        <time>2018-12-05T14:35:17Z</time>
      </trkpt>
      <trkpt lat="44.99271" lon="5.19777">
        <ele>505.58</ele>
        <time>2018-12-05T14:35:18Z</time>
      </trkpt>
      <trkpt lat="44.9927" lon="5.19777">
        <ele>505.53</ele>
        <time>2018-12-05T14:35:19Z</time>
      </trkpt>
      <trkpt lat="44.99268" lon="5.19778">
        <ele>505.47</ele>
        <time>2018-12-05T14:35:20Z</time>
      </trkpt>
      <trkpt lat="44.99256" lon="5.19786">
        <ele>503.34</ele>
        <time>2018-12-05T14:35:32Z</time>
      </trkpt>
      <trkpt lat="44.9925" lon="5.19787">
        <ele>503.19</ele>
        <time>2018-12-05T14:35:39Z</time>
      </trkpt>
      <trkpt lat="44.99249" lon="5.19788">
        <ele>502.94</ele>
        <time>2018-12-05T14:35:40Z</time>
      </trkpt>
      <trkpt lat="44.99248" lon="5.19788">
        <ele>502.7</ele>
        <time>2018-12-05T14:35:41Z</time>
      </trkpt>
      <trkpt lat="44.99247" lon="5.19789">
        <ele>502.63</ele>
        <time>2018-12-05T14:35:42Z</time>
      </trkpt>
      <trkpt lat="44.99245" lon="5.19789">
        <ele>502.51</ele>
        <time>2018-12-05T14:35:43Z</time>
      </trkpt>
      <trkpt lat="44.99244" lon="5.19789">
        <ele>502.34</ele>
        <time>2018-12-05T14:35:44Z</time>
      </trkpt>
      <trkpt lat="44.99242" lon="5.1979">
        <ele>502.22</ele>
        <time>2018-12-05T14:35:45Z</time>
      </trkpt>
      <trkpt lat="44.99241" lon="5.19791">
        <ele>502.18</ele>
        <time>2018-12-05T14:35:46Z</time>
      </trkpt>
      <trkpt lat="44.99237" lon="5.19793">
        <ele>501.78</ele>
        <time>2018-12-05T14:35:49Z</time>
      </trkpt>
      <trkpt lat="44.99221" lon="5.198">
        <ele>500.06</ele>
        <time>2018-12-05T14:36:02Z</time>
      </trkpt>
      <trkpt lat="44.99209" lon="5.19803">
        <ele>498.64</ele>
        <time>2018-12-05T14:36:12Z</time>
      </trkpt>
      <trkpt lat="44.99204" lon="5.19805">
        <ele>498.31</ele>
        <time>2018-12-05T14:36:16Z</time>
      </trkpt>
      <trkpt lat="44.9919" lon="5.19804">
        <ele>496.56</ele>
        <time>2018-12-05T14:36:27Z</time>
      </trkpt>
      <trkpt lat="44.99176" lon="5.19804">
        <ele>493.88</ele>
        <time>2018-12-05T14:36:38Z</time>
      </trkpt>
      <trkpt lat="44.99166" lon="5.19809">
        <ele>493.08</ele>
        <time>2018-12-05T14:36:49Z</time>
      </trkpt>
      <trkpt lat="44.99166" lon="5.19811">
        <ele>492.13</ele>
        <time>2018-12-05T14:37:03Z</time>
      </trkpt>
      <trkpt lat="44.99161" lon="5.19811">
        <ele>491.86</ele>
        <time>2018-12-05T14:37:46Z</time>
      </trkpt>
      <trkpt lat="44.99159" lon="5.19809">
        <ele>492.13</ele>
        <time>2018-12-05T14:38:28Z</time>
      </trkpt>
      <trkpt lat="44.99158" lon="5.19808">
        <ele>492.54</ele>
        <time>2018-12-05T14:39:10Z</time>
      </trkpt>
      <trkpt lat="44.99158" lon="5.19808">
        <ele>493.35</ele>
        <time>2018-12-05T14:39:48Z</time>
      </trkpt>
    </trkseg>
  </trk>
</gpx>